<?xml version="1.0" encoding="UTF-8"?>
<gpx creator="StravaGPX" version="1.1" xmlns="http://www.topografix.com/GPX/1/1" xmlns:xsi="http://www.w3.org/2001/XMLSchema-instance" xsi:schemaLocation="http://www.topografix.com/GPX/1/1 http://www.topografix.com/GPX/1/1/gpx.xsd http://www.garmin.com/xmlschemas/GpxExtensions/v3 http://www.garmin.com/xmlschemas/GpxExtensionsv3.xsd http://www.garmin.com/xmlschemas/TrackPointExtension/v1 http://www.garmin.com/xmlschemas/TrackPointExtensionv1.xsd">
 <metadata>
  <time>2017-01-22T05:43:26Z</time>
 </metadata>
 <trk>
  <name>Зимний бор 4</name>
  <trkseg>
   <trkpt lat="51.6951250" lon="39.2660570">
    <ele>106.7</ele>
    <time>2017-01-22T05:43:26Z</time>
   </trkpt>
   <trkpt lat="51.6951250" lon="39.2660570">
    <ele>106.7</ele>
    <time>2017-01-22T05:43:31Z</time>
   </trkpt>
   <trkpt lat="51.6953070" lon="39.2659970">
    <ele>107.5</ele>
    <time>2017-01-22T05:43:39Z</time>
   </trkpt>
   <trkpt lat="51.6953220" lon="39.2662510">
    <ele>107.0</ele>
    <time>2017-01-22T05:43:43Z</time>
   </trkpt>
   <trkpt lat="51.6953120" lon="39.2662850">
    <ele>106.9</ele>
    <time>2017-01-22T05:43:44Z</time>
   </trkpt>
   <trkpt lat="51.6953190" lon="39.2663660">
    <ele>106.7</ele>
    <time>2017-01-22T05:43:46Z</time>
   </trkpt>
   <trkpt lat="51.6953260" lon="39.2663990">
    <ele>106.6</ele>
    <time>2017-01-22T05:43:47Z</time>
   </trkpt>
   <trkpt lat="51.6953340" lon="39.2664250">
    <ele>106.6</ele>
    <time>2017-01-22T05:43:48Z</time>
   </trkpt>
   <trkpt lat="51.6953510" lon="39.2664450">
    <ele>106.5</ele>
    <time>2017-01-22T05:43:49Z</time>
   </trkpt>
   <trkpt lat="51.6953710" lon="39.2664590">
    <ele>106.4</ele>
    <time>2017-01-22T05:43:50Z</time>
   </trkpt>
   <trkpt lat="51.6957520" lon="39.2667720">
    <ele>106.0</ele>
    <time>2017-01-22T05:44:04Z</time>
   </trkpt>
   <trkpt lat="51.6961490" lon="39.2669880">
    <ele>107.4</ele>
    <time>2017-01-22T05:44:17Z</time>
   </trkpt>
   <trkpt lat="51.6963120" lon="39.2671440">
    <ele>108.0</ele>
    <time>2017-01-22T05:44:22Z</time>
   </trkpt>
   <trkpt lat="51.6963400" lon="39.2671810">
    <ele>108.1</ele>
    <time>2017-01-22T05:44:23Z</time>
   </trkpt>
   <trkpt lat="51.6963640" lon="39.2672120">
    <ele>108.2</ele>
    <time>2017-01-22T05:44:24Z</time>
   </trkpt>
   <trkpt lat="51.6963970" lon="39.2672400">
    <ele>108.3</ele>
    <time>2017-01-22T05:44:25Z</time>
   </trkpt>
   <trkpt lat="51.6964310" lon="39.2672650">
    <ele>108.4</ele>
    <time>2017-01-22T05:44:26Z</time>
   </trkpt>
   <trkpt lat="51.6968770" lon="39.2675840">
    <ele>108.1</ele>
    <time>2017-01-22T05:44:40Z</time>
   </trkpt>
   <trkpt lat="51.6969410" lon="39.2676650">
    <ele>108.1</ele>
    <time>2017-01-22T05:44:43Z</time>
   </trkpt>
   <trkpt lat="51.6969500" lon="39.2676980">
    <ele>108.1</ele>
    <time>2017-01-22T05:44:44Z</time>
   </trkpt>
   <trkpt lat="51.6969510" lon="39.2677280">
    <ele>108.0</ele>
    <time>2017-01-22T05:44:45Z</time>
   </trkpt>
   <trkpt lat="51.6969450" lon="39.2677590">
    <ele>108.1</ele>
    <time>2017-01-22T05:44:46Z</time>
   </trkpt>
   <trkpt lat="51.6969360" lon="39.2677940">
    <ele>108.2</ele>
    <time>2017-01-22T05:44:47Z</time>
   </trkpt>
   <trkpt lat="51.6969260" lon="39.2678290">
    <ele>108.3</ele>
    <time>2017-01-22T05:44:48Z</time>
   </trkpt>
   <trkpt lat="51.6968510" lon="39.2683130">
    <ele>109.0</ele>
    <time>2017-01-22T05:44:58Z</time>
   </trkpt>
   <trkpt lat="51.6967750" lon="39.2690570">
    <ele>109.4</ele>
    <time>2017-01-22T05:45:12Z</time>
   </trkpt>
   <trkpt lat="51.6967260" lon="39.2692500">
    <ele>109.0</ele>
    <time>2017-01-22T05:45:15Z</time>
   </trkpt>
   <trkpt lat="51.6967100" lon="39.2693110">
    <ele>108.6</ele>
    <time>2017-01-22T05:45:16Z</time>
   </trkpt>
   <trkpt lat="51.6965010" lon="39.2701260">
    <ele>108.3</ele>
    <time>2017-01-22T05:45:31Z</time>
   </trkpt>
   <trkpt lat="51.6964950" lon="39.2701610">
    <ele>108.3</ele>
    <time>2017-01-22T05:45:32Z</time>
   </trkpt>
   <trkpt lat="51.6964960" lon="39.2701980">
    <ele>108.4</ele>
    <time>2017-01-22T05:45:33Z</time>
   </trkpt>
   <trkpt lat="51.6965060" lon="39.2702350">
    <ele>108.4</ele>
    <time>2017-01-22T05:45:34Z</time>
   </trkpt>
   <trkpt lat="51.6965230" lon="39.2702730">
    <ele>108.5</ele>
    <time>2017-01-22T05:45:35Z</time>
   </trkpt>
   <trkpt lat="51.6965440" lon="39.2703040">
    <ele>108.5</ele>
    <time>2017-01-22T05:45:36Z</time>
   </trkpt>
   <trkpt lat="51.6965720" lon="39.2703260">
    <ele>108.5</ele>
    <time>2017-01-22T05:45:37Z</time>
   </trkpt>
   <trkpt lat="51.6966010" lon="39.2703460">
    <ele>108.5</ele>
    <time>2017-01-22T05:45:38Z</time>
   </trkpt>
   <trkpt lat="51.6970050" lon="39.2706080">
    <ele>110.5</ele>
    <time>2017-01-22T05:45:49Z</time>
   </trkpt>
   <trkpt lat="51.6973280" lon="39.2708810">
    <ele>111.9</ele>
    <time>2017-01-22T05:45:58Z</time>
   </trkpt>
   <trkpt lat="51.6975240" lon="39.2709910">
    <ele>112.0</ele>
    <time>2017-01-22T05:46:04Z</time>
   </trkpt>
   <trkpt lat="51.6975460" lon="39.2710070">
    <ele>112.0</ele>
    <time>2017-01-22T05:46:05Z</time>
   </trkpt>
   <trkpt lat="51.6975750" lon="39.2710270">
    <ele>112.0</ele>
    <time>2017-01-22T05:46:06Z</time>
   </trkpt>
   <trkpt lat="51.6975920" lon="39.2710500">
    <ele>112.0</ele>
    <time>2017-01-22T05:46:07Z</time>
   </trkpt>
   <trkpt lat="51.6976050" lon="39.2710640">
    <ele>112.0</ele>
    <time>2017-01-22T05:46:08Z</time>
   </trkpt>
   <trkpt lat="51.6976720" lon="39.2713100">
    <ele>111.9</ele>
    <time>2017-01-22T05:46:16Z</time>
   </trkpt>
   <trkpt lat="51.6976790" lon="39.2713420">
    <ele>111.9</ele>
    <time>2017-01-22T05:46:17Z</time>
   </trkpt>
   <trkpt lat="51.6977120" lon="39.2716780">
    <ele>112.0</ele>
    <time>2017-01-22T05:46:28Z</time>
   </trkpt>
   <trkpt lat="51.6977310" lon="39.2717010">
    <ele>112.0</ele>
    <time>2017-01-22T05:46:29Z</time>
   </trkpt>
   <trkpt lat="51.6977480" lon="39.2717160">
    <ele>112.0</ele>
    <time>2017-01-22T05:46:30Z</time>
   </trkpt>
   <trkpt lat="51.6979380" lon="39.2718550">
    <ele>111.9</ele>
    <time>2017-01-22T05:46:42Z</time>
   </trkpt>
   <trkpt lat="51.6983560" lon="39.2721590">
    <ele>111.7</ele>
    <time>2017-01-22T05:46:54Z</time>
   </trkpt>
   <trkpt lat="51.6985250" lon="39.2722740">
    <ele>111.6</ele>
    <time>2017-01-22T05:46:58Z</time>
   </trkpt>
   <trkpt lat="51.6989330" lon="39.2725430">
    <ele>111.4</ele>
    <time>2017-01-22T05:47:08Z</time>
   </trkpt>
   <trkpt lat="51.6995780" lon="39.2729660">
    <ele>110.6</ele>
    <time>2017-01-22T05:47:25Z</time>
   </trkpt>
   <trkpt lat="51.6998630" lon="39.2731670">
    <ele>109.7</ele>
    <time>2017-01-22T05:47:32Z</time>
   </trkpt>
   <trkpt lat="51.7004720" lon="39.2735520">
    <ele>108.0</ele>
    <time>2017-01-22T05:47:47Z</time>
   </trkpt>
   <trkpt lat="51.7006800" lon="39.2736900">
    <ele>108.0</ele>
    <time>2017-01-22T05:47:57Z</time>
   </trkpt>
   <trkpt lat="51.7006930" lon="39.2737150">
    <ele>108.0</ele>
    <time>2017-01-22T05:47:59Z</time>
   </trkpt>
   <trkpt lat="51.7006980" lon="39.2738110">
    <ele>108.0</ele>
    <time>2017-01-22T05:48:08Z</time>
   </trkpt>
   <trkpt lat="51.7006470" lon="39.2740050">
    <ele>108.0</ele>
    <time>2017-01-22T05:48:42Z</time>
   </trkpt>
   <trkpt lat="51.7007850" lon="39.2742450">
    <ele>108.0</ele>
    <time>2017-01-22T05:48:56Z</time>
   </trkpt>
   <trkpt lat="51.7014770" lon="39.2747020">
    <ele>109.9</ele>
    <time>2017-01-22T05:49:12Z</time>
   </trkpt>
   <trkpt lat="51.7026420" lon="39.2752570">
    <ele>107.0</ele>
    <time>2017-01-22T05:49:35Z</time>
   </trkpt>
   <trkpt lat="51.7027310" lon="39.2753050">
    <ele>107.0</ele>
    <time>2017-01-22T05:49:37Z</time>
   </trkpt>
   <trkpt lat="51.7027710" lon="39.2753390">
    <ele>107.0</ele>
    <time>2017-01-22T05:49:38Z</time>
   </trkpt>
   <trkpt lat="51.7028090" lon="39.2753800">
    <ele>107.0</ele>
    <time>2017-01-22T05:49:39Z</time>
   </trkpt>
   <trkpt lat="51.7028430" lon="39.2754280">
    <ele>107.0</ele>
    <time>2017-01-22T05:49:40Z</time>
   </trkpt>
   <trkpt lat="51.7028750" lon="39.2754830">
    <ele>107.0</ele>
    <time>2017-01-22T05:49:41Z</time>
   </trkpt>
   <trkpt lat="51.7029040" lon="39.2755430">
    <ele>107.2</ele>
    <time>2017-01-22T05:49:42Z</time>
   </trkpt>
   <trkpt lat="51.7029310" lon="39.2756100">
    <ele>107.3</ele>
    <time>2017-01-22T05:49:43Z</time>
   </trkpt>
   <trkpt lat="51.7029560" lon="39.2756810">
    <ele>107.4</ele>
    <time>2017-01-22T05:49:44Z</time>
   </trkpt>
   <trkpt lat="51.7029760" lon="39.2757550">
    <ele>107.5</ele>
    <time>2017-01-22T05:49:45Z</time>
   </trkpt>
   <trkpt lat="51.7029920" lon="39.2758310">
    <ele>107.7</ele>
    <time>2017-01-22T05:49:46Z</time>
   </trkpt>
   <trkpt lat="51.7030040" lon="39.2759080">
    <ele>107.8</ele>
    <time>2017-01-22T05:49:47Z</time>
   </trkpt>
   <trkpt lat="51.7030110" lon="39.2759860">
    <ele>107.9</ele>
    <time>2017-01-22T05:49:48Z</time>
   </trkpt>
   <trkpt lat="51.7030120" lon="39.2760660">
    <ele>108.0</ele>
    <time>2017-01-22T05:49:49Z</time>
   </trkpt>
   <trkpt lat="51.7030110" lon="39.2761460">
    <ele>108.0</ele>
    <time>2017-01-22T05:49:50Z</time>
   </trkpt>
   <trkpt lat="51.7030060" lon="39.2762280">
    <ele>108.0</ele>
    <time>2017-01-22T05:49:51Z</time>
   </trkpt>
   <trkpt lat="51.7030000" lon="39.2763120">
    <ele>108.0</ele>
    <time>2017-01-22T05:49:52Z</time>
   </trkpt>
   <trkpt lat="51.7029170" lon="39.2771090">
    <ele>109.1</ele>
    <time>2017-01-22T05:50:01Z</time>
   </trkpt>
   <trkpt lat="51.7029040" lon="39.2773700">
    <ele>109.3</ele>
    <time>2017-01-22T05:50:04Z</time>
   </trkpt>
   <trkpt lat="51.7028910" lon="39.2774630">
    <ele>109.3</ele>
    <time>2017-01-22T05:50:05Z</time>
   </trkpt>
   <trkpt lat="51.7028810" lon="39.2775560">
    <ele>109.3</ele>
    <time>2017-01-22T05:50:06Z</time>
   </trkpt>
   <trkpt lat="51.7027760" lon="39.2788040">
    <ele>109.0</ele>
    <time>2017-01-22T05:50:20Z</time>
   </trkpt>
   <trkpt lat="51.7026950" lon="39.2799240">
    <ele>110.9</ele>
    <time>2017-01-22T05:50:34Z</time>
   </trkpt>
   <trkpt lat="51.7026120" lon="39.2810120">
    <ele>111.6</ele>
    <time>2017-01-22T05:50:48Z</time>
   </trkpt>
   <trkpt lat="51.7024700" lon="39.2826960">
    <ele>115.5</ele>
    <time>2017-01-22T05:51:09Z</time>
   </trkpt>
   <trkpt lat="51.7023190" lon="39.2845780">
    <ele>119.5</ele>
    <time>2017-01-22T05:51:32Z</time>
   </trkpt>
   <trkpt lat="51.7021890" lon="39.2861250">
    <ele>120.7</ele>
    <time>2017-01-22T05:51:51Z</time>
   </trkpt>
   <trkpt lat="51.7020430" lon="39.2880580">
    <ele>118.8</ele>
    <time>2017-01-22T05:52:14Z</time>
   </trkpt>
   <trkpt lat="51.7022370" lon="39.2894620">
    <ele>118.2</ele>
    <time>2017-01-22T05:52:31Z</time>
   </trkpt>
   <trkpt lat="51.7025710" lon="39.2901020">
    <ele>117.2</ele>
    <time>2017-01-22T05:52:41Z</time>
   </trkpt>
   <trkpt lat="51.7033620" lon="39.2905940">
    <ele>116.0</ele>
    <time>2017-01-22T05:52:57Z</time>
   </trkpt>
   <trkpt lat="51.7046120" lon="39.2909150">
    <ele>115.0</ele>
    <time>2017-01-22T05:53:20Z</time>
   </trkpt>
   <trkpt lat="51.7058190" lon="39.2912070">
    <ele>112.2</ele>
    <time>2017-01-22T05:53:43Z</time>
   </trkpt>
   <trkpt lat="51.7070740" lon="39.2915180">
    <ele>113.2</ele>
    <time>2017-01-22T05:54:06Z</time>
   </trkpt>
   <trkpt lat="51.7084620" lon="39.2918740">
    <ele>112.3</ele>
    <time>2017-01-22T05:54:31Z</time>
   </trkpt>
   <trkpt lat="51.7098040" lon="39.2922130">
    <ele>111.9</ele>
    <time>2017-01-22T05:54:55Z</time>
   </trkpt>
   <trkpt lat="51.7113910" lon="39.2926150">
    <ele>110.5</ele>
    <time>2017-01-22T05:55:24Z</time>
   </trkpt>
   <trkpt lat="51.7125040" lon="39.2928970">
    <ele>110.0</ele>
    <time>2017-01-22T05:55:44Z</time>
   </trkpt>
   <trkpt lat="51.7137470" lon="39.2932140">
    <ele>108.5</ele>
    <time>2017-01-22T05:56:06Z</time>
   </trkpt>
   <trkpt lat="51.7148650" lon="39.2934920">
    <ele>110.0</ele>
    <time>2017-01-22T05:56:26Z</time>
   </trkpt>
   <trkpt lat="51.7164040" lon="39.2938850">
    <ele>112.9</ele>
    <time>2017-01-22T05:56:54Z</time>
   </trkpt>
   <trkpt lat="51.7174940" lon="39.2941580">
    <ele>112.3</ele>
    <time>2017-01-22T05:57:15Z</time>
   </trkpt>
   <trkpt lat="51.7184530" lon="39.2944050">
    <ele>111.9</ele>
    <time>2017-01-22T05:57:34Z</time>
   </trkpt>
   <trkpt lat="51.7195410" lon="39.2947350">
    <ele>108.5</ele>
    <time>2017-01-22T05:57:56Z</time>
   </trkpt>
   <trkpt lat="51.7206240" lon="39.2949990">
    <ele>108.9</ele>
    <time>2017-01-22T05:58:18Z</time>
   </trkpt>
   <trkpt lat="51.7218850" lon="39.2953320">
    <ele>107.7</ele>
    <time>2017-01-22T05:58:43Z</time>
   </trkpt>
   <trkpt lat="51.7233270" lon="39.2957080">
    <ele>108.1</ele>
    <time>2017-01-22T05:59:12Z</time>
   </trkpt>
   <trkpt lat="51.7243140" lon="39.2959740">
    <ele>107.9</ele>
    <time>2017-01-22T05:59:32Z</time>
   </trkpt>
   <trkpt lat="51.7256100" lon="39.2963060">
    <ele>109.8</ele>
    <time>2017-01-22T05:59:57Z</time>
   </trkpt>
   <trkpt lat="51.7270050" lon="39.2966770">
    <ele>110.8</ele>
    <time>2017-01-22T06:00:24Z</time>
   </trkpt>
   <trkpt lat="51.7276640" lon="39.2968720">
    <ele>112.3</ele>
    <time>2017-01-22T06:00:37Z</time>
   </trkpt>
   <trkpt lat="51.7277090" lon="39.2969070">
    <ele>112.4</ele>
    <time>2017-01-22T06:00:38Z</time>
   </trkpt>
   <trkpt lat="51.7277500" lon="39.2969550">
    <ele>112.6</ele>
    <time>2017-01-22T06:00:39Z</time>
   </trkpt>
   <trkpt lat="51.7277830" lon="39.2970170">
    <ele>112.7</ele>
    <time>2017-01-22T06:00:40Z</time>
   </trkpt>
   <trkpt lat="51.7278170" lon="39.2972590">
    <ele>113.0</ele>
    <time>2017-01-22T06:00:43Z</time>
   </trkpt>
   <trkpt lat="51.7278300" lon="39.2997990">
    <ele>114.5</ele>
    <time>2017-01-22T06:01:13Z</time>
   </trkpt>
   <trkpt lat="51.7276820" lon="39.3016920">
    <ele>115.0</ele>
    <time>2017-01-22T06:01:36Z</time>
   </trkpt>
   <trkpt lat="51.7274770" lon="39.3037630">
    <ele>117.8</ele>
    <time>2017-01-22T06:02:02Z</time>
   </trkpt>
   <trkpt lat="51.7273140" lon="39.3055110">
    <ele>118.6</ele>
    <time>2017-01-22T06:02:24Z</time>
   </trkpt>
   <trkpt lat="51.7271330" lon="39.3073820">
    <ele>121.8</ele>
    <time>2017-01-22T06:02:48Z</time>
   </trkpt>
   <trkpt lat="51.7269110" lon="39.3095980">
    <ele>114.1</ele>
    <time>2017-01-22T06:03:16Z</time>
   </trkpt>
   <trkpt lat="51.7267240" lon="39.3115710">
    <ele>111.5</ele>
    <time>2017-01-22T06:03:40Z</time>
   </trkpt>
   <trkpt lat="51.7265280" lon="39.3136630">
    <ele>111.6</ele>
    <time>2017-01-22T06:04:03Z</time>
   </trkpt>
   <trkpt lat="51.7263780" lon="39.3151600">
    <ele>111.9</ele>
    <time>2017-01-22T06:04:17Z</time>
   </trkpt>
   <trkpt lat="51.7262850" lon="39.3161330">
    <ele>112.2</ele>
    <time>2017-01-22T06:04:25Z</time>
   </trkpt>
   <trkpt lat="51.7261160" lon="39.3179720">
    <ele>110.8</ele>
    <time>2017-01-22T06:04:42Z</time>
   </trkpt>
   <trkpt lat="51.7261440" lon="39.3183710">
    <ele>110.6</ele>
    <time>2017-01-22T06:04:50Z</time>
   </trkpt>
   <trkpt lat="51.7266370" lon="39.3184900">
    <ele>110.4</ele>
    <time>2017-01-22T06:05:01Z</time>
   </trkpt>
   <trkpt lat="51.7280180" lon="39.3187630">
    <ele>113.3</ele>
    <time>2017-01-22T06:05:27Z</time>
   </trkpt>
   <trkpt lat="51.7292190" lon="39.3190080">
    <ele>110.6</ele>
    <time>2017-01-22T06:05:49Z</time>
   </trkpt>
   <trkpt lat="51.7307240" lon="39.3193400">
    <ele>109.6</ele>
    <time>2017-01-22T06:06:16Z</time>
   </trkpt>
   <trkpt lat="51.7314310" lon="39.3198560">
    <ele>108.9</ele>
    <time>2017-01-22T06:06:32Z</time>
   </trkpt>
   <trkpt lat="51.7318700" lon="39.3209620">
    <ele>104.1</ele>
    <time>2017-01-22T06:06:48Z</time>
   </trkpt>
   <trkpt lat="51.7318880" lon="39.3212900">
    <ele>104.0</ele>
    <time>2017-01-22T06:06:52Z</time>
   </trkpt>
   <trkpt lat="51.7317590" lon="39.3229410">
    <ele>104.3</ele>
    <time>2017-01-22T06:07:12Z</time>
   </trkpt>
   <trkpt lat="51.7315910" lon="39.3250640">
    <ele>99.5</ele>
    <time>2017-01-22T06:07:37Z</time>
   </trkpt>
   <trkpt lat="51.7314430" lon="39.3270340">
    <ele>99.1</ele>
    <time>2017-01-22T06:08:00Z</time>
   </trkpt>
   <trkpt lat="51.7311600" lon="39.3286230">
    <ele>100.1</ele>
    <time>2017-01-22T06:08:19Z</time>
   </trkpt>
   <trkpt lat="51.7305380" lon="39.3296250">
    <ele>101.4</ele>
    <time>2017-01-22T06:08:35Z</time>
   </trkpt>
   <trkpt lat="51.7300810" lon="39.3306400">
    <ele>103.5</ele>
    <time>2017-01-22T06:08:49Z</time>
   </trkpt>
   <trkpt lat="51.7297230" lon="39.3322440">
    <ele>98.3</ele>
    <time>2017-01-22T06:09:08Z</time>
   </trkpt>
   <trkpt lat="51.7297580" lon="39.3338150">
    <ele>100.3</ele>
    <time>2017-01-22T06:09:26Z</time>
   </trkpt>
   <trkpt lat="51.7297020" lon="39.3356800">
    <ele>98.9</ele>
    <time>2017-01-22T06:09:47Z</time>
   </trkpt>
   <trkpt lat="51.7293050" lon="39.3367980">
    <ele>102.5</ele>
    <time>2017-01-22T06:10:02Z</time>
   </trkpt>
   <trkpt lat="51.7290450" lon="39.3376630">
    <ele>102.4</ele>
    <time>2017-01-22T06:10:13Z</time>
   </trkpt>
   <trkpt lat="51.7290380" lon="39.3377530">
    <ele>102.5</ele>
    <time>2017-01-22T06:10:14Z</time>
   </trkpt>
   <trkpt lat="51.7291100" lon="39.3393650">
    <ele>107.3</ele>
    <time>2017-01-22T06:10:32Z</time>
   </trkpt>
   <trkpt lat="51.7292210" lon="39.3412790">
    <ele>105.6</ele>
    <time>2017-01-22T06:10:54Z</time>
   </trkpt>
   <trkpt lat="51.7292320" lon="39.3415260">
    <ele>105.9</ele>
    <time>2017-01-22T06:10:57Z</time>
   </trkpt>
   <trkpt lat="51.7293090" lon="39.3427120">
    <ele>107.2</ele>
    <time>2017-01-22T06:11:11Z</time>
   </trkpt>
   <trkpt lat="51.7294370" lon="39.3440640">
    <ele>107.1</ele>
    <time>2017-01-22T06:11:27Z</time>
   </trkpt>
   <trkpt lat="51.7294560" lon="39.3442300">
    <ele>107.0</ele>
    <time>2017-01-22T06:11:29Z</time>
   </trkpt>
   <trkpt lat="51.7294660" lon="39.3444750">
    <ele>106.8</ele>
    <time>2017-01-22T06:11:32Z</time>
   </trkpt>
   <trkpt lat="51.7295660" lon="39.3457010">
    <ele>107.7</ele>
    <time>2017-01-22T06:11:46Z</time>
   </trkpt>
   <trkpt lat="51.7296000" lon="39.3461520">
    <ele>107.8</ele>
    <time>2017-01-22T06:11:51Z</time>
   </trkpt>
   <trkpt lat="51.7296600" lon="39.3470460">
    <ele>107.9</ele>
    <time>2017-01-22T06:12:01Z</time>
   </trkpt>
   <trkpt lat="51.7296620" lon="39.3471320">
    <ele>107.8</ele>
    <time>2017-01-22T06:12:02Z</time>
   </trkpt>
   <trkpt lat="51.7296700" lon="39.3473080">
    <ele>107.6</ele>
    <time>2017-01-22T06:12:04Z</time>
   </trkpt>
   <trkpt lat="51.7299410" lon="39.3486000">
    <ele>107.2</ele>
    <time>2017-01-22T06:12:19Z</time>
   </trkpt>
   <trkpt lat="51.7301050" lon="39.3489350">
    <ele>107.0</ele>
    <time>2017-01-22T06:12:24Z</time>
   </trkpt>
   <trkpt lat="51.7305060" lon="39.3495260">
    <ele>107.7</ele>
    <time>2017-01-22T06:12:34Z</time>
   </trkpt>
   <trkpt lat="51.7312750" lon="39.3500570">
    <ele>107.9</ele>
    <time>2017-01-22T06:12:49Z</time>
   </trkpt>
   <trkpt lat="51.7319210" lon="39.3501480">
    <ele>107.1</ele>
    <time>2017-01-22T06:13:01Z</time>
   </trkpt>
   <trkpt lat="51.7319700" lon="39.3501680">
    <ele>107.1</ele>
    <time>2017-01-22T06:13:02Z</time>
   </trkpt>
   <trkpt lat="51.7320150" lon="39.3502030">
    <ele>107.1</ele>
    <time>2017-01-22T06:13:03Z</time>
   </trkpt>
   <trkpt lat="51.7320560" lon="39.3502520">
    <ele>107.1</ele>
    <time>2017-01-22T06:13:04Z</time>
   </trkpt>
   <trkpt lat="51.7320920" lon="39.3503120">
    <ele>107.7</ele>
    <time>2017-01-22T06:13:05Z</time>
   </trkpt>
   <trkpt lat="51.7321210" lon="39.3503810">
    <ele>108.2</ele>
    <time>2017-01-22T06:13:06Z</time>
   </trkpt>
   <trkpt lat="51.7321450" lon="39.3504570">
    <ele>108.7</ele>
    <time>2017-01-22T06:13:07Z</time>
   </trkpt>
   <trkpt lat="51.7321640" lon="39.3505360">
    <ele>109.2</ele>
    <time>2017-01-22T06:13:08Z</time>
   </trkpt>
   <trkpt lat="51.7324190" lon="39.3521250">
    <ele>109.8</ele>
    <time>2017-01-22T06:13:27Z</time>
   </trkpt>
   <trkpt lat="51.7326900" lon="39.3538960">
    <ele>110.7</ele>
    <time>2017-01-22T06:13:48Z</time>
   </trkpt>
   <trkpt lat="51.7327860" lon="39.3544920">
    <ele>111.9</ele>
    <time>2017-01-22T06:13:55Z</time>
   </trkpt>
   <trkpt lat="51.7327960" lon="39.3545750">
    <ele>111.9</ele>
    <time>2017-01-22T06:13:56Z</time>
   </trkpt>
   <trkpt lat="51.7330060" lon="39.3559380">
    <ele>111.4</ele>
    <time>2017-01-22T06:14:12Z</time>
   </trkpt>
   <trkpt lat="51.7332060" lon="39.3574900">
    <ele>107.6</ele>
    <time>2017-01-22T06:14:30Z</time>
   </trkpt>
   <trkpt lat="51.7335320" lon="39.3589600">
    <ele>106.1</ele>
    <time>2017-01-22T06:14:49Z</time>
   </trkpt>
   <trkpt lat="51.7337390" lon="39.3590000">
    <ele>105.7</ele>
    <time>2017-01-22T06:14:56Z</time>
   </trkpt>
   <trkpt lat="51.7337790" lon="39.3589690">
    <ele>105.5</ele>
    <time>2017-01-22T06:14:57Z</time>
   </trkpt>
   <trkpt lat="51.7338180" lon="39.3589320">
    <ele>105.5</ele>
    <time>2017-01-22T06:14:58Z</time>
   </trkpt>
   <trkpt lat="51.7347610" lon="39.3579510">
    <ele>103.7</ele>
    <time>2017-01-22T06:15:20Z</time>
   </trkpt>
   <trkpt lat="51.7358010" lon="39.3571090">
    <ele>104.7</ele>
    <time>2017-01-22T06:15:42Z</time>
   </trkpt>
   <trkpt lat="51.7369890" lon="39.3561080">
    <ele>102.0</ele>
    <time>2017-01-22T06:16:07Z</time>
   </trkpt>
   <trkpt lat="51.7378170" lon="39.3554280">
    <ele>101.7</ele>
    <time>2017-01-22T06:16:27Z</time>
   </trkpt>
   <trkpt lat="51.7381320" lon="39.3551660">
    <ele>101.5</ele>
    <time>2017-01-22T06:16:38Z</time>
   </trkpt>
   <trkpt lat="51.7383710" lon="39.3550250">
    <ele>101.1</ele>
    <time>2017-01-22T06:16:44Z</time>
   </trkpt>
   <trkpt lat="51.7384100" lon="39.3550260">
    <ele>101.0</ele>
    <time>2017-01-22T06:16:45Z</time>
   </trkpt>
   <trkpt lat="51.7384480" lon="39.3550460">
    <ele>101.2</ele>
    <time>2017-01-22T06:16:46Z</time>
   </trkpt>
   <trkpt lat="51.7384800" lon="39.3550880">
    <ele>101.3</ele>
    <time>2017-01-22T06:16:47Z</time>
   </trkpt>
   <trkpt lat="51.7385090" lon="39.3551390">
    <ele>101.4</ele>
    <time>2017-01-22T06:16:48Z</time>
   </trkpt>
   <trkpt lat="51.7385320" lon="39.3552010">
    <ele>101.5</ele>
    <time>2017-01-22T06:16:49Z</time>
   </trkpt>
   <trkpt lat="51.7385540" lon="39.3552670">
    <ele>101.6</ele>
    <time>2017-01-22T06:16:50Z</time>
   </trkpt>
   <trkpt lat="51.7387480" lon="39.3559980">
    <ele>102.5</ele>
    <time>2017-01-22T06:17:00Z</time>
   </trkpt>
   <trkpt lat="51.7387700" lon="39.3560710">
    <ele>102.6</ele>
    <time>2017-01-22T06:17:01Z</time>
   </trkpt>
   <trkpt lat="51.7392130" lon="39.3576970">
    <ele>103.6</ele>
    <time>2017-01-22T06:17:23Z</time>
   </trkpt>
   <trkpt lat="51.7396830" lon="39.3593910">
    <ele>105.0</ele>
    <time>2017-01-22T06:17:46Z</time>
   </trkpt>
   <trkpt lat="51.7401760" lon="39.3611260">
    <ele>107.8</ele>
    <time>2017-01-22T06:18:10Z</time>
   </trkpt>
   <trkpt lat="51.7405240" lon="39.3623980">
    <ele>107.7</ele>
    <time>2017-01-22T06:18:27Z</time>
   </trkpt>
   <trkpt lat="51.7409920" lon="39.3640370">
    <ele>108.4</ele>
    <time>2017-01-22T06:18:49Z</time>
   </trkpt>
   <trkpt lat="51.7414220" lon="39.3657270">
    <ele>109.1</ele>
    <time>2017-01-22T06:19:11Z</time>
   </trkpt>
   <trkpt lat="51.7417440" lon="39.3676320">
    <ele>111.4</ele>
    <time>2017-01-22T06:19:35Z</time>
   </trkpt>
   <trkpt lat="51.7421380" lon="39.3689500">
    <ele>111.1</ele>
    <time>2017-01-22T06:19:53Z</time>
   </trkpt>
   <trkpt lat="51.7427750" lon="39.3709490">
    <ele>109.7</ele>
    <time>2017-01-22T06:20:18Z</time>
   </trkpt>
   <trkpt lat="51.7432250" lon="39.3723100">
    <ele>110.9</ele>
    <time>2017-01-22T06:20:35Z</time>
   </trkpt>
   <trkpt lat="51.7437900" lon="39.3740080">
    <ele>112.9</ele>
    <time>2017-01-22T06:20:56Z</time>
   </trkpt>
   <trkpt lat="51.7442540" lon="39.3754010">
    <ele>113.3</ele>
    <time>2017-01-22T06:21:15Z</time>
   </trkpt>
   <trkpt lat="51.7446740" lon="39.3766280">
    <ele>113.9</ele>
    <time>2017-01-22T06:21:33Z</time>
   </trkpt>
   <trkpt lat="51.7448500" lon="39.3771590">
    <ele>114.3</ele>
    <time>2017-01-22T06:21:45Z</time>
   </trkpt>
   <trkpt lat="51.7451290" lon="39.3779960">
    <ele>116.2</ele>
    <time>2017-01-22T06:21:57Z</time>
   </trkpt>
   <trkpt lat="51.7454760" lon="39.3790610">
    <ele>118.4</ele>
    <time>2017-01-22T06:22:11Z</time>
   </trkpt>
   <trkpt lat="51.7459380" lon="39.3804340">
    <ele>118.7</ele>
    <time>2017-01-22T06:22:29Z</time>
   </trkpt>
   <trkpt lat="51.7461150" lon="39.3809490">
    <ele>119.2</ele>
    <time>2017-01-22T06:22:37Z</time>
   </trkpt>
   <trkpt lat="51.7462750" lon="39.3813630">
    <ele>119.8</ele>
    <time>2017-01-22T06:22:44Z</time>
   </trkpt>
   <trkpt lat="51.7463100" lon="39.3814060">
    <ele>119.9</ele>
    <time>2017-01-22T06:22:45Z</time>
   </trkpt>
   <trkpt lat="51.7463520" lon="39.3814350">
    <ele>120.0</ele>
    <time>2017-01-22T06:22:46Z</time>
   </trkpt>
   <trkpt lat="51.7463940" lon="39.3814480">
    <ele>120.1</ele>
    <time>2017-01-22T06:22:47Z</time>
   </trkpt>
   <trkpt lat="51.7464350" lon="39.3814470">
    <ele>119.9</ele>
    <time>2017-01-22T06:22:48Z</time>
   </trkpt>
   <trkpt lat="51.7464730" lon="39.3814340">
    <ele>119.7</ele>
    <time>2017-01-22T06:22:49Z</time>
   </trkpt>
   <trkpt lat="51.7465090" lon="39.3814160">
    <ele>119.5</ele>
    <time>2017-01-22T06:22:50Z</time>
   </trkpt>
   <trkpt lat="51.7469690" lon="39.3810600">
    <ele>117.2</ele>
    <time>2017-01-22T06:23:06Z</time>
   </trkpt>
   <trkpt lat="51.7472240" lon="39.3808680">
    <ele>118.0</ele>
    <time>2017-01-22T06:23:17Z</time>
   </trkpt>
   <trkpt lat="51.7472420" lon="39.3808800">
    <ele>118.0</ele>
    <time>2017-01-22T06:23:18Z</time>
   </trkpt>
   <trkpt lat="51.7472580" lon="39.3809020">
    <ele>118.0</ele>
    <time>2017-01-22T06:23:19Z</time>
   </trkpt>
   <trkpt lat="51.7474200" lon="39.3814310">
    <ele>118.3</ele>
    <time>2017-01-22T06:23:33Z</time>
   </trkpt>
   <trkpt lat="51.7475480" lon="39.3816790">
    <ele>118.5</ele>
    <time>2017-01-22T06:23:47Z</time>
   </trkpt>
   <trkpt lat="51.7475080" lon="39.3815130">
    <ele>118.4</ele>
    <time>2017-01-22T06:28:48Z</time>
   </trkpt>
   <trkpt lat="51.7473150" lon="39.3809440">
    <ele>118.1</ele>
    <time>2017-01-22T06:29:04Z</time>
   </trkpt>
   <trkpt lat="51.7470230" lon="39.3809420">
    <ele>117.4</ele>
    <time>2017-01-22T06:29:15Z</time>
   </trkpt>
   <trkpt lat="51.7465890" lon="39.3812920">
    <ele>118.7</ele>
    <time>2017-01-22T06:29:29Z</time>
   </trkpt>
   <trkpt lat="51.7464330" lon="39.3814510">
    <ele>119.9</ele>
    <time>2017-01-22T06:29:33Z</time>
   </trkpt>
   <trkpt lat="51.7464030" lon="39.3815130">
    <ele>120.0</ele>
    <time>2017-01-22T06:29:34Z</time>
   </trkpt>
   <trkpt lat="51.7463840" lon="39.3815820">
    <ele>120.0</ele>
    <time>2017-01-22T06:29:35Z</time>
   </trkpt>
   <trkpt lat="51.7463780" lon="39.3816550">
    <ele>120.0</ele>
    <time>2017-01-22T06:29:36Z</time>
   </trkpt>
   <trkpt lat="51.7463820" lon="39.3817270">
    <ele>120.0</ele>
    <time>2017-01-22T06:29:37Z</time>
   </trkpt>
   <trkpt lat="51.7463950" lon="39.3817990">
    <ele>119.9</ele>
    <time>2017-01-22T06:29:38Z</time>
   </trkpt>
   <trkpt lat="51.7464110" lon="39.3818710">
    <ele>119.8</ele>
    <time>2017-01-22T06:29:39Z</time>
   </trkpt>
   <trkpt lat="51.7464310" lon="39.3819380">
    <ele>119.8</ele>
    <time>2017-01-22T06:29:40Z</time>
   </trkpt>
   <trkpt lat="51.7464530" lon="39.3820080">
    <ele>119.7</ele>
    <time>2017-01-22T06:29:41Z</time>
   </trkpt>
   <trkpt lat="51.7469240" lon="39.3836490">
    <ele>121.9</ele>
    <time>2017-01-22T06:30:02Z</time>
   </trkpt>
   <trkpt lat="51.7473380" lon="39.3851980">
    <ele>119.5</ele>
    <time>2017-01-22T06:30:21Z</time>
   </trkpt>
   <trkpt lat="51.7477360" lon="39.3867040">
    <ele>121.4</ele>
    <time>2017-01-22T06:30:42Z</time>
   </trkpt>
   <trkpt lat="51.7480780" lon="39.3879660">
    <ele>122.4</ele>
    <time>2017-01-22T06:31:01Z</time>
   </trkpt>
   <trkpt lat="51.7483770" lon="39.3891170">
    <ele>122.0</ele>
    <time>2017-01-22T06:31:20Z</time>
   </trkpt>
   <trkpt lat="51.7487510" lon="39.3905040">
    <ele>122.0</ele>
    <time>2017-01-22T06:31:39Z</time>
   </trkpt>
   <trkpt lat="51.7488030" lon="39.3907040">
    <ele>122.0</ele>
    <time>2017-01-22T06:31:42Z</time>
   </trkpt>
   <trkpt lat="51.7491300" lon="39.3918970">
    <ele>120.8</ele>
    <time>2017-01-22T06:31:57Z</time>
   </trkpt>
   <trkpt lat="51.7494530" lon="39.3932140">
    <ele>120.0</ele>
    <time>2017-01-22T06:32:14Z</time>
   </trkpt>
   <trkpt lat="51.7494550" lon="39.3932980">
    <ele>119.8</ele>
    <time>2017-01-22T06:32:15Z</time>
   </trkpt>
   <trkpt lat="51.7494540" lon="39.3933840">
    <ele>119.6</ele>
    <time>2017-01-22T06:32:16Z</time>
   </trkpt>
   <trkpt lat="51.7494480" lon="39.3934680">
    <ele>119.5</ele>
    <time>2017-01-22T06:32:17Z</time>
   </trkpt>
   <trkpt lat="51.7494380" lon="39.3935500">
    <ele>119.3</ele>
    <time>2017-01-22T06:32:18Z</time>
   </trkpt>
   <trkpt lat="51.7494250" lon="39.3936320">
    <ele>119.1</ele>
    <time>2017-01-22T06:32:19Z</time>
   </trkpt>
   <trkpt lat="51.7494100" lon="39.3937100">
    <ele>119.0</ele>
    <time>2017-01-22T06:32:20Z</time>
   </trkpt>
   <trkpt lat="51.7493930" lon="39.3937860">
    <ele>119.0</ele>
    <time>2017-01-22T06:32:21Z</time>
   </trkpt>
   <trkpt lat="51.7493270" lon="39.3941780">
    <ele>119.1</ele>
    <time>2017-01-22T06:32:26Z</time>
   </trkpt>
   <trkpt lat="51.7493250" lon="39.3942580">
    <ele>119.2</ele>
    <time>2017-01-22T06:32:27Z</time>
   </trkpt>
   <trkpt lat="51.7493320" lon="39.3944160">
    <ele>119.3</ele>
    <time>2017-01-22T06:32:29Z</time>
   </trkpt>
   <trkpt lat="51.7493420" lon="39.3944950">
    <ele>119.4</ele>
    <time>2017-01-22T06:32:30Z</time>
   </trkpt>
   <trkpt lat="51.7493570" lon="39.3945730">
    <ele>119.4</ele>
    <time>2017-01-22T06:32:31Z</time>
   </trkpt>
   <trkpt lat="51.7493760" lon="39.3946500">
    <ele>119.4</ele>
    <time>2017-01-22T06:32:32Z</time>
   </trkpt>
   <trkpt lat="51.7493990" lon="39.3947240">
    <ele>119.5</ele>
    <time>2017-01-22T06:32:33Z</time>
   </trkpt>
   <trkpt lat="51.7494240" lon="39.3947960">
    <ele>119.5</ele>
    <time>2017-01-22T06:32:34Z</time>
   </trkpt>
   <trkpt lat="51.7494520" lon="39.3948680">
    <ele>119.5</ele>
    <time>2017-01-22T06:32:35Z</time>
   </trkpt>
   <trkpt lat="51.7502440" lon="39.3965670">
    <ele>120.0</ele>
    <time>2017-01-22T06:33:01Z</time>
   </trkpt>
   <trkpt lat="51.7509540" lon="39.3982650">
    <ele>119.4</ele>
    <time>2017-01-22T06:33:26Z</time>
   </trkpt>
   <trkpt lat="51.7515570" lon="39.3999000">
    <ele>120.5</ele>
    <time>2017-01-22T06:33:50Z</time>
   </trkpt>
   <trkpt lat="51.7522630" lon="39.4016350">
    <ele>120.1</ele>
    <time>2017-01-22T06:34:17Z</time>
   </trkpt>
   <trkpt lat="51.7529160" lon="39.4032110">
    <ele>120.1</ele>
    <time>2017-01-22T06:34:41Z</time>
   </trkpt>
   <trkpt lat="51.7535080" lon="39.4047150">
    <ele>119.0</ele>
    <time>2017-01-22T06:35:04Z</time>
   </trkpt>
   <trkpt lat="51.7541300" lon="39.4062950">
    <ele>118.8</ele>
    <time>2017-01-22T06:35:28Z</time>
   </trkpt>
   <trkpt lat="51.7544970" lon="39.4077000">
    <ele>119.5</ele>
    <time>2017-01-22T06:35:48Z</time>
   </trkpt>
   <trkpt lat="51.7547410" lon="39.4093210">
    <ele>121.5</ele>
    <time>2017-01-22T06:36:10Z</time>
   </trkpt>
   <trkpt lat="51.7550510" lon="39.4106920">
    <ele>119.2</ele>
    <time>2017-01-22T06:36:29Z</time>
   </trkpt>
   <trkpt lat="51.7554270" lon="39.4123200">
    <ele>118.9</ele>
    <time>2017-01-22T06:36:52Z</time>
   </trkpt>
   <trkpt lat="51.7558410" lon="39.4140980">
    <ele>120.0</ele>
    <time>2017-01-22T06:37:17Z</time>
   </trkpt>
   <trkpt lat="51.7561750" lon="39.4160140">
    <ele>118.6</ele>
    <time>2017-01-22T06:37:44Z</time>
   </trkpt>
   <trkpt lat="51.7562830" lon="39.4177760">
    <ele>117.6</ele>
    <time>2017-01-22T06:38:09Z</time>
   </trkpt>
   <trkpt lat="51.7562950" lon="39.4193180">
    <ele>117.7</ele>
    <time>2017-01-22T06:38:30Z</time>
   </trkpt>
   <trkpt lat="51.7563840" lon="39.4211570">
    <ele>116.0</ele>
    <time>2017-01-22T06:38:55Z</time>
   </trkpt>
   <trkpt lat="51.7565870" lon="39.4224660">
    <ele>115.0</ele>
    <time>2017-01-22T06:39:14Z</time>
   </trkpt>
   <trkpt lat="51.7566000" lon="39.4227480">
    <ele>115.0</ele>
    <time>2017-01-22T06:39:18Z</time>
   </trkpt>
   <trkpt lat="51.7566200" lon="39.4239350">
    <ele>116.2</ele>
    <time>2017-01-22T06:39:34Z</time>
   </trkpt>
   <trkpt lat="51.7565780" lon="39.4254270">
    <ele>114.2</ele>
    <time>2017-01-22T06:39:55Z</time>
   </trkpt>
   <trkpt lat="51.7564360" lon="39.4269930">
    <ele>114.9</ele>
    <time>2017-01-22T06:40:19Z</time>
   </trkpt>
   <trkpt lat="51.7562950" lon="39.4284950">
    <ele>116.4</ele>
    <time>2017-01-22T06:40:43Z</time>
   </trkpt>
   <trkpt lat="51.7561420" lon="39.4303110">
    <ele>115.7</ele>
    <time>2017-01-22T06:41:12Z</time>
   </trkpt>
   <trkpt lat="51.7558280" lon="39.4314960">
    <ele>116.4</ele>
    <time>2017-01-22T06:41:34Z</time>
   </trkpt>
   <trkpt lat="51.7555620" lon="39.4322960">
    <ele>117.8</ele>
    <time>2017-01-22T06:41:52Z</time>
   </trkpt>
   <trkpt lat="51.7551040" lon="39.4336050">
    <ele>119.0</ele>
    <time>2017-01-22T06:42:17Z</time>
   </trkpt>
   <trkpt lat="51.7546380" lon="39.4348260">
    <ele>118.8</ele>
    <time>2017-01-22T06:42:41Z</time>
   </trkpt>
   <trkpt lat="51.7541290" lon="39.4360010">
    <ele>119.4</ele>
    <time>2017-01-22T06:43:04Z</time>
   </trkpt>
   <trkpt lat="51.7535360" lon="39.4371380">
    <ele>120.3</ele>
    <time>2017-01-22T06:43:28Z</time>
   </trkpt>
   <trkpt lat="51.7529140" lon="39.4382060">
    <ele>121.0</ele>
    <time>2017-01-22T06:43:52Z</time>
   </trkpt>
   <trkpt lat="51.7523180" lon="39.4395300">
    <ele>120.0</ele>
    <time>2017-01-22T06:44:19Z</time>
   </trkpt>
   <trkpt lat="51.7519210" lon="39.4409780">
    <ele>120.2</ele>
    <time>2017-01-22T06:44:45Z</time>
   </trkpt>
   <trkpt lat="51.7516160" lon="39.4423960">
    <ele>121.2</ele>
    <time>2017-01-22T06:45:10Z</time>
   </trkpt>
   <trkpt lat="51.7513240" lon="39.4438020">
    <ele>121.1</ele>
    <time>2017-01-22T06:45:34Z</time>
   </trkpt>
   <trkpt lat="51.7511050" lon="39.4450900">
    <ele>121.0</ele>
    <time>2017-01-22T06:45:58Z</time>
   </trkpt>
   <trkpt lat="51.7509600" lon="39.4460920">
    <ele>121.2</ele>
    <time>2017-01-22T06:46:18Z</time>
   </trkpt>
   <trkpt lat="51.7507770" lon="39.4473370">
    <ele>121.3</ele>
    <time>2017-01-22T06:46:42Z</time>
   </trkpt>
   <trkpt lat="51.7507250" lon="39.4476580">
    <ele>121.2</ele>
    <time>2017-01-22T06:46:53Z</time>
   </trkpt>
   <trkpt lat="51.7507400" lon="39.4477440">
    <ele>121.2</ele>
    <time>2017-01-22T06:49:20Z</time>
   </trkpt>
   <trkpt lat="51.7507370" lon="39.4477710">
    <ele>121.1</ele>
    <time>2017-01-22T06:49:21Z</time>
   </trkpt>
   <trkpt lat="51.7506380" lon="39.4484470">
    <ele>120.9</ele>
    <time>2017-01-22T06:49:39Z</time>
   </trkpt>
   <trkpt lat="51.7506100" lon="39.4485710">
    <ele>120.9</ele>
    <time>2017-01-22T06:49:43Z</time>
   </trkpt>
   <trkpt lat="51.7506190" lon="39.4485890">
    <ele>120.9</ele>
    <time>2017-01-22T06:49:44Z</time>
   </trkpt>
   <trkpt lat="51.7506320" lon="39.4485890">
    <ele>120.9</ele>
    <time>2017-01-22T06:49:45Z</time>
   </trkpt>
   <trkpt lat="51.7506440" lon="39.4485730">
    <ele>120.9</ele>
    <time>2017-01-22T06:49:46Z</time>
   </trkpt>
   <trkpt lat="51.7506540" lon="39.4485480">
    <ele>120.9</ele>
    <time>2017-01-22T06:49:47Z</time>
   </trkpt>
   <trkpt lat="51.7506610" lon="39.4485200">
    <ele>120.9</ele>
    <time>2017-01-22T06:49:48Z</time>
   </trkpt>
   <trkpt lat="51.7506660" lon="39.4484870">
    <ele>120.9</ele>
    <time>2017-01-22T06:49:49Z</time>
   </trkpt>
   <trkpt lat="51.7506720" lon="39.4484530">
    <ele>120.9</ele>
    <time>2017-01-22T06:49:50Z</time>
   </trkpt>
   <trkpt lat="51.7506770" lon="39.4484200">
    <ele>120.9</ele>
    <time>2017-01-22T06:49:51Z</time>
   </trkpt>
   <trkpt lat="51.7507520" lon="39.4478050">
    <ele>121.1</ele>
    <time>2017-01-22T06:50:09Z</time>
   </trkpt>
   <trkpt lat="51.7508580" lon="39.4469800">
    <ele>121.4</ele>
    <time>2017-01-22T06:50:30Z</time>
   </trkpt>
   <trkpt lat="51.7510060" lon="39.4460040">
    <ele>121.2</ele>
    <time>2017-01-22T06:50:52Z</time>
   </trkpt>
   <trkpt lat="51.7511660" lon="39.4447920">
    <ele>121.0</ele>
    <time>2017-01-22T06:51:17Z</time>
   </trkpt>
   <trkpt lat="51.7514240" lon="39.4434640">
    <ele>121.4</ele>
    <time>2017-01-22T06:51:44Z</time>
   </trkpt>
   <trkpt lat="51.7516750" lon="39.4422890">
    <ele>121.2</ele>
    <time>2017-01-22T06:52:07Z</time>
   </trkpt>
   <trkpt lat="51.7519750" lon="39.4408810">
    <ele>121.1</ele>
    <time>2017-01-22T06:52:34Z</time>
   </trkpt>
   <trkpt lat="51.7522800" lon="39.4397520">
    <ele>120.0</ele>
    <time>2017-01-22T06:52:56Z</time>
   </trkpt>
   <trkpt lat="51.7526880" lon="39.4387160">
    <ele>119.9</ele>
    <time>2017-01-22T06:53:18Z</time>
   </trkpt>
   <trkpt lat="51.7533300" lon="39.4375360">
    <ele>119.5</ele>
    <time>2017-01-22T06:53:45Z</time>
   </trkpt>
   <trkpt lat="51.7540240" lon="39.4362830">
    <ele>118.9</ele>
    <time>2017-01-22T06:54:14Z</time>
   </trkpt>
   <trkpt lat="51.7544520" lon="39.4353630">
    <ele>118.8</ele>
    <time>2017-01-22T06:54:36Z</time>
   </trkpt>
   <trkpt lat="51.7544520" lon="39.4353660">
    <ele>118.8</ele>
    <time>2017-01-22T06:54:39Z</time>
   </trkpt>
   <trkpt lat="51.7544710" lon="39.4352990">
    <ele>118.8</ele>
    <time>2017-01-22T06:55:51Z</time>
   </trkpt>
   <trkpt lat="51.7547420" lon="39.4346420">
    <ele>118.7</ele>
    <time>2017-01-22T06:56:08Z</time>
   </trkpt>
   <trkpt lat="51.7547470" lon="39.4346110">
    <ele>118.7</ele>
    <time>2017-01-22T06:56:09Z</time>
   </trkpt>
   <trkpt lat="51.7546660" lon="39.4347000">
    <ele>118.7</ele>
    <time>2017-01-22T06:56:16Z</time>
   </trkpt>
   <trkpt lat="51.7546140" lon="39.4347990">
    <ele>118.8</ele>
    <time>2017-01-22T06:56:25Z</time>
   </trkpt>
   <trkpt lat="51.7546030" lon="39.4349000">
    <ele>118.8</ele>
    <time>2017-01-22T06:57:08Z</time>
   </trkpt>
   <trkpt lat="51.7543190" lon="39.4355540">
    <ele>118.8</ele>
    <time>2017-01-22T06:57:21Z</time>
   </trkpt>
   <trkpt lat="51.7536060" lon="39.4369910">
    <ele>118.2</ele>
    <time>2017-01-22T06:57:43Z</time>
   </trkpt>
   <trkpt lat="51.7530700" lon="39.4379630">
    <ele>119.9</ele>
    <time>2017-01-22T06:57:59Z</time>
   </trkpt>
   <trkpt lat="51.7524990" lon="39.4390890">
    <ele>120.0</ele>
    <time>2017-01-22T06:58:16Z</time>
   </trkpt>
   <trkpt lat="51.7520020" lon="39.4406550">
    <ele>121.0</ele>
    <time>2017-01-22T06:58:36Z</time>
   </trkpt>
   <trkpt lat="51.7516220" lon="39.4423460">
    <ele>121.2</ele>
    <time>2017-01-22T06:58:56Z</time>
   </trkpt>
   <trkpt lat="51.7515680" lon="39.4425860">
    <ele>121.3</ele>
    <time>2017-01-22T06:58:59Z</time>
   </trkpt>
   <trkpt lat="51.7515560" lon="39.4426660">
    <ele>121.3</ele>
    <time>2017-01-22T06:59:00Z</time>
   </trkpt>
   <trkpt lat="51.7513030" lon="39.4438930">
    <ele>121.0</ele>
    <time>2017-01-22T06:59:17Z</time>
   </trkpt>
   <trkpt lat="51.7510800" lon="39.4452620">
    <ele>122.6</ele>
    <time>2017-01-22T06:59:31Z</time>
   </trkpt>
   <trkpt lat="51.7507930" lon="39.4472670">
    <ele>121.4</ele>
    <time>2017-01-22T06:59:50Z</time>
   </trkpt>
   <trkpt lat="51.7506180" lon="39.4485400">
    <ele>120.9</ele>
    <time>2017-01-22T07:00:02Z</time>
   </trkpt>
   <trkpt lat="51.7505890" lon="39.4486240">
    <ele>120.9</ele>
    <time>2017-01-22T07:00:03Z</time>
   </trkpt>
   <trkpt lat="51.7505510" lon="39.4486880">
    <ele>121.0</ele>
    <time>2017-01-22T07:00:04Z</time>
   </trkpt>
   <trkpt lat="51.7504990" lon="39.4487260">
    <ele>121.0</ele>
    <time>2017-01-22T07:00:05Z</time>
   </trkpt>
   <trkpt lat="51.7504390" lon="39.4487360">
    <ele>121.3</ele>
    <time>2017-01-22T07:00:06Z</time>
   </trkpt>
   <trkpt lat="51.7503730" lon="39.4487240">
    <ele>121.6</ele>
    <time>2017-01-22T07:00:07Z</time>
   </trkpt>
   <trkpt lat="51.7503040" lon="39.4486950">
    <ele>122.0</ele>
    <time>2017-01-22T07:00:08Z</time>
   </trkpt>
   <trkpt lat="51.7502340" lon="39.4486570">
    <ele>122.3</ele>
    <time>2017-01-22T07:00:09Z</time>
   </trkpt>
   <trkpt lat="51.7501630" lon="39.4486170">
    <ele>122.7</ele>
    <time>2017-01-22T07:00:10Z</time>
   </trkpt>
   <trkpt lat="51.7495270" lon="39.4483290">
    <ele>126.0</ele>
    <time>2017-01-22T07:00:20Z</time>
   </trkpt>
   <trkpt lat="51.7494710" lon="39.4483210">
    <ele>126.4</ele>
    <time>2017-01-22T07:00:21Z</time>
   </trkpt>
   <trkpt lat="51.7494150" lon="39.4483280">
    <ele>126.7</ele>
    <time>2017-01-22T07:00:22Z</time>
   </trkpt>
   <trkpt lat="51.7493610" lon="39.4483510">
    <ele>127.0</ele>
    <time>2017-01-22T07:00:23Z</time>
   </trkpt>
   <trkpt lat="51.7493110" lon="39.4483930">
    <ele>127.1</ele>
    <time>2017-01-22T07:00:24Z</time>
   </trkpt>
   <trkpt lat="51.7492660" lon="39.4484490">
    <ele>127.1</ele>
    <time>2017-01-22T07:00:25Z</time>
   </trkpt>
   <trkpt lat="51.7492270" lon="39.4485140">
    <ele>127.1</ele>
    <time>2017-01-22T07:00:26Z</time>
   </trkpt>
   <trkpt lat="51.7491950" lon="39.4485940">
    <ele>127.2</ele>
    <time>2017-01-22T07:00:27Z</time>
   </trkpt>
   <trkpt lat="51.7491700" lon="39.4486810">
    <ele>127.3</ele>
    <time>2017-01-22T07:00:28Z</time>
   </trkpt>
   <trkpt lat="51.7491490" lon="39.4487680">
    <ele>127.3</ele>
    <time>2017-01-22T07:00:29Z</time>
   </trkpt>
   <trkpt lat="51.7491310" lon="39.4488530">
    <ele>127.4</ele>
    <time>2017-01-22T07:00:30Z</time>
   </trkpt>
   <trkpt lat="51.7488730" lon="39.4502150">
    <ele>127.9</ele>
    <time>2017-01-22T07:00:46Z</time>
   </trkpt>
   <trkpt lat="51.7488580" lon="39.4503080">
    <ele>127.9</ele>
    <time>2017-01-22T07:00:47Z</time>
   </trkpt>
   <trkpt lat="51.7488390" lon="39.4504000">
    <ele>127.9</ele>
    <time>2017-01-22T07:00:48Z</time>
   </trkpt>
   <trkpt lat="51.7488190" lon="39.4504940">
    <ele>127.8</ele>
    <time>2017-01-22T07:00:49Z</time>
   </trkpt>
   <trkpt lat="51.7488010" lon="39.4505870">
    <ele>127.8</ele>
    <time>2017-01-22T07:00:50Z</time>
   </trkpt>
   <trkpt lat="51.7485160" lon="39.4519880">
    <ele>129.0</ele>
    <time>2017-01-22T07:01:06Z</time>
   </trkpt>
   <trkpt lat="51.7481370" lon="39.4539170">
    <ele>131.6</ele>
    <time>2017-01-22T07:01:26Z</time>
   </trkpt>
   <trkpt lat="51.7477230" lon="39.4560670">
    <ele>129.7</ele>
    <time>2017-01-22T07:01:47Z</time>
   </trkpt>
   <trkpt lat="51.7473170" lon="39.4582390">
    <ele>128.5</ele>
    <time>2017-01-22T07:02:09Z</time>
   </trkpt>
   <trkpt lat="51.7469870" lon="39.4599740">
    <ele>132.4</ele>
    <time>2017-01-22T07:02:28Z</time>
   </trkpt>
   <trkpt lat="51.7468350" lon="39.4607930">
    <ele>133.0</ele>
    <time>2017-01-22T07:02:37Z</time>
   </trkpt>
   <trkpt lat="51.7468190" lon="39.4608720">
    <ele>133.1</ele>
    <time>2017-01-22T07:02:38Z</time>
   </trkpt>
   <trkpt lat="51.7467200" lon="39.4614060">
    <ele>133.2</ele>
    <time>2017-01-22T07:02:45Z</time>
   </trkpt>
   <trkpt lat="51.7467100" lon="39.4614990">
    <ele>133.2</ele>
    <time>2017-01-22T07:02:46Z</time>
   </trkpt>
   <trkpt lat="51.7466950" lon="39.4615920">
    <ele>133.2</ele>
    <time>2017-01-22T07:02:47Z</time>
   </trkpt>
   <trkpt lat="51.7464320" lon="39.4629470">
    <ele>128.9</ele>
    <time>2017-01-22T07:02:59Z</time>
   </trkpt>
   <trkpt lat="51.7461410" lon="39.4643930">
    <ele>133.8</ele>
    <time>2017-01-22T07:03:10Z</time>
   </trkpt>
   <trkpt lat="51.7460960" lon="39.4645180">
    <ele>133.9</ele>
    <time>2017-01-22T07:03:11Z</time>
   </trkpt>
   <trkpt lat="51.7460410" lon="39.4646310">
    <ele>134.1</ele>
    <time>2017-01-22T07:03:12Z</time>
   </trkpt>
   <trkpt lat="51.7459770" lon="39.4647280">
    <ele>134.2</ele>
    <time>2017-01-22T07:03:13Z</time>
   </trkpt>
   <trkpt lat="51.7459070" lon="39.4648110">
    <ele>134.3</ele>
    <time>2017-01-22T07:03:14Z</time>
   </trkpt>
   <trkpt lat="51.7458370" lon="39.4648920">
    <ele>134.4</ele>
    <time>2017-01-22T07:03:15Z</time>
   </trkpt>
   <trkpt lat="51.7450570" lon="39.4656670">
    <ele>134.9</ele>
    <time>2017-01-22T07:03:27Z</time>
   </trkpt>
   <trkpt lat="51.7445900" lon="39.4660920">
    <ele>135.3</ele>
    <time>2017-01-22T07:03:38Z</time>
   </trkpt>
   <trkpt lat="51.7442960" lon="39.4663710">
    <ele>135.2</ele>
    <time>2017-01-22T07:03:49Z</time>
   </trkpt>
   <trkpt lat="51.7439460" lon="39.4667320">
    <ele>135.3</ele>
    <time>2017-01-22T07:04:03Z</time>
   </trkpt>
   <trkpt lat="51.7438660" lon="39.4668030">
    <ele>135.4</ele>
    <time>2017-01-22T07:04:05Z</time>
   </trkpt>
   <trkpt lat="51.7430900" lon="39.4677250">
    <ele>135.9</ele>
    <time>2017-01-22T07:04:25Z</time>
   </trkpt>
   <trkpt lat="51.7430680" lon="39.4677850">
    <ele>136.0</ele>
    <time>2017-01-22T07:04:26Z</time>
   </trkpt>
   <trkpt lat="51.7430530" lon="39.4678510">
    <ele>136.0</ele>
    <time>2017-01-22T07:04:27Z</time>
   </trkpt>
   <trkpt lat="51.7430440" lon="39.4679220">
    <ele>136.0</ele>
    <time>2017-01-22T07:04:28Z</time>
   </trkpt>
   <trkpt lat="51.7430410" lon="39.4679970">
    <ele>136.0</ele>
    <time>2017-01-22T07:04:29Z</time>
   </trkpt>
   <trkpt lat="51.7430420" lon="39.4680720">
    <ele>136.0</ele>
    <time>2017-01-22T07:04:30Z</time>
   </trkpt>
   <trkpt lat="51.7431380" lon="39.4691640">
    <ele>135.4</ele>
    <time>2017-01-22T07:04:42Z</time>
   </trkpt>
   <trkpt lat="51.7433760" lon="39.4712910">
    <ele>136.6</ele>
    <time>2017-01-22T07:05:07Z</time>
   </trkpt>
   <trkpt lat="51.7434700" lon="39.4728890">
    <ele>135.9</ele>
    <time>2017-01-22T07:05:25Z</time>
   </trkpt>
   <trkpt lat="51.7434480" lon="39.4729700">
    <ele>136.0</ele>
    <time>2017-01-22T07:05:26Z</time>
   </trkpt>
   <trkpt lat="51.7434200" lon="39.4730480">
    <ele>136.1</ele>
    <time>2017-01-22T07:05:27Z</time>
   </trkpt>
   <trkpt lat="51.7433880" lon="39.4731210">
    <ele>136.2</ele>
    <time>2017-01-22T07:05:28Z</time>
   </trkpt>
   <trkpt lat="51.7433530" lon="39.4731910">
    <ele>136.4</ele>
    <time>2017-01-22T07:05:29Z</time>
   </trkpt>
   <trkpt lat="51.7433150" lon="39.4732530">
    <ele>136.5</ele>
    <time>2017-01-22T07:05:30Z</time>
   </trkpt>
   <trkpt lat="51.7432720" lon="39.4733090">
    <ele>136.6</ele>
    <time>2017-01-22T07:05:31Z</time>
   </trkpt>
   <trkpt lat="51.7432260" lon="39.4733590">
    <ele>136.7</ele>
    <time>2017-01-22T07:05:32Z</time>
   </trkpt>
   <trkpt lat="51.7431760" lon="39.4734050">
    <ele>136.8</ele>
    <time>2017-01-22T07:05:33Z</time>
   </trkpt>
   <trkpt lat="51.7431240" lon="39.4734460">
    <ele>136.9</ele>
    <time>2017-01-22T07:05:34Z</time>
   </trkpt>
   <trkpt lat="51.7424350" lon="39.4737430">
    <ele>137.0</ele>
    <time>2017-01-22T07:05:47Z</time>
   </trkpt>
   <trkpt lat="51.7423810" lon="39.4737370">
    <ele>137.0</ele>
    <time>2017-01-22T07:05:48Z</time>
   </trkpt>
   <trkpt lat="51.7423260" lon="39.4737240">
    <ele>137.0</ele>
    <time>2017-01-22T07:05:49Z</time>
   </trkpt>
   <trkpt lat="51.7422740" lon="39.4737020">
    <ele>137.0</ele>
    <time>2017-01-22T07:05:50Z</time>
   </trkpt>
   <trkpt lat="51.7422230" lon="39.4736730">
    <ele>137.0</ele>
    <time>2017-01-22T07:05:51Z</time>
   </trkpt>
   <trkpt lat="51.7421740" lon="39.4736380">
    <ele>137.1</ele>
    <time>2017-01-22T07:05:52Z</time>
   </trkpt>
   <trkpt lat="51.7421260" lon="39.4736020">
    <ele>137.1</ele>
    <time>2017-01-22T07:05:53Z</time>
   </trkpt>
   <trkpt lat="51.7414800" lon="39.4731460">
    <ele>137.9</ele>
    <time>2017-01-22T07:06:06Z</time>
   </trkpt>
   <trkpt lat="51.7414270" lon="39.4731440">
    <ele>138.0</ele>
    <time>2017-01-22T07:06:07Z</time>
   </trkpt>
   <trkpt lat="51.7413730" lon="39.4731550">
    <ele>138.0</ele>
    <time>2017-01-22T07:06:08Z</time>
   </trkpt>
   <trkpt lat="51.7413200" lon="39.4731790">
    <ele>138.0</ele>
    <time>2017-01-22T07:06:09Z</time>
   </trkpt>
   <trkpt lat="51.7412710" lon="39.4732200">
    <ele>138.0</ele>
    <time>2017-01-22T07:06:10Z</time>
   </trkpt>
   <trkpt lat="51.7412260" lon="39.4732730">
    <ele>138.0</ele>
    <time>2017-01-22T07:06:11Z</time>
   </trkpt>
   <trkpt lat="51.7411840" lon="39.4733340">
    <ele>138.0</ele>
    <time>2017-01-22T07:06:12Z</time>
   </trkpt>
   <trkpt lat="51.7411440" lon="39.4734020">
    <ele>138.0</ele>
    <time>2017-01-22T07:06:13Z</time>
   </trkpt>
   <trkpt lat="51.7411080" lon="39.4734730">
    <ele>138.1</ele>
    <time>2017-01-22T07:06:14Z</time>
   </trkpt>
   <trkpt lat="51.7407980" lon="39.4741240">
    <ele>138.0</ele>
    <time>2017-01-22T07:06:23Z</time>
   </trkpt>
   <trkpt lat="51.7407780" lon="39.4741920">
    <ele>138.0</ele>
    <time>2017-01-22T07:06:24Z</time>
   </trkpt>
   <trkpt lat="51.7407660" lon="39.4742600">
    <ele>138.0</ele>
    <time>2017-01-22T07:06:25Z</time>
   </trkpt>
   <trkpt lat="51.7407660" lon="39.4743290">
    <ele>138.0</ele>
    <time>2017-01-22T07:06:26Z</time>
   </trkpt>
   <trkpt lat="51.7407820" lon="39.4743990">
    <ele>138.0</ele>
    <time>2017-01-22T07:06:27Z</time>
   </trkpt>
   <trkpt lat="51.7408060" lon="39.4744680">
    <ele>138.0</ele>
    <time>2017-01-22T07:06:28Z</time>
   </trkpt>
   <trkpt lat="51.7408360" lon="39.4745380">
    <ele>138.1</ele>
    <time>2017-01-22T07:06:29Z</time>
   </trkpt>
   <trkpt lat="51.7410020" lon="39.4748740">
    <ele>138.0</ele>
    <time>2017-01-22T07:06:34Z</time>
   </trkpt>
   <trkpt lat="51.7415520" lon="39.4766020">
    <ele>137.6</ele>
    <time>2017-01-22T07:06:54Z</time>
   </trkpt>
   <trkpt lat="51.7421920" lon="39.4791250">
    <ele>133.9</ele>
    <time>2017-01-22T07:07:20Z</time>
   </trkpt>
   <trkpt lat="51.7427730" lon="39.4804880">
    <ele>133.5</ele>
    <time>2017-01-22T07:07:36Z</time>
   </trkpt>
   <trkpt lat="51.7435130" lon="39.4818170">
    <ele>133.3</ele>
    <time>2017-01-22T07:07:53Z</time>
   </trkpt>
   <trkpt lat="51.7444200" lon="39.4840390">
    <ele>137.6</ele>
    <time>2017-01-22T07:08:19Z</time>
   </trkpt>
   <trkpt lat="51.7452720" lon="39.4861750">
    <ele>141.5</ele>
    <time>2017-01-22T07:08:45Z</time>
   </trkpt>
   <trkpt lat="51.7461230" lon="39.4883290">
    <ele>141.2</ele>
    <time>2017-01-22T07:09:12Z</time>
   </trkpt>
   <trkpt lat="51.7469710" lon="39.4903910">
    <ele>144.5</ele>
    <time>2017-01-22T07:09:38Z</time>
   </trkpt>
   <trkpt lat="51.7477960" lon="39.4923600">
    <ele>145.3</ele>
    <time>2017-01-22T07:10:03Z</time>
   </trkpt>
   <trkpt lat="51.7484770" lon="39.4940810">
    <ele>147.0</ele>
    <time>2017-01-22T07:10:24Z</time>
   </trkpt>
   <trkpt lat="51.7492940" lon="39.4960790">
    <ele>144.0</ele>
    <time>2017-01-22T07:10:47Z</time>
   </trkpt>
   <trkpt lat="51.7502640" lon="39.4984370">
    <ele>141.8</ele>
    <time>2017-01-22T07:11:14Z</time>
   </trkpt>
   <trkpt lat="51.7511900" lon="39.5007210">
    <ele>141.7</ele>
    <time>2017-01-22T07:11:40Z</time>
   </trkpt>
   <trkpt lat="51.7524240" lon="39.5038680">
    <ele>138.8</ele>
    <time>2017-01-22T07:12:14Z</time>
   </trkpt>
   <trkpt lat="51.7532000" lon="39.5057270">
    <ele>140.0</ele>
    <time>2017-01-22T07:12:35Z</time>
   </trkpt>
   <trkpt lat="51.7542870" lon="39.5079610">
    <ele>137.3</ele>
    <time>2017-01-22T07:13:01Z</time>
   </trkpt>
   <trkpt lat="51.7553580" lon="39.5101660">
    <ele>135.2</ele>
    <time>2017-01-22T07:13:27Z</time>
   </trkpt>
   <trkpt lat="51.7562850" lon="39.5120690">
    <ele>137.2</ele>
    <time>2017-01-22T07:13:51Z</time>
   </trkpt>
   <trkpt lat="51.7571500" lon="39.5138220">
    <ele>139.7</ele>
    <time>2017-01-22T07:14:15Z</time>
   </trkpt>
   <trkpt lat="51.7580360" lon="39.5156140">
    <ele>139.1</ele>
    <time>2017-01-22T07:14:39Z</time>
   </trkpt>
   <trkpt lat="51.7589500" lon="39.5174340">
    <ele>137.8</ele>
    <time>2017-01-22T07:15:04Z</time>
   </trkpt>
   <trkpt lat="51.7600470" lon="39.5195740">
    <ele>139.5</ele>
    <time>2017-01-22T07:15:33Z</time>
   </trkpt>
   <trkpt lat="51.7610640" lon="39.5215820">
    <ele>140.1</ele>
    <time>2017-01-22T07:16:00Z</time>
   </trkpt>
   <trkpt lat="51.7619170" lon="39.5233090">
    <ele>141.9</ele>
    <time>2017-01-22T07:16:22Z</time>
   </trkpt>
   <trkpt lat="51.7627460" lon="39.5248860">
    <ele>143.5</ele>
    <time>2017-01-22T07:16:45Z</time>
   </trkpt>
   <trkpt lat="51.7633750" lon="39.5261600">
    <ele>142.4</ele>
    <time>2017-01-22T07:17:03Z</time>
   </trkpt>
   <trkpt lat="51.7642160" lon="39.5277810">
    <ele>144.0</ele>
    <time>2017-01-22T07:17:25Z</time>
   </trkpt>
   <trkpt lat="51.7653370" lon="39.5297400">
    <ele>144.8</ele>
    <time>2017-01-22T07:17:53Z</time>
   </trkpt>
   <trkpt lat="51.7664110" lon="39.5313900">
    <ele>144.4</ele>
    <time>2017-01-22T07:18:19Z</time>
   </trkpt>
   <trkpt lat="51.7668460" lon="39.5321270">
    <ele>144.0</ele>
    <time>2017-01-22T07:18:32Z</time>
   </trkpt>
   <trkpt lat="51.7668700" lon="39.5321800">
    <ele>144.0</ele>
    <time>2017-01-22T07:18:33Z</time>
   </trkpt>
   <trkpt lat="51.7668980" lon="39.5322210">
    <ele>144.0</ele>
    <time>2017-01-22T07:18:34Z</time>
   </trkpt>
   <trkpt lat="51.7669280" lon="39.5322430">
    <ele>144.0</ele>
    <time>2017-01-22T07:18:35Z</time>
   </trkpt>
   <trkpt lat="51.7669590" lon="39.5322460">
    <ele>144.0</ele>
    <time>2017-01-22T07:18:36Z</time>
   </trkpt>
   <trkpt lat="51.7669890" lon="39.5322370">
    <ele>144.0</ele>
    <time>2017-01-22T07:18:37Z</time>
   </trkpt>
   <trkpt lat="51.7670200" lon="39.5322230">
    <ele>143.9</ele>
    <time>2017-01-22T07:18:38Z</time>
   </trkpt>
   <trkpt lat="51.7670530" lon="39.5322030">
    <ele>143.9</ele>
    <time>2017-01-22T07:18:39Z</time>
   </trkpt>
   <trkpt lat="51.7674430" lon="39.5321360">
    <ele>143.8</ele>
    <time>2017-01-22T07:18:51Z</time>
   </trkpt>
   <trkpt lat="51.7674760" lon="39.5321770">
    <ele>143.7</ele>
    <time>2017-01-22T07:18:52Z</time>
   </trkpt>
   <trkpt lat="51.7675000" lon="39.5322330">
    <ele>143.8</ele>
    <time>2017-01-22T07:18:53Z</time>
   </trkpt>
   <trkpt lat="51.7675150" lon="39.5322930">
    <ele>143.8</ele>
    <time>2017-01-22T07:18:54Z</time>
   </trkpt>
   <trkpt lat="51.7675820" lon="39.5325540">
    <ele>144.1</ele>
    <time>2017-01-22T07:18:58Z</time>
   </trkpt>
   <trkpt lat="51.7676080" lon="39.5326150">
    <ele>144.0</ele>
    <time>2017-01-22T07:18:59Z</time>
   </trkpt>
   <trkpt lat="51.7679280" lon="39.5333050">
    <ele>143.5</ele>
    <time>2017-01-22T07:19:10Z</time>
   </trkpt>
   <trkpt lat="51.7685300" lon="39.5346990">
    <ele>145.3</ele>
    <time>2017-01-22T07:19:31Z</time>
   </trkpt>
   <trkpt lat="51.7691330" lon="39.5360380">
    <ele>145.0</ele>
    <time>2017-01-22T07:19:51Z</time>
   </trkpt>
   <trkpt lat="51.7692740" lon="39.5362810">
    <ele>144.4</ele>
    <time>2017-01-22T07:19:55Z</time>
   </trkpt>
   <trkpt lat="51.7697560" lon="39.5371390">
    <ele>145.5</ele>
    <time>2017-01-22T07:20:10Z</time>
   </trkpt>
   <trkpt lat="51.7701150" lon="39.5378870">
    <ele>146.7</ele>
    <time>2017-01-22T07:20:25Z</time>
   </trkpt>
   <trkpt lat="51.7704340" lon="39.5383630">
    <ele>145.5</ele>
    <time>2017-01-22T07:20:38Z</time>
   </trkpt>
   <trkpt lat="51.7709970" lon="39.5394060">
    <ele>146.9</ele>
    <time>2017-01-22T07:21:00Z</time>
   </trkpt>
   <trkpt lat="51.7713080" lon="39.5399530">
    <ele>148.7</ele>
    <time>2017-01-22T07:21:11Z</time>
   </trkpt>
   <trkpt lat="51.7715740" lon="39.5403640">
    <ele>148.5</ele>
    <time>2017-01-22T07:21:24Z</time>
   </trkpt>
   <trkpt lat="51.7715730" lon="39.5403640">
    <ele>148.5</ele>
    <time>2017-01-22T07:21:25Z</time>
   </trkpt>
   <trkpt lat="51.7715180" lon="39.5402520">
    <ele>148.4</ele>
    <time>2017-01-22T07:31:39Z</time>
   </trkpt>
   <trkpt lat="51.7711850" lon="39.5397190">
    <ele>148.0</ele>
    <time>2017-01-22T07:31:54Z</time>
   </trkpt>
   <trkpt lat="51.7707020" lon="39.5388510">
    <ele>145.4</ele>
    <time>2017-01-22T07:32:12Z</time>
   </trkpt>
   <trkpt lat="51.7702090" lon="39.5379370">
    <ele>146.7</ele>
    <time>2017-01-22T07:32:31Z</time>
   </trkpt>
   <trkpt lat="51.7701720" lon="39.5379010">
    <ele>146.7</ele>
    <time>2017-01-22T07:32:32Z</time>
   </trkpt>
   <trkpt lat="51.7698850" lon="39.5374240">
    <ele>146.3</ele>
    <time>2017-01-22T07:32:43Z</time>
   </trkpt>
   <trkpt lat="51.7692130" lon="39.5361870">
    <ele>144.8</ele>
    <time>2017-01-22T07:33:05Z</time>
   </trkpt>
   <trkpt lat="51.7691770" lon="39.5361280">
    <ele>144.9</ele>
    <time>2017-01-22T07:33:06Z</time>
   </trkpt>
   <trkpt lat="51.7687520" lon="39.5351480">
    <ele>144.0</ele>
    <time>2017-01-22T07:33:20Z</time>
   </trkpt>
   <trkpt lat="51.7682650" lon="39.5340560">
    <ele>145.4</ele>
    <time>2017-01-22T07:33:38Z</time>
   </trkpt>
   <trkpt lat="51.7676970" lon="39.5327740">
    <ele>143.7</ele>
    <time>2017-01-22T07:33:59Z</time>
   </trkpt>
   <trkpt lat="51.7675480" lon="39.5324120">
    <ele>143.9</ele>
    <time>2017-01-22T07:34:05Z</time>
   </trkpt>
   <trkpt lat="51.7675340" lon="39.5323470">
    <ele>143.9</ele>
    <time>2017-01-22T07:34:06Z</time>
   </trkpt>
   <trkpt lat="51.7675060" lon="39.5322180">
    <ele>143.8</ele>
    <time>2017-01-22T07:34:08Z</time>
   </trkpt>
   <trkpt lat="51.7674840" lon="39.5321610">
    <ele>143.7</ele>
    <time>2017-01-22T07:34:09Z</time>
   </trkpt>
   <trkpt lat="51.7674550" lon="39.5321140">
    <ele>143.8</ele>
    <time>2017-01-22T07:34:10Z</time>
   </trkpt>
   <trkpt lat="51.7674250" lon="39.5320840">
    <ele>143.9</ele>
    <time>2017-01-22T07:34:11Z</time>
   </trkpt>
   <trkpt lat="51.7673970" lon="39.5320670">
    <ele>144.0</ele>
    <time>2017-01-22T07:34:12Z</time>
   </trkpt>
   <trkpt lat="51.7671010" lon="39.5321200">
    <ele>144.0</ele>
    <time>2017-01-22T07:34:22Z</time>
   </trkpt>
   <trkpt lat="51.7669150" lon="39.5322170">
    <ele>144.0</ele>
    <time>2017-01-22T07:34:26Z</time>
   </trkpt>
   <trkpt lat="51.7668740" lon="39.5322540">
    <ele>144.0</ele>
    <time>2017-01-22T07:34:27Z</time>
   </trkpt>
   <trkpt lat="51.7668360" lon="39.5322980">
    <ele>144.0</ele>
    <time>2017-01-22T07:34:28Z</time>
   </trkpt>
   <trkpt lat="51.7667990" lon="39.5323520">
    <ele>144.0</ele>
    <time>2017-01-22T07:34:29Z</time>
   </trkpt>
   <trkpt lat="51.7667640" lon="39.5324170">
    <ele>144.0</ele>
    <time>2017-01-22T07:34:30Z</time>
   </trkpt>
   <trkpt lat="51.7667300" lon="39.5324820">
    <ele>144.1</ele>
    <time>2017-01-22T07:34:31Z</time>
   </trkpt>
   <trkpt lat="51.7665410" lon="39.5327510">
    <ele>145.1</ele>
    <time>2017-01-22T07:34:36Z</time>
   </trkpt>
   <trkpt lat="51.7657210" lon="39.5338340">
    <ele>144.1</ele>
    <time>2017-01-22T07:34:55Z</time>
   </trkpt>
   <trkpt lat="51.7644980" lon="39.5353530">
    <ele>147.2</ele>
    <time>2017-01-22T07:35:23Z</time>
   </trkpt>
   <trkpt lat="51.7632690" lon="39.5367180">
    <ele>150.0</ele>
    <time>2017-01-22T07:35:50Z</time>
   </trkpt>
   <trkpt lat="51.7620620" lon="39.5380290">
    <ele>148.0</ele>
    <time>2017-01-22T07:36:15Z</time>
   </trkpt>
   <trkpt lat="51.7613260" lon="39.5393060">
    <ele>146.4</ele>
    <time>2017-01-22T07:36:32Z</time>
   </trkpt>
   <trkpt lat="51.7604210" lon="39.5414210">
    <ele>147.0</ele>
    <time>2017-01-22T07:36:57Z</time>
   </trkpt>
   <trkpt lat="51.7595870" lon="39.5433640">
    <ele>147.0</ele>
    <time>2017-01-22T07:37:19Z</time>
   </trkpt>
   <trkpt lat="51.7586590" lon="39.5455320">
    <ele>147.1</ele>
    <time>2017-01-22T07:37:43Z</time>
   </trkpt>
   <trkpt lat="51.7574660" lon="39.5483470">
    <ele>144.4</ele>
    <time>2017-01-22T07:38:13Z</time>
   </trkpt>
   <trkpt lat="51.7563230" lon="39.5510600">
    <ele>144.8</ele>
    <time>2017-01-22T07:38:42Z</time>
   </trkpt>
   <trkpt lat="51.7559530" lon="39.5527700">
    <ele>142.2</ele>
    <time>2017-01-22T07:38:58Z</time>
   </trkpt>
   <trkpt lat="51.7557230" lon="39.5557240">
    <ele>142.0</ele>
    <time>2017-01-22T07:39:24Z</time>
   </trkpt>
   <trkpt lat="51.7554570" lon="39.5592220">
    <ele>139.6</ele>
    <time>2017-01-22T07:39:56Z</time>
   </trkpt>
   <trkpt lat="51.7552520" lon="39.5620040">
    <ele>142.5</ele>
    <time>2017-01-22T07:40:23Z</time>
   </trkpt>
   <trkpt lat="51.7550520" lon="39.5646870">
    <ele>141.5</ele>
    <time>2017-01-22T07:40:49Z</time>
   </trkpt>
   <trkpt lat="51.7548770" lon="39.5669800">
    <ele>140.5</ele>
    <time>2017-01-22T07:41:11Z</time>
   </trkpt>
   <trkpt lat="51.7547120" lon="39.5691590">
    <ele>136.3</ele>
    <time>2017-01-22T07:41:32Z</time>
   </trkpt>
   <trkpt lat="51.7545520" lon="39.5712600">
    <ele>136.3</ele>
    <time>2017-01-22T07:41:52Z</time>
   </trkpt>
   <trkpt lat="51.7543740" lon="39.5736630">
    <ele>136.7</ele>
    <time>2017-01-22T07:42:15Z</time>
   </trkpt>
   <trkpt lat="51.7540790" lon="39.5766420">
    <ele>139.0</ele>
    <time>2017-01-22T07:42:44Z</time>
   </trkpt>
   <trkpt lat="51.7536850" lon="39.5791070">
    <ele>140.2</ele>
    <time>2017-01-22T07:43:08Z</time>
   </trkpt>
   <trkpt lat="51.7534040" lon="39.5816540">
    <ele>136.0</ele>
    <time>2017-01-22T07:43:32Z</time>
   </trkpt>
   <trkpt lat="51.7533490" lon="39.5836030">
    <ele>133.1</ele>
    <time>2017-01-22T07:43:50Z</time>
   </trkpt>
   <trkpt lat="51.7533700" lon="39.5858120">
    <ele>131.0</ele>
    <time>2017-01-22T07:44:11Z</time>
   </trkpt>
   <trkpt lat="51.7531630" lon="39.5871960">
    <ele>127.1</ele>
    <time>2017-01-22T07:44:23Z</time>
   </trkpt>
   <trkpt lat="51.7531040" lon="39.5875750">
    <ele>126.2</ele>
    <time>2017-01-22T07:44:27Z</time>
   </trkpt>
   <trkpt lat="51.7531040" lon="39.5877970">
    <ele>125.1</ele>
    <time>2017-01-22T07:44:30Z</time>
   </trkpt>
   <trkpt lat="51.7531190" lon="39.5878600">
    <ele>125.0</ele>
    <time>2017-01-22T07:44:31Z</time>
   </trkpt>
   <trkpt lat="51.7531460" lon="39.5879080">
    <ele>125.0</ele>
    <time>2017-01-22T07:44:32Z</time>
   </trkpt>
   <trkpt lat="51.7531820" lon="39.5879370">
    <ele>125.0</ele>
    <time>2017-01-22T07:44:33Z</time>
   </trkpt>
   <trkpt lat="51.7532230" lon="39.5879480">
    <ele>125.0</ele>
    <time>2017-01-22T07:44:34Z</time>
   </trkpt>
   <trkpt lat="51.7532640" lon="39.5879480">
    <ele>125.2</ele>
    <time>2017-01-22T07:44:35Z</time>
   </trkpt>
   <trkpt lat="51.7541760" lon="39.5880070">
    <ele>129.4</ele>
    <time>2017-01-22T07:44:55Z</time>
   </trkpt>
   <trkpt lat="51.7552990" lon="39.5881210">
    <ele>130.5</ele>
    <time>2017-01-22T07:45:17Z</time>
   </trkpt>
   <trkpt lat="51.7566930" lon="39.5882480">
    <ele>132.4</ele>
    <time>2017-01-22T07:45:41Z</time>
   </trkpt>
   <trkpt lat="51.7582380" lon="39.5883260">
    <ele>130.4</ele>
    <time>2017-01-22T07:46:07Z</time>
   </trkpt>
   <trkpt lat="51.7596780" lon="39.5883840">
    <ele>125.7</ele>
    <time>2017-01-22T07:46:30Z</time>
   </trkpt>
   <trkpt lat="51.7608950" lon="39.5884290">
    <ele>123.8</ele>
    <time>2017-01-22T07:46:49Z</time>
   </trkpt>
   <trkpt lat="51.7624720" lon="39.5885050">
    <ele>124.1</ele>
    <time>2017-01-22T07:47:14Z</time>
   </trkpt>
   <trkpt lat="51.7641020" lon="39.5886730">
    <ele>124.0</ele>
    <time>2017-01-22T07:47:40Z</time>
   </trkpt>
   <trkpt lat="51.7655610" lon="39.5892890">
    <ele>121.2</ele>
    <time>2017-01-22T07:48:03Z</time>
   </trkpt>
   <trkpt lat="51.7662560" lon="39.5896490">
    <ele>120.0</ele>
    <time>2017-01-22T07:48:14Z</time>
   </trkpt>
   <trkpt lat="51.7663480" lon="39.5897260">
    <ele>120.0</ele>
    <time>2017-01-22T07:48:16Z</time>
   </trkpt>
   <trkpt lat="51.7664750" lon="39.5898370">
    <ele>120.1</ele>
    <time>2017-01-22T07:48:20Z</time>
   </trkpt>
   <trkpt lat="51.7665190" lon="39.5898450">
    <ele>120.3</ele>
    <time>2017-01-22T07:48:21Z</time>
   </trkpt>
   <trkpt lat="51.7665660" lon="39.5898430">
    <ele>120.5</ele>
    <time>2017-01-22T07:48:22Z</time>
   </trkpt>
   <trkpt lat="51.7674250" lon="39.5898600">
    <ele>118.4</ele>
    <time>2017-01-22T07:48:37Z</time>
   </trkpt>
   <trkpt lat="51.7682750" lon="39.5894770">
    <ele>121.1</ele>
    <time>2017-01-22T07:48:53Z</time>
   </trkpt>
   <trkpt lat="51.7691060" lon="39.5884310">
    <ele>122.7</ele>
    <time>2017-01-22T07:49:15Z</time>
   </trkpt>
   <trkpt lat="51.7698450" lon="39.5874780">
    <ele>125.6</ele>
    <time>2017-01-22T07:49:35Z</time>
   </trkpt>
   <trkpt lat="51.7705620" lon="39.5865500">
    <ele>128.0</ele>
    <time>2017-01-22T07:49:54Z</time>
   </trkpt>
   <trkpt lat="51.7710450" lon="39.5860740">
    <ele>130.3</ele>
    <time>2017-01-22T07:50:06Z</time>
   </trkpt>
   <trkpt lat="51.7711330" lon="39.5860290">
    <ele>130.3</ele>
    <time>2017-01-22T07:50:08Z</time>
   </trkpt>
   <trkpt lat="51.7711790" lon="39.5860140">
    <ele>130.3</ele>
    <time>2017-01-22T07:50:09Z</time>
   </trkpt>
   <trkpt lat="51.7722020" lon="39.5856740">
    <ele>133.0</ele>
    <time>2017-01-22T07:50:31Z</time>
   </trkpt>
   <trkpt lat="51.7724690" lon="39.5853550">
    <ele>133.4</ele>
    <time>2017-01-22T07:50:40Z</time>
   </trkpt>
   <trkpt lat="51.7732320" lon="39.5842610">
    <ele>136.2</ele>
    <time>2017-01-22T07:51:02Z</time>
   </trkpt>
   <trkpt lat="51.7741730" lon="39.5829420">
    <ele>140.1</ele>
    <time>2017-01-22T07:51:29Z</time>
   </trkpt>
   <trkpt lat="51.7751970" lon="39.5822580">
    <ele>143.3</ele>
    <time>2017-01-22T07:51:53Z</time>
   </trkpt>
   <trkpt lat="51.7759660" lon="39.5815380">
    <ele>143.6</ele>
    <time>2017-01-22T07:52:12Z</time>
   </trkpt>
   <trkpt lat="51.7765860" lon="39.5801040">
    <ele>144.9</ele>
    <time>2017-01-22T07:52:35Z</time>
   </trkpt>
   <trkpt lat="51.7773040" lon="39.5791060">
    <ele>144.7</ele>
    <time>2017-01-22T07:52:55Z</time>
   </trkpt>
   <trkpt lat="51.7780930" lon="39.5781110">
    <ele>150.3</ele>
    <time>2017-01-22T07:53:17Z</time>
   </trkpt>
   <trkpt lat="51.7789660" lon="39.5770350">
    <ele>150.1</ele>
    <time>2017-01-22T07:53:42Z</time>
   </trkpt>
   <trkpt lat="51.7797660" lon="39.5760910">
    <ele>153.5</ele>
    <time>2017-01-22T07:54:05Z</time>
   </trkpt>
   <trkpt lat="51.7806490" lon="39.5750480">
    <ele>153.1</ele>
    <time>2017-01-22T07:54:33Z</time>
   </trkpt>
   <trkpt lat="51.7815410" lon="39.5739930">
    <ele>154.4</ele>
    <time>2017-01-22T07:54:59Z</time>
   </trkpt>
   <trkpt lat="51.7823320" lon="39.5729440">
    <ele>153.8</ele>
    <time>2017-01-22T07:55:22Z</time>
   </trkpt>
   <trkpt lat="51.7829620" lon="39.5718930">
    <ele>155.4</ele>
    <time>2017-01-22T07:55:45Z</time>
   </trkpt>
   <trkpt lat="51.7837040" lon="39.5706420">
    <ele>153.8</ele>
    <time>2017-01-22T07:56:10Z</time>
   </trkpt>
   <trkpt lat="51.7847040" lon="39.5690050">
    <ele>154.6</ele>
    <time>2017-01-22T07:56:40Z</time>
   </trkpt>
   <trkpt lat="51.7855930" lon="39.5675460">
    <ele>153.0</ele>
    <time>2017-01-22T07:57:07Z</time>
   </trkpt>
   <trkpt lat="51.7864720" lon="39.5660360">
    <ele>152.8</ele>
    <time>2017-01-22T07:57:34Z</time>
   </trkpt>
   <trkpt lat="51.7872760" lon="39.5646490">
    <ele>154.2</ele>
    <time>2017-01-22T07:57:57Z</time>
   </trkpt>
   <trkpt lat="51.7882450" lon="39.5629040">
    <ele>152.8</ele>
    <time>2017-01-22T07:58:25Z</time>
   </trkpt>
   <trkpt lat="51.7892210" lon="39.5611910">
    <ele>151.1</ele>
    <time>2017-01-22T07:58:53Z</time>
   </trkpt>
   <trkpt lat="51.7893430" lon="39.5610340">
    <ele>151.1</ele>
    <time>2017-01-22T07:58:56Z</time>
   </trkpt>
   <trkpt lat="51.7893880" lon="39.5609930">
    <ele>151.0</ele>
    <time>2017-01-22T07:58:57Z</time>
   </trkpt>
   <trkpt lat="51.7894350" lon="39.5609620">
    <ele>151.0</ele>
    <time>2017-01-22T07:58:58Z</time>
   </trkpt>
   <trkpt lat="51.7894840" lon="39.5609430">
    <ele>151.0</ele>
    <time>2017-01-22T07:58:59Z</time>
   </trkpt>
   <trkpt lat="51.7895350" lon="39.5609340">
    <ele>151.0</ele>
    <time>2017-01-22T07:59:00Z</time>
   </trkpt>
   <trkpt lat="51.7895840" lon="39.5609390">
    <ele>151.0</ele>
    <time>2017-01-22T07:59:01Z</time>
   </trkpt>
   <trkpt lat="51.7896310" lon="39.5609580">
    <ele>151.1</ele>
    <time>2017-01-22T07:59:02Z</time>
   </trkpt>
   <trkpt lat="51.7896750" lon="39.5609880">
    <ele>151.1</ele>
    <time>2017-01-22T07:59:03Z</time>
   </trkpt>
   <trkpt lat="51.7897170" lon="39.5610260">
    <ele>151.1</ele>
    <time>2017-01-22T07:59:04Z</time>
   </trkpt>
   <trkpt lat="51.7897550" lon="39.5610670">
    <ele>151.1</ele>
    <time>2017-01-22T07:59:05Z</time>
   </trkpt>
   <trkpt lat="51.7897910" lon="39.5611090">
    <ele>151.1</ele>
    <time>2017-01-22T07:59:06Z</time>
   </trkpt>
   <trkpt lat="51.7905250" lon="39.5618750">
    <ele>152.5</ele>
    <time>2017-01-22T07:59:24Z</time>
   </trkpt>
   <trkpt lat="51.7915390" lon="39.5628590">
    <ele>151.8</ele>
    <time>2017-01-22T07:59:46Z</time>
   </trkpt>
   <trkpt lat="51.7929520" lon="39.5642470">
    <ele>153.4</ele>
    <time>2017-01-22T08:00:16Z</time>
   </trkpt>
   <trkpt lat="51.7941740" lon="39.5654330">
    <ele>154.7</ele>
    <time>2017-01-22T08:00:42Z</time>
   </trkpt>
   <trkpt lat="51.7953540" lon="39.5665890">
    <ele>151.9</ele>
    <time>2017-01-22T08:01:07Z</time>
   </trkpt>
   <trkpt lat="51.7962950" lon="39.5675130">
    <ele>152.1</ele>
    <time>2017-01-22T08:01:26Z</time>
   </trkpt>
   <trkpt lat="51.7978250" lon="39.5690110">
    <ele>153.7</ele>
    <time>2017-01-22T08:01:56Z</time>
   </trkpt>
   <trkpt lat="51.7990110" lon="39.5701500">
    <ele>153.6</ele>
    <time>2017-01-22T08:02:20Z</time>
   </trkpt>
   <trkpt lat="51.8003950" lon="39.5711200">
    <ele>156.0</ele>
    <time>2017-01-22T08:02:46Z</time>
   </trkpt>
   <trkpt lat="51.8018340" lon="39.5718940">
    <ele>158.3</ele>
    <time>2017-01-22T08:03:12Z</time>
   </trkpt>
   <trkpt lat="51.8034670" lon="39.5726450">
    <ele>155.5</ele>
    <time>2017-01-22T08:03:41Z</time>
   </trkpt>
   <trkpt lat="51.8050210" lon="39.5731660">
    <ele>154.9</ele>
    <time>2017-01-22T08:04:08Z</time>
   </trkpt>
   <trkpt lat="51.8065130" lon="39.5734370">
    <ele>153.1</ele>
    <time>2017-01-22T08:04:33Z</time>
   </trkpt>
   <trkpt lat="51.8080200" lon="39.5737120">
    <ele>153.3</ele>
    <time>2017-01-22T08:04:59Z</time>
   </trkpt>
   <trkpt lat="51.8094810" lon="39.5739830">
    <ele>149.4</ele>
    <time>2017-01-22T08:05:24Z</time>
   </trkpt>
   <trkpt lat="51.8111100" lon="39.5742490">
    <ele>151.9</ele>
    <time>2017-01-22T08:05:51Z</time>
   </trkpt>
   <trkpt lat="51.8125690" lon="39.5745600">
    <ele>150.4</ele>
    <time>2017-01-22T08:06:16Z</time>
   </trkpt>
   <trkpt lat="51.8140720" lon="39.5750630">
    <ele>152.1</ele>
    <time>2017-01-22T08:06:43Z</time>
   </trkpt>
   <trkpt lat="51.8150730" lon="39.5753260">
    <ele>151.3</ele>
    <time>2017-01-22T08:07:02Z</time>
   </trkpt>
   <trkpt lat="51.8161260" lon="39.5754590">
    <ele>152.2</ele>
    <time>2017-01-22T08:07:22Z</time>
   </trkpt>
   <trkpt lat="51.8164240" lon="39.5754670">
    <ele>153.4</ele>
    <time>2017-01-22T08:07:28Z</time>
   </trkpt>
   <trkpt lat="51.8164620" lon="39.5754460">
    <ele>153.7</ele>
    <time>2017-01-22T08:07:29Z</time>
   </trkpt>
   <trkpt lat="51.8164920" lon="39.5754100">
    <ele>153.6</ele>
    <time>2017-01-22T08:07:30Z</time>
   </trkpt>
   <trkpt lat="51.8165110" lon="39.5753620">
    <ele>153.5</ele>
    <time>2017-01-22T08:07:31Z</time>
   </trkpt>
   <trkpt lat="51.8165200" lon="39.5753050">
    <ele>153.5</ele>
    <time>2017-01-22T08:07:32Z</time>
   </trkpt>
   <trkpt lat="51.8165190" lon="39.5752430">
    <ele>153.4</ele>
    <time>2017-01-22T08:07:33Z</time>
   </trkpt>
   <trkpt lat="51.8165090" lon="39.5751820">
    <ele>153.4</ele>
    <time>2017-01-22T08:07:34Z</time>
   </trkpt>
   <trkpt lat="51.8164950" lon="39.5751210">
    <ele>153.4</ele>
    <time>2017-01-22T08:07:35Z</time>
   </trkpt>
   <trkpt lat="51.8164660" lon="39.5749950">
    <ele>153.4</ele>
    <time>2017-01-22T08:07:37Z</time>
   </trkpt>
   <trkpt lat="51.8160360" lon="39.5742010">
    <ele>153.3</ele>
    <time>2017-01-22T08:07:51Z</time>
   </trkpt>
   <trkpt lat="51.8158810" lon="39.5740590">
    <ele>152.5</ele>
    <time>2017-01-22T08:07:55Z</time>
   </trkpt>
   <trkpt lat="51.8158490" lon="39.5740180">
    <ele>152.3</ele>
    <time>2017-01-22T08:07:56Z</time>
   </trkpt>
   <trkpt lat="51.8158210" lon="39.5739750">
    <ele>152.0</ele>
    <time>2017-01-22T08:07:57Z</time>
   </trkpt>
   <trkpt lat="51.8157990" lon="39.5739270">
    <ele>152.0</ele>
    <time>2017-01-22T08:07:58Z</time>
   </trkpt>
   <trkpt lat="51.8157830" lon="39.5738770">
    <ele>152.0</ele>
    <time>2017-01-22T08:07:59Z</time>
   </trkpt>
   <trkpt lat="51.8157730" lon="39.5738250">
    <ele>152.0</ele>
    <time>2017-01-22T08:08:00Z</time>
   </trkpt>
   <trkpt lat="51.8157660" lon="39.5737730">
    <ele>152.0</ele>
    <time>2017-01-22T08:08:01Z</time>
   </trkpt>
   <trkpt lat="51.8157620" lon="39.5737220">
    <ele>152.0</ele>
    <time>2017-01-22T08:08:02Z</time>
   </trkpt>
   <trkpt lat="51.8157620" lon="39.5736700">
    <ele>152.0</ele>
    <time>2017-01-22T08:08:03Z</time>
   </trkpt>
   <trkpt lat="51.8157670" lon="39.5736160">
    <ele>152.0</ele>
    <time>2017-01-22T08:08:04Z</time>
   </trkpt>
   <trkpt lat="51.8157760" lon="39.5735650">
    <ele>152.0</ele>
    <time>2017-01-22T08:08:05Z</time>
   </trkpt>
   <trkpt lat="51.8157860" lon="39.5735160">
    <ele>152.1</ele>
    <time>2017-01-22T08:08:06Z</time>
   </trkpt>
   <trkpt lat="51.8158130" lon="39.5733780">
    <ele>152.3</ele>
    <time>2017-01-22T08:08:10Z</time>
   </trkpt>
   <trkpt lat="51.8158230" lon="39.5733610">
    <ele>152.4</ele>
    <time>2017-01-22T08:08:11Z</time>
   </trkpt>
   <trkpt lat="51.8158260" lon="39.5733350">
    <ele>152.4</ele>
    <time>2017-01-22T08:08:12Z</time>
   </trkpt>
   <trkpt lat="51.8158230" lon="39.5732990">
    <ele>152.5</ele>
    <time>2017-01-22T08:08:13Z</time>
   </trkpt>
   <trkpt lat="51.8158180" lon="39.5732550">
    <ele>152.6</ele>
    <time>2017-01-22T08:08:14Z</time>
   </trkpt>
   <trkpt lat="51.8160020" lon="39.5729230">
    <ele>153.4</ele>
    <time>2017-01-22T08:08:25Z</time>
   </trkpt>
   <trkpt lat="51.8165320" lon="39.5730980">
    <ele>154.5</ele>
    <time>2017-01-22T08:08:40Z</time>
   </trkpt>
   <trkpt lat="51.8171700" lon="39.5732690">
    <ele>153.6</ele>
    <time>2017-01-22T08:08:58Z</time>
   </trkpt>
   <trkpt lat="51.8178480" lon="39.5733880">
    <ele>154.5</ele>
    <time>2017-01-22T08:09:15Z</time>
   </trkpt>
   <trkpt lat="51.8184310" lon="39.5736030">
    <ele>157.2</ele>
    <time>2017-01-22T08:09:30Z</time>
   </trkpt>
   <trkpt lat="51.8189570" lon="39.5738520">
    <ele>157.2</ele>
    <time>2017-01-22T08:09:44Z</time>
   </trkpt>
   <trkpt lat="51.8195210" lon="39.5738420">
    <ele>158.2</ele>
    <time>2017-01-22T08:09:59Z</time>
   </trkpt>
   <trkpt lat="51.8196400" lon="39.5737490">
    <ele>158.5</ele>
    <time>2017-01-22T08:10:02Z</time>
   </trkpt>
   <trkpt lat="51.8196800" lon="39.5737340">
    <ele>158.4</ele>
    <time>2017-01-22T08:10:03Z</time>
   </trkpt>
   <trkpt lat="51.8197180" lon="39.5737270">
    <ele>158.2</ele>
    <time>2017-01-22T08:10:04Z</time>
   </trkpt>
   <trkpt lat="51.8197550" lon="39.5737240">
    <ele>158.2</ele>
    <time>2017-01-22T08:10:05Z</time>
   </trkpt>
   <trkpt lat="51.8197930" lon="39.5737240">
    <ele>158.1</ele>
    <time>2017-01-22T08:10:06Z</time>
   </trkpt>
   <trkpt lat="51.8198300" lon="39.5737240">
    <ele>158.0</ele>
    <time>2017-01-22T08:10:07Z</time>
   </trkpt>
   <trkpt lat="51.8201940" lon="39.5734210">
    <ele>158.0</ele>
    <time>2017-01-22T08:10:20Z</time>
   </trkpt>
   <trkpt lat="51.8202430" lon="39.5727340">
    <ele>159.1</ele>
    <time>2017-01-22T08:10:32Z</time>
   </trkpt>
   <trkpt lat="51.8202750" lon="39.5725860">
    <ele>159.7</ele>
    <time>2017-01-22T08:10:40Z</time>
   </trkpt>
   <trkpt lat="51.8202840" lon="39.5725480">
    <ele>159.9</ele>
    <time>2017-01-22T08:10:42Z</time>
   </trkpt>
   <trkpt lat="51.8202910" lon="39.5725270">
    <ele>160.0</ele>
    <time>2017-01-22T08:10:43Z</time>
   </trkpt>
   <trkpt lat="51.8202970" lon="39.5725100">
    <ele>160.0</ele>
    <time>2017-01-22T08:10:44Z</time>
   </trkpt>
   <trkpt lat="51.8203040" lon="39.5724950">
    <ele>160.1</ele>
    <time>2017-01-22T08:10:45Z</time>
   </trkpt>
   <trkpt lat="51.8203100" lon="39.5724810">
    <ele>160.1</ele>
    <time>2017-01-22T08:10:46Z</time>
   </trkpt>
   <trkpt lat="51.8203170" lon="39.5724580">
    <ele>160.1</ele>
    <time>2017-01-22T08:10:47Z</time>
   </trkpt>
   <trkpt lat="51.8203250" lon="39.5724280">
    <ele>160.2</ele>
    <time>2017-01-22T08:10:48Z</time>
   </trkpt>
   <trkpt lat="51.8204290" lon="39.5720060">
    <ele>160.9</ele>
    <time>2017-01-22T08:11:01Z</time>
   </trkpt>
   <trkpt lat="51.8205100" lon="39.5715350">
    <ele>162.3</ele>
    <time>2017-01-22T08:11:13Z</time>
   </trkpt>
   <trkpt lat="51.8206510" lon="39.5713340">
    <ele>161.8</ele>
    <time>2017-01-22T08:11:22Z</time>
   </trkpt>
   <trkpt lat="51.8207140" lon="39.5713310">
    <ele>161.9</ele>
    <time>2017-01-22T08:11:26Z</time>
   </trkpt>
   <trkpt lat="51.8207990" lon="39.5713640">
    <ele>162.1</ele>
    <time>2017-01-22T08:11:30Z</time>
   </trkpt>
   <trkpt lat="51.8208960" lon="39.5714930">
    <ele>162.0</ele>
    <time>2017-01-22T08:11:35Z</time>
   </trkpt>
   <trkpt lat="51.8212110" lon="39.5717600">
    <ele>161.4</ele>
    <time>2017-01-22T08:11:50Z</time>
   </trkpt>
   <trkpt lat="51.8212290" lon="39.5717600">
    <ele>161.4</ele>
    <time>2017-01-22T08:11:51Z</time>
   </trkpt>
   <trkpt lat="51.8212850" lon="39.5717250">
    <ele>161.3</ele>
    <time>2017-01-22T08:11:59Z</time>
   </trkpt>
   <trkpt lat="51.8213520" lon="39.5716720">
    <ele>162.2</ele>
    <time>2017-01-22T08:12:30Z</time>
   </trkpt>
   <trkpt lat="51.8217020" lon="39.5712080">
    <ele>167.1</ele>
    <time>2017-01-22T08:12:43Z</time>
   </trkpt>
   <trkpt lat="51.8219540" lon="39.5706630">
    <ele>167.2</ele>
    <time>2017-01-22T08:12:54Z</time>
   </trkpt>
   <trkpt lat="51.8219700" lon="39.5704310">
    <ele>167.7</ele>
    <time>2017-01-22T08:13:03Z</time>
   </trkpt>
   <trkpt lat="51.8219720" lon="39.5704290">
    <ele>167.7</ele>
    <time>2017-01-22T08:13:05Z</time>
   </trkpt>
   <trkpt lat="51.8220300" lon="39.5702190">
    <ele>168.1</ele>
    <time>2017-01-22T08:29:17Z</time>
   </trkpt>
   <trkpt lat="51.8221230" lon="39.5696280">
    <ele>169.4</ele>
    <time>2017-01-22T08:29:29Z</time>
   </trkpt>
   <trkpt lat="51.8222070" lon="39.5690440">
    <ele>169.5</ele>
    <time>2017-01-22T08:29:39Z</time>
   </trkpt>
   <trkpt lat="51.8222830" lon="39.5683950">
    <ele>166.8</ele>
    <time>2017-01-22T08:29:50Z</time>
   </trkpt>
   <trkpt lat="51.8223970" lon="39.5675650">
    <ele>163.9</ele>
    <time>2017-01-22T08:30:02Z</time>
   </trkpt>
   <trkpt lat="51.8224380" lon="39.5668810">
    <ele>164.3</ele>
    <time>2017-01-22T08:30:12Z</time>
   </trkpt>
   <trkpt lat="51.8224670" lon="39.5660970">
    <ele>164.4</ele>
    <time>2017-01-22T08:30:24Z</time>
   </trkpt>
   <trkpt lat="51.8226030" lon="39.5651900">
    <ele>165.8</ele>
    <time>2017-01-22T08:30:37Z</time>
   </trkpt>
   <trkpt lat="51.8226740" lon="39.5647330">
    <ele>165.3</ele>
    <time>2017-01-22T08:30:43Z</time>
   </trkpt>
   <trkpt lat="51.8227050" lon="39.5645740">
    <ele>165.2</ele>
    <time>2017-01-22T08:30:45Z</time>
   </trkpt>
   <trkpt lat="51.8227190" lon="39.5645010">
    <ele>165.2</ele>
    <time>2017-01-22T08:30:46Z</time>
   </trkpt>
   <trkpt lat="51.8227780" lon="39.5641860">
    <ele>166.0</ele>
    <time>2017-01-22T08:30:50Z</time>
   </trkpt>
   <trkpt lat="51.8227910" lon="39.5641130">
    <ele>166.2</ele>
    <time>2017-01-22T08:30:51Z</time>
   </trkpt>
   <trkpt lat="51.8228270" lon="39.5639130">
    <ele>166.1</ele>
    <time>2017-01-22T08:30:54Z</time>
   </trkpt>
   <trkpt lat="51.8228740" lon="39.5636340">
    <ele>165.5</ele>
    <time>2017-01-22T08:30:58Z</time>
   </trkpt>
   <trkpt lat="51.8230800" lon="39.5626210">
    <ele>167.3</ele>
    <time>2017-01-22T08:31:12Z</time>
   </trkpt>
   <trkpt lat="51.8232080" lon="39.5616810">
    <ele>167.3</ele>
    <time>2017-01-22T08:31:26Z</time>
   </trkpt>
   <trkpt lat="51.8233900" lon="39.5607590">
    <ele>169.5</ele>
    <time>2017-01-22T08:31:40Z</time>
   </trkpt>
   <trkpt lat="51.8235260" lon="39.5600250">
    <ele>170.3</ele>
    <time>2017-01-22T08:31:50Z</time>
   </trkpt>
   <trkpt lat="51.8235410" lon="39.5599510">
    <ele>170.2</ele>
    <time>2017-01-22T08:31:51Z</time>
   </trkpt>
   <trkpt lat="51.8237750" lon="39.5589320">
    <ele>169.3</ele>
    <time>2017-01-22T08:32:03Z</time>
   </trkpt>
   <trkpt lat="51.8239320" lon="39.5581730">
    <ele>167.9</ele>
    <time>2017-01-22T08:32:13Z</time>
   </trkpt>
   <trkpt lat="51.8240500" lon="39.5574870">
    <ele>167.5</ele>
    <time>2017-01-22T08:32:24Z</time>
   </trkpt>
   <trkpt lat="51.8241950" lon="39.5564710">
    <ele>166.2</ele>
    <time>2017-01-22T08:32:37Z</time>
   </trkpt>
   <trkpt lat="51.8243280" lon="39.5556690">
    <ele>168.4</ele>
    <time>2017-01-22T08:32:49Z</time>
   </trkpt>
   <trkpt lat="51.8243790" lon="39.5553300">
    <ele>168.4</ele>
    <time>2017-01-22T08:32:54Z</time>
   </trkpt>
   <trkpt lat="51.8244290" lon="39.5551120">
    <ele>167.8</ele>
    <time>2017-01-22T08:32:57Z</time>
   </trkpt>
   <trkpt lat="51.8244490" lon="39.5550330">
    <ele>167.6</ele>
    <time>2017-01-22T08:32:58Z</time>
   </trkpt>
   <trkpt lat="51.8244710" lon="39.5549550">
    <ele>167.5</ele>
    <time>2017-01-22T08:32:59Z</time>
   </trkpt>
   <trkpt lat="51.8244980" lon="39.5548730">
    <ele>167.2</ele>
    <time>2017-01-22T08:33:00Z</time>
   </trkpt>
   <trkpt lat="51.8245220" lon="39.5547830">
    <ele>166.7</ele>
    <time>2017-01-22T08:33:01Z</time>
   </trkpt>
   <trkpt lat="51.8245460" lon="39.5546990">
    <ele>165.9</ele>
    <time>2017-01-22T08:33:02Z</time>
   </trkpt>
   <trkpt lat="51.8245670" lon="39.5546220">
    <ele>165.4</ele>
    <time>2017-01-22T08:33:03Z</time>
   </trkpt>
   <trkpt lat="51.8245830" lon="39.5545470">
    <ele>165.0</ele>
    <time>2017-01-22T08:33:04Z</time>
   </trkpt>
   <trkpt lat="51.8245650" lon="39.5541100">
    <ele>163.4</ele>
    <time>2017-01-22T08:33:11Z</time>
   </trkpt>
   <trkpt lat="51.8244960" lon="39.5537600">
    <ele>162.8</ele>
    <time>2017-01-22T08:33:16Z</time>
   </trkpt>
   <trkpt lat="51.8245000" lon="39.5536930">
    <ele>162.8</ele>
    <time>2017-01-22T08:33:17Z</time>
   </trkpt>
   <trkpt lat="51.8245090" lon="39.5536280">
    <ele>162.8</ele>
    <time>2017-01-22T08:33:18Z</time>
   </trkpt>
   <trkpt lat="51.8245240" lon="39.5535690">
    <ele>162.9</ele>
    <time>2017-01-22T08:33:19Z</time>
   </trkpt>
   <trkpt lat="51.8245470" lon="39.5535210">
    <ele>163.0</ele>
    <time>2017-01-22T08:33:20Z</time>
   </trkpt>
   <trkpt lat="51.8245710" lon="39.5534770">
    <ele>163.1</ele>
    <time>2017-01-22T08:33:21Z</time>
   </trkpt>
   <trkpt lat="51.8248390" lon="39.5529120">
    <ele>166.4</ele>
    <time>2017-01-22T08:33:32Z</time>
   </trkpt>
   <trkpt lat="51.8250080" lon="39.5521600">
    <ele>167.3</ele>
    <time>2017-01-22T08:33:45Z</time>
   </trkpt>
   <trkpt lat="51.8252150" lon="39.5513410">
    <ele>167.2</ele>
    <time>2017-01-22T08:33:57Z</time>
   </trkpt>
   <trkpt lat="51.8252840" lon="39.5510020">
    <ele>167.6</ele>
    <time>2017-01-22T08:34:02Z</time>
   </trkpt>
   <trkpt lat="51.8252990" lon="39.5509330">
    <ele>167.9</ele>
    <time>2017-01-22T08:34:03Z</time>
   </trkpt>
   <trkpt lat="51.8253160" lon="39.5508640">
    <ele>168.2</ele>
    <time>2017-01-22T08:34:04Z</time>
   </trkpt>
   <trkpt lat="51.8253490" lon="39.5506460">
    <ele>168.5</ele>
    <time>2017-01-22T08:34:07Z</time>
   </trkpt>
   <trkpt lat="51.8253620" lon="39.5505770">
    <ele>168.5</ele>
    <time>2017-01-22T08:34:08Z</time>
   </trkpt>
   <trkpt lat="51.8255110" lon="39.5497110">
    <ele>168.2</ele>
    <time>2017-01-22T08:34:20Z</time>
   </trkpt>
   <trkpt lat="51.8255680" lon="39.5493520">
    <ele>168.1</ele>
    <time>2017-01-22T08:34:24Z</time>
   </trkpt>
   <trkpt lat="51.8256170" lon="39.5491010">
    <ele>166.6</ele>
    <time>2017-01-22T08:34:27Z</time>
   </trkpt>
   <trkpt lat="51.8256360" lon="39.5490240">
    <ele>166.2</ele>
    <time>2017-01-22T08:34:28Z</time>
   </trkpt>
   <trkpt lat="51.8257850" lon="39.5482550">
    <ele>162.2</ele>
    <time>2017-01-22T08:34:39Z</time>
   </trkpt>
   <trkpt lat="51.8257930" lon="39.5481790">
    <ele>162.1</ele>
    <time>2017-01-22T08:34:40Z</time>
   </trkpt>
   <trkpt lat="51.8258060" lon="39.5481060">
    <ele>162.0</ele>
    <time>2017-01-22T08:34:41Z</time>
   </trkpt>
   <trkpt lat="51.8258180" lon="39.5480260">
    <ele>161.8</ele>
    <time>2017-01-22T08:34:42Z</time>
   </trkpt>
   <trkpt lat="51.8258300" lon="39.5479490">
    <ele>161.5</ele>
    <time>2017-01-22T08:34:43Z</time>
   </trkpt>
   <trkpt lat="51.8259620" lon="39.5471590">
    <ele>160.6</ele>
    <time>2017-01-22T08:34:55Z</time>
   </trkpt>
   <trkpt lat="51.8260120" lon="39.5469510">
    <ele>161.6</ele>
    <time>2017-01-22T08:35:00Z</time>
   </trkpt>
   <trkpt lat="51.8260220" lon="39.5469140">
    <ele>161.8</ele>
    <time>2017-01-22T08:35:04Z</time>
   </trkpt>
   <trkpt lat="51.8260340" lon="39.5466840">
    <ele>162.5</ele>
    <time>2017-01-22T08:35:49Z</time>
   </trkpt>
   <trkpt lat="51.8261630" lon="39.5460980">
    <ele>162.7</ele>
    <time>2017-01-22T08:36:00Z</time>
   </trkpt>
   <trkpt lat="51.8262810" lon="39.5453870">
    <ele>165.0</ele>
    <time>2017-01-22T08:36:11Z</time>
   </trkpt>
   <trkpt lat="51.8263070" lon="39.5452470">
    <ele>165.6</ele>
    <time>2017-01-22T08:36:13Z</time>
   </trkpt>
   <trkpt lat="51.8263780" lon="39.5448870">
    <ele>166.7</ele>
    <time>2017-01-22T08:36:18Z</time>
   </trkpt>
   <trkpt lat="51.8263900" lon="39.5448190">
    <ele>166.9</ele>
    <time>2017-01-22T08:36:19Z</time>
   </trkpt>
   <trkpt lat="51.8264080" lon="39.5447580">
    <ele>167.2</ele>
    <time>2017-01-22T08:36:20Z</time>
   </trkpt>
   <trkpt lat="51.8264250" lon="39.5446940">
    <ele>167.5</ele>
    <time>2017-01-22T08:36:21Z</time>
   </trkpt>
   <trkpt lat="51.8264420" lon="39.5446250">
    <ele>167.8</ele>
    <time>2017-01-22T08:36:22Z</time>
   </trkpt>
   <trkpt lat="51.8264590" lon="39.5445590">
    <ele>168.2</ele>
    <time>2017-01-22T08:36:23Z</time>
   </trkpt>
   <trkpt lat="51.8265600" lon="39.5441230">
    <ele>167.4</ele>
    <time>2017-01-22T08:36:30Z</time>
   </trkpt>
   <trkpt lat="51.8265760" lon="39.5440520">
    <ele>167.1</ele>
    <time>2017-01-22T08:36:31Z</time>
   </trkpt>
   <trkpt lat="51.8265920" lon="39.5439790">
    <ele>166.8</ele>
    <time>2017-01-22T08:36:32Z</time>
   </trkpt>
   <trkpt lat="51.8266090" lon="39.5439040">
    <ele>166.7</ele>
    <time>2017-01-22T08:36:33Z</time>
   </trkpt>
   <trkpt lat="51.8266250" lon="39.5438270">
    <ele>166.5</ele>
    <time>2017-01-22T08:36:34Z</time>
   </trkpt>
   <trkpt lat="51.8267550" lon="39.5430860">
    <ele>161.9</ele>
    <time>2017-01-22T08:36:42Z</time>
   </trkpt>
   <trkpt lat="51.8267690" lon="39.5430090">
    <ele>161.8</ele>
    <time>2017-01-22T08:36:43Z</time>
   </trkpt>
   <trkpt lat="51.8268470" lon="39.5425970">
    <ele>161.0</ele>
    <time>2017-01-22T08:36:48Z</time>
   </trkpt>
   <trkpt lat="51.8268770" lon="39.5424560">
    <ele>161.4</ele>
    <time>2017-01-22T08:36:50Z</time>
   </trkpt>
   <trkpt lat="51.8268890" lon="39.5423880">
    <ele>161.7</ele>
    <time>2017-01-22T08:36:51Z</time>
   </trkpt>
   <trkpt lat="51.8270330" lon="39.5415700">
    <ele>166.1</ele>
    <time>2017-01-22T08:37:02Z</time>
   </trkpt>
   <trkpt lat="51.8271460" lon="39.5409660">
    <ele>167.2</ele>
    <time>2017-01-22T08:37:09Z</time>
   </trkpt>
   <trkpt lat="51.8272460" lon="39.5403410">
    <ele>167.4</ele>
    <time>2017-01-22T08:37:18Z</time>
   </trkpt>
   <trkpt lat="51.8274100" lon="39.5397380">
    <ele>166.5</ele>
    <time>2017-01-22T08:37:26Z</time>
   </trkpt>
   <trkpt lat="51.8274230" lon="39.5396620">
    <ele>166.2</ele>
    <time>2017-01-22T08:37:27Z</time>
   </trkpt>
   <trkpt lat="51.8274820" lon="39.5393770">
    <ele>165.4</ele>
    <time>2017-01-22T08:37:31Z</time>
   </trkpt>
   <trkpt lat="51.8275660" lon="39.5389390">
    <ele>164.5</ele>
    <time>2017-01-22T08:37:37Z</time>
   </trkpt>
   <trkpt lat="51.8275780" lon="39.5388680">
    <ele>164.5</ele>
    <time>2017-01-22T08:37:38Z</time>
   </trkpt>
   <trkpt lat="51.8276790" lon="39.5379150">
    <ele>163.0</ele>
    <time>2017-01-22T08:37:51Z</time>
   </trkpt>
   <trkpt lat="51.8276820" lon="39.5378350">
    <ele>162.5</ele>
    <time>2017-01-22T08:37:52Z</time>
   </trkpt>
   <trkpt lat="51.8276910" lon="39.5377550">
    <ele>162.1</ele>
    <time>2017-01-22T08:37:53Z</time>
   </trkpt>
   <trkpt lat="51.8277050" lon="39.5376810">
    <ele>161.9</ele>
    <time>2017-01-22T08:37:54Z</time>
   </trkpt>
   <trkpt lat="51.8277250" lon="39.5376120">
    <ele>161.7</ele>
    <time>2017-01-22T08:37:55Z</time>
   </trkpt>
   <trkpt lat="51.8277460" lon="39.5375470">
    <ele>161.5</ele>
    <time>2017-01-22T08:37:56Z</time>
   </trkpt>
   <trkpt lat="51.8277700" lon="39.5374880">
    <ele>161.2</ele>
    <time>2017-01-22T08:37:57Z</time>
   </trkpt>
   <trkpt lat="51.8277950" lon="39.5374280">
    <ele>160.9</ele>
    <time>2017-01-22T08:37:58Z</time>
   </trkpt>
   <trkpt lat="51.8278710" lon="39.5371920">
    <ele>159.6</ele>
    <time>2017-01-22T08:38:02Z</time>
   </trkpt>
   <trkpt lat="51.8278860" lon="39.5371230">
    <ele>159.2</ele>
    <time>2017-01-22T08:38:03Z</time>
   </trkpt>
   <trkpt lat="51.8279010" lon="39.5370560">
    <ele>158.8</ele>
    <time>2017-01-22T08:38:04Z</time>
   </trkpt>
   <trkpt lat="51.8280520" lon="39.5363330">
    <ele>156.2</ele>
    <time>2017-01-22T08:38:15Z</time>
   </trkpt>
   <trkpt lat="51.8280930" lon="39.5360030">
    <ele>157.9</ele>
    <time>2017-01-22T08:38:27Z</time>
   </trkpt>
   <trkpt lat="51.8280980" lon="39.5359430">
    <ele>158.0</ele>
    <time>2017-01-22T08:38:36Z</time>
   </trkpt>
   <trkpt lat="51.8280950" lon="39.5359700">
    <ele>158.0</ele>
    <time>2017-01-22T08:38:37Z</time>
   </trkpt>
   <trkpt lat="51.8280910" lon="39.5360010">
    <ele>158.0</ele>
    <time>2017-01-22T08:38:38Z</time>
   </trkpt>
   <trkpt lat="51.8280820" lon="39.5360430">
    <ele>158.0</ele>
    <time>2017-01-22T08:38:39Z</time>
   </trkpt>
   <trkpt lat="51.8280720" lon="39.5360930">
    <ele>158.1</ele>
    <time>2017-01-22T08:38:40Z</time>
   </trkpt>
   <trkpt lat="51.8280300" lon="39.5363930">
    <ele>158.5</ele>
    <time>2017-01-22T08:38:49Z</time>
   </trkpt>
   <trkpt lat="51.8281310" lon="39.5363320">
    <ele>158.6</ele>
    <time>2017-01-22T08:39:55Z</time>
   </trkpt>
   <trkpt lat="51.8283190" lon="39.5361840">
    <ele>158.7</ele>
    <time>2017-01-22T08:40:09Z</time>
   </trkpt>
   <trkpt lat="51.8284090" lon="39.5361880">
    <ele>158.7</ele>
    <time>2017-01-22T08:40:20Z</time>
   </trkpt>
   <trkpt lat="51.8283190" lon="39.5361900">
    <ele>158.7</ele>
    <time>2017-01-22T08:40:40Z</time>
   </trkpt>
   <trkpt lat="51.8282960" lon="39.5361930">
    <ele>158.7</ele>
    <time>2017-01-22T08:40:41Z</time>
   </trkpt>
   <trkpt lat="51.8282760" lon="39.5361970">
    <ele>158.7</ele>
    <time>2017-01-22T08:40:42Z</time>
   </trkpt>
   <trkpt lat="51.8280260" lon="39.5364110">
    <ele>158.2</ele>
    <time>2017-01-22T08:40:55Z</time>
   </trkpt>
   <trkpt lat="51.8280200" lon="39.5364050">
    <ele>158.2</ele>
    <time>2017-01-22T08:40:58Z</time>
   </trkpt>
   <trkpt lat="51.8280300" lon="39.5363060">
    <ele>158.1</ele>
    <time>2017-01-22T08:41:05Z</time>
   </trkpt>
   <trkpt lat="51.8280390" lon="39.5362710">
    <ele>158.0</ele>
    <time>2017-01-22T08:41:06Z</time>
   </trkpt>
   <trkpt lat="51.8280480" lon="39.5362320">
    <ele>158.4</ele>
    <time>2017-01-22T08:41:07Z</time>
   </trkpt>
   <trkpt lat="51.8280560" lon="39.5361980">
    <ele>158.8</ele>
    <time>2017-01-22T08:41:08Z</time>
   </trkpt>
   <trkpt lat="51.8281580" lon="39.5356400">
    <ele>164.8</ele>
    <time>2017-01-22T08:41:23Z</time>
   </trkpt>
   <trkpt lat="51.8282590" lon="39.5351560">
    <ele>163.7</ele>
    <time>2017-01-22T08:41:32Z</time>
   </trkpt>
   <trkpt lat="51.8282770" lon="39.5350830">
    <ele>163.9</ele>
    <time>2017-01-22T08:41:33Z</time>
   </trkpt>
   <trkpt lat="51.8283860" lon="39.5345700">
    <ele>165.9</ele>
    <time>2017-01-22T08:41:40Z</time>
   </trkpt>
   <trkpt lat="51.8284320" lon="39.5342400">
    <ele>166.9</ele>
    <time>2017-01-22T08:41:45Z</time>
   </trkpt>
   <trkpt lat="51.8284460" lon="39.5341750">
    <ele>167.1</ele>
    <time>2017-01-22T08:41:46Z</time>
   </trkpt>
   <trkpt lat="51.8284600" lon="39.5341060">
    <ele>167.1</ele>
    <time>2017-01-22T08:41:47Z</time>
   </trkpt>
   <trkpt lat="51.8285290" lon="39.5337380">
    <ele>166.4</ele>
    <time>2017-01-22T08:41:53Z</time>
   </trkpt>
   <trkpt lat="51.8285390" lon="39.5336730">
    <ele>166.4</ele>
    <time>2017-01-22T08:41:54Z</time>
   </trkpt>
   <trkpt lat="51.8287360" lon="39.5326380">
    <ele>163.5</ele>
    <time>2017-01-22T08:42:09Z</time>
   </trkpt>
   <trkpt lat="51.8288790" lon="39.5318250">
    <ele>164.1</ele>
    <time>2017-01-22T08:42:21Z</time>
   </trkpt>
   <trkpt lat="51.8288920" lon="39.5317590">
    <ele>164.3</ele>
    <time>2017-01-22T08:42:22Z</time>
   </trkpt>
   <trkpt lat="51.8289060" lon="39.5316930">
    <ele>164.5</ele>
    <time>2017-01-22T08:42:23Z</time>
   </trkpt>
   <trkpt lat="51.8289200" lon="39.5316270">
    <ele>164.7</ele>
    <time>2017-01-22T08:42:24Z</time>
   </trkpt>
   <trkpt lat="51.8289320" lon="39.5315570">
    <ele>164.9</ele>
    <time>2017-01-22T08:42:25Z</time>
   </trkpt>
   <trkpt lat="51.8291070" lon="39.5305750">
    <ele>165.4</ele>
    <time>2017-01-22T08:42:40Z</time>
   </trkpt>
   <trkpt lat="51.8292630" lon="39.5297930">
    <ele>163.5</ele>
    <time>2017-01-22T08:42:53Z</time>
   </trkpt>
   <trkpt lat="51.8293810" lon="39.5292490">
    <ele>160.9</ele>
    <time>2017-01-22T08:43:01Z</time>
   </trkpt>
   <trkpt lat="51.8293950" lon="39.5291860">
    <ele>160.3</ele>
    <time>2017-01-22T08:43:02Z</time>
   </trkpt>
   <trkpt lat="51.8294700" lon="39.5288660">
    <ele>159.7</ele>
    <time>2017-01-22T08:43:07Z</time>
   </trkpt>
   <trkpt lat="51.8295230" lon="39.5285340">
    <ele>161.3</ele>
    <time>2017-01-22T08:43:12Z</time>
   </trkpt>
   <trkpt lat="51.8296280" lon="39.5280950">
    <ele>163.4</ele>
    <time>2017-01-22T08:43:19Z</time>
   </trkpt>
   <trkpt lat="51.8296410" lon="39.5280260">
    <ele>163.8</ele>
    <time>2017-01-22T08:43:20Z</time>
   </trkpt>
   <trkpt lat="51.8297690" lon="39.5272670">
    <ele>163.8</ele>
    <time>2017-01-22T08:43:31Z</time>
   </trkpt>
   <trkpt lat="51.8297980" lon="39.5271270">
    <ele>163.4</ele>
    <time>2017-01-22T08:43:33Z</time>
   </trkpt>
   <trkpt lat="51.8298130" lon="39.5270590">
    <ele>163.3</ele>
    <time>2017-01-22T08:43:34Z</time>
   </trkpt>
   <trkpt lat="51.8299950" lon="39.5261280">
    <ele>163.3</ele>
    <time>2017-01-22T08:43:48Z</time>
   </trkpt>
   <trkpt lat="51.8301760" lon="39.5252160">
    <ele>161.5</ele>
    <time>2017-01-22T08:44:01Z</time>
   </trkpt>
   <trkpt lat="51.8302310" lon="39.5249270">
    <ele>160.4</ele>
    <time>2017-01-22T08:44:05Z</time>
   </trkpt>
   <trkpt lat="51.8303480" lon="39.5242070">
    <ele>160.6</ele>
    <time>2017-01-22T08:44:15Z</time>
   </trkpt>
   <trkpt lat="51.8303870" lon="39.5240650">
    <ele>160.5</ele>
    <time>2017-01-22T08:44:17Z</time>
   </trkpt>
   <trkpt lat="51.8305450" lon="39.5232060">
    <ele>160.3</ele>
    <time>2017-01-22T08:44:30Z</time>
   </trkpt>
   <trkpt lat="51.8307300" lon="39.5222940">
    <ele>159.1</ele>
    <time>2017-01-22T08:44:45Z</time>
   </trkpt>
   <trkpt lat="51.8307800" lon="39.5220370">
    <ele>159.9</ele>
    <time>2017-01-22T08:44:49Z</time>
   </trkpt>
   <trkpt lat="51.8307940" lon="39.5219730">
    <ele>160.1</ele>
    <time>2017-01-22T08:44:50Z</time>
   </trkpt>
   <trkpt lat="51.8309160" lon="39.5211930">
    <ele>158.7</ele>
    <time>2017-01-22T08:45:03Z</time>
   </trkpt>
   <trkpt lat="51.8308880" lon="39.5205710">
    <ele>156.9</ele>
    <time>2017-01-22T08:45:14Z</time>
   </trkpt>
   <trkpt lat="51.8308900" lon="39.5205060">
    <ele>157.0</ele>
    <time>2017-01-22T08:45:15Z</time>
   </trkpt>
   <trkpt lat="51.8309160" lon="39.5201980">
    <ele>157.5</ele>
    <time>2017-01-22T08:45:20Z</time>
   </trkpt>
   <trkpt lat="51.8309310" lon="39.5200550">
    <ele>157.5</ele>
    <time>2017-01-22T08:45:22Z</time>
   </trkpt>
   <trkpt lat="51.8310710" lon="39.5192250">
    <ele>156.4</ele>
    <time>2017-01-22T08:45:33Z</time>
   </trkpt>
   <trkpt lat="51.8311100" lon="39.5190980">
    <ele>154.9</ele>
    <time>2017-01-22T08:45:35Z</time>
   </trkpt>
   <trkpt lat="51.8314320" lon="39.5184530">
    <ele>150.4</ele>
    <time>2017-01-22T08:45:48Z</time>
   </trkpt>
   <trkpt lat="51.8315530" lon="39.5178940">
    <ele>150.2</ele>
    <time>2017-01-22T08:45:57Z</time>
   </trkpt>
   <trkpt lat="51.8315640" lon="39.5178290">
    <ele>150.0</ele>
    <time>2017-01-22T08:45:58Z</time>
   </trkpt>
   <trkpt lat="51.8316020" lon="39.5176350">
    <ele>149.1</ele>
    <time>2017-01-22T08:46:01Z</time>
   </trkpt>
   <trkpt lat="51.8316150" lon="39.5175690">
    <ele>148.9</ele>
    <time>2017-01-22T08:46:02Z</time>
   </trkpt>
   <trkpt lat="51.8316640" lon="39.5172280">
    <ele>148.9</ele>
    <time>2017-01-22T08:46:07Z</time>
   </trkpt>
   <trkpt lat="51.8316790" lon="39.5171470">
    <ele>148.5</ele>
    <time>2017-01-22T08:46:08Z</time>
   </trkpt>
   <trkpt lat="51.8317350" lon="39.5168530">
    <ele>148.5</ele>
    <time>2017-01-22T08:46:12Z</time>
   </trkpt>
   <trkpt lat="51.8318920" lon="39.5160420">
    <ele>146.7</ele>
    <time>2017-01-22T08:46:23Z</time>
   </trkpt>
   <trkpt lat="51.8319080" lon="39.5159750">
    <ele>146.4</ele>
    <time>2017-01-22T08:46:24Z</time>
   </trkpt>
   <trkpt lat="51.8319370" lon="39.5158360">
    <ele>145.8</ele>
    <time>2017-01-22T08:46:26Z</time>
   </trkpt>
   <trkpt lat="51.8320910" lon="39.5151510">
    <ele>145.2</ele>
    <time>2017-01-22T08:46:36Z</time>
   </trkpt>
   <trkpt lat="51.8321600" lon="39.5147830">
    <ele>146.3</ele>
    <time>2017-01-22T08:46:42Z</time>
   </trkpt>
   <trkpt lat="51.8321730" lon="39.5147140">
    <ele>146.6</ele>
    <time>2017-01-22T08:46:43Z</time>
   </trkpt>
   <trkpt lat="51.8321840" lon="39.5146450">
    <ele>146.7</ele>
    <time>2017-01-22T08:46:44Z</time>
   </trkpt>
   <trkpt lat="51.8322090" lon="39.5144980">
    <ele>146.9</ele>
    <time>2017-01-22T08:46:46Z</time>
   </trkpt>
   <trkpt lat="51.8322280" lon="39.5144260">
    <ele>147.1</ele>
    <time>2017-01-22T08:46:47Z</time>
   </trkpt>
   <trkpt lat="51.8322480" lon="39.5143590">
    <ele>147.3</ele>
    <time>2017-01-22T08:46:48Z</time>
   </trkpt>
   <trkpt lat="51.8322690" lon="39.5142950">
    <ele>147.6</ele>
    <time>2017-01-22T08:46:49Z</time>
   </trkpt>
   <trkpt lat="51.8322860" lon="39.5142250">
    <ele>147.8</ele>
    <time>2017-01-22T08:46:50Z</time>
   </trkpt>
   <trkpt lat="51.8322990" lon="39.5141530">
    <ele>148.0</ele>
    <time>2017-01-22T08:46:51Z</time>
   </trkpt>
   <trkpt lat="51.8323140" lon="39.5140820">
    <ele>148.0</ele>
    <time>2017-01-22T08:46:52Z</time>
   </trkpt>
   <trkpt lat="51.8323250" lon="39.5140110">
    <ele>148.1</ele>
    <time>2017-01-22T08:46:53Z</time>
   </trkpt>
   <trkpt lat="51.8323350" lon="39.5139460">
    <ele>148.2</ele>
    <time>2017-01-22T08:46:54Z</time>
   </trkpt>
   <trkpt lat="51.8324770" lon="39.5131000">
    <ele>151.8</ele>
    <time>2017-01-22T08:47:06Z</time>
   </trkpt>
   <trkpt lat="51.8325280" lon="39.5128950">
    <ele>152.4</ele>
    <time>2017-01-22T08:47:09Z</time>
   </trkpt>
   <trkpt lat="51.8326560" lon="39.5121010">
    <ele>153.6</ele>
    <time>2017-01-22T08:47:20Z</time>
   </trkpt>
   <trkpt lat="51.8326700" lon="39.5120290">
    <ele>153.1</ele>
    <time>2017-01-22T08:47:21Z</time>
   </trkpt>
   <trkpt lat="51.8326810" lon="39.5119550">
    <ele>152.5</ele>
    <time>2017-01-22T08:47:22Z</time>
   </trkpt>
   <trkpt lat="51.8327190" lon="39.5115990">
    <ele>150.8</ele>
    <time>2017-01-22T08:47:27Z</time>
   </trkpt>
   <trkpt lat="51.8327420" lon="39.5114570">
    <ele>150.4</ele>
    <time>2017-01-22T08:47:29Z</time>
   </trkpt>
   <trkpt lat="51.8327560" lon="39.5113850">
    <ele>150.2</ele>
    <time>2017-01-22T08:47:30Z</time>
   </trkpt>
   <trkpt lat="51.8327630" lon="39.5113150">
    <ele>150.0</ele>
    <time>2017-01-22T08:47:31Z</time>
   </trkpt>
   <trkpt lat="51.8328320" lon="39.5110050">
    <ele>148.8</ele>
    <time>2017-01-22T08:47:36Z</time>
   </trkpt>
   <trkpt lat="51.8330240" lon="39.5102120">
    <ele>148.0</ele>
    <time>2017-01-22T08:47:48Z</time>
   </trkpt>
   <trkpt lat="51.8331400" lon="39.5094590">
    <ele>150.4</ele>
    <time>2017-01-22T08:48:00Z</time>
   </trkpt>
   <trkpt lat="51.8332470" lon="39.5088790">
    <ele>153.0</ele>
    <time>2017-01-22T08:48:07Z</time>
   </trkpt>
   <trkpt lat="51.8332950" lon="39.5086670">
    <ele>153.5</ele>
    <time>2017-01-22T08:48:10Z</time>
   </trkpt>
   <trkpt lat="51.8333110" lon="39.5085940">
    <ele>153.6</ele>
    <time>2017-01-22T08:48:11Z</time>
   </trkpt>
   <trkpt lat="51.8333400" lon="39.5083830">
    <ele>154.0</ele>
    <time>2017-01-22T08:48:14Z</time>
   </trkpt>
   <trkpt lat="51.8334560" lon="39.5077950">
    <ele>153.0</ele>
    <time>2017-01-22T08:48:24Z</time>
   </trkpt>
   <trkpt lat="51.8336130" lon="39.5069920">
    <ele>150.0</ele>
    <time>2017-01-22T08:48:36Z</time>
   </trkpt>
   <trkpt lat="51.8336550" lon="39.5068560">
    <ele>149.3</ele>
    <time>2017-01-22T08:48:38Z</time>
   </trkpt>
   <trkpt lat="51.8338950" lon="39.5064800">
    <ele>144.6</ele>
    <time>2017-01-22T08:48:48Z</time>
   </trkpt>
   <trkpt lat="51.8344050" lon="39.5066930">
    <ele>143.0</ele>
    <time>2017-01-22T08:49:01Z</time>
   </trkpt>
   <trkpt lat="51.8350260" lon="39.5070640">
    <ele>145.3</ele>
    <time>2017-01-22T08:49:16Z</time>
   </trkpt>
   <trkpt lat="51.8355960" lon="39.5072650">
    <ele>147.0</ele>
    <time>2017-01-22T08:49:30Z</time>
   </trkpt>
   <trkpt lat="51.8363230" lon="39.5076390">
    <ele>145.8</ele>
    <time>2017-01-22T08:49:47Z</time>
   </trkpt>
   <trkpt lat="51.8370560" lon="39.5079650">
    <ele>147.0</ele>
    <time>2017-01-22T08:50:05Z</time>
   </trkpt>
   <trkpt lat="51.8376100" lon="39.5082800">
    <ele>142.4</ele>
    <time>2017-01-22T08:50:20Z</time>
   </trkpt>
   <trkpt lat="51.8379610" lon="39.5085660">
    <ele>142.4</ele>
    <time>2017-01-22T08:50:28Z</time>
   </trkpt>
   <trkpt lat="51.8381440" lon="39.5086100">
    <ele>142.9</ele>
    <time>2017-01-22T08:50:32Z</time>
   </trkpt>
   <trkpt lat="51.8382670" lon="39.5085470">
    <ele>142.1</ele>
    <time>2017-01-22T08:50:35Z</time>
   </trkpt>
   <trkpt lat="51.8383070" lon="39.5085210">
    <ele>142.0</ele>
    <time>2017-01-22T08:50:36Z</time>
   </trkpt>
   <trkpt lat="51.8383480" lon="39.5084990">
    <ele>142.0</ele>
    <time>2017-01-22T08:50:37Z</time>
   </trkpt>
   <trkpt lat="51.8383890" lon="39.5084860">
    <ele>142.0</ele>
    <time>2017-01-22T08:50:38Z</time>
   </trkpt>
   <trkpt lat="51.8385210" lon="39.5085100">
    <ele>141.9</ele>
    <time>2017-01-22T08:50:41Z</time>
   </trkpt>
   <trkpt lat="51.8386850" lon="39.5086070">
    <ele>142.1</ele>
    <time>2017-01-22T08:50:45Z</time>
   </trkpt>
   <trkpt lat="51.8394130" lon="39.5089650">
    <ele>145.1</ele>
    <time>2017-01-22T08:51:04Z</time>
   </trkpt>
   <trkpt lat="51.8401810" lon="39.5093310">
    <ele>144.8</ele>
    <time>2017-01-22T08:51:23Z</time>
   </trkpt>
   <trkpt lat="51.8409280" lon="39.5097190">
    <ele>144.7</ele>
    <time>2017-01-22T08:51:42Z</time>
   </trkpt>
   <trkpt lat="51.8415340" lon="39.5100240">
    <ele>145.8</ele>
    <time>2017-01-22T08:52:01Z</time>
   </trkpt>
   <trkpt lat="51.8422020" lon="39.5103370">
    <ele>143.3</ele>
    <time>2017-01-22T08:52:17Z</time>
   </trkpt>
   <trkpt lat="51.8429020" lon="39.5105620">
    <ele>142.6</ele>
    <time>2017-01-22T08:52:36Z</time>
   </trkpt>
   <trkpt lat="51.8430570" lon="39.5099890">
    <ele>144.3</ele>
    <time>2017-01-22T08:52:48Z</time>
   </trkpt>
   <trkpt lat="51.8431110" lon="39.5097640">
    <ele>145.8</ele>
    <time>2017-01-22T08:52:52Z</time>
   </trkpt>
   <trkpt lat="51.8431330" lon="39.5097110">
    <ele>146.2</ele>
    <time>2017-01-22T08:52:53Z</time>
   </trkpt>
   <trkpt lat="51.8431590" lon="39.5096590">
    <ele>146.6</ele>
    <time>2017-01-22T08:52:54Z</time>
   </trkpt>
   <trkpt lat="51.8431760" lon="39.5096120">
    <ele>146.8</ele>
    <time>2017-01-22T08:52:55Z</time>
   </trkpt>
   <trkpt lat="51.8431910" lon="39.5095610">
    <ele>147.1</ele>
    <time>2017-01-22T08:52:56Z</time>
   </trkpt>
   <trkpt lat="51.8432100" lon="39.5095060">
    <ele>147.3</ele>
    <time>2017-01-22T08:52:57Z</time>
   </trkpt>
   <trkpt lat="51.8433480" lon="39.5088160">
    <ele>145.4</ele>
    <time>2017-01-22T08:53:08Z</time>
   </trkpt>
   <trkpt lat="51.8433610" lon="39.5087480">
    <ele>144.8</ele>
    <time>2017-01-22T08:53:09Z</time>
   </trkpt>
   <trkpt lat="51.8434370" lon="39.5082750">
    <ele>142.6</ele>
    <time>2017-01-22T08:53:16Z</time>
   </trkpt>
   <trkpt lat="51.8434490" lon="39.5082060">
    <ele>142.9</ele>
    <time>2017-01-22T08:53:17Z</time>
   </trkpt>
   <trkpt lat="51.8436270" lon="39.5073290">
    <ele>146.8</ele>
    <time>2017-01-22T08:53:30Z</time>
   </trkpt>
   <trkpt lat="51.8436690" lon="39.5071230">
    <ele>146.4</ele>
    <time>2017-01-22T08:53:33Z</time>
   </trkpt>
   <trkpt lat="51.8437380" lon="39.5067560">
    <ele>145.1</ele>
    <time>2017-01-22T08:53:38Z</time>
   </trkpt>
   <trkpt lat="51.8437560" lon="39.5066760">
    <ele>144.9</ele>
    <time>2017-01-22T08:53:39Z</time>
   </trkpt>
   <trkpt lat="51.8437690" lon="39.5066000">
    <ele>144.7</ele>
    <time>2017-01-22T08:53:40Z</time>
   </trkpt>
   <trkpt lat="51.8438260" lon="39.5063880">
    <ele>144.3</ele>
    <time>2017-01-22T08:53:43Z</time>
   </trkpt>
   <trkpt lat="51.8438410" lon="39.5063190">
    <ele>144.1</ele>
    <time>2017-01-22T08:53:44Z</time>
   </trkpt>
   <trkpt lat="51.8438560" lon="39.5062540">
    <ele>143.9</ele>
    <time>2017-01-22T08:53:45Z</time>
   </trkpt>
   <trkpt lat="51.8438620" lon="39.5061870">
    <ele>143.7</ele>
    <time>2017-01-22T08:53:46Z</time>
   </trkpt>
   <trkpt lat="51.8438700" lon="39.5061240">
    <ele>143.4</ele>
    <time>2017-01-22T08:53:47Z</time>
   </trkpt>
   <trkpt lat="51.8438810" lon="39.5060670">
    <ele>143.2</ele>
    <time>2017-01-22T08:53:48Z</time>
   </trkpt>
   <trkpt lat="51.8438890" lon="39.5060040">
    <ele>143.0</ele>
    <time>2017-01-22T08:53:49Z</time>
   </trkpt>
   <trkpt lat="51.8438990" lon="39.5059470">
    <ele>142.8</ele>
    <time>2017-01-22T08:53:50Z</time>
   </trkpt>
   <trkpt lat="51.8439860" lon="39.5055260">
    <ele>142.1</ele>
    <time>2017-01-22T08:53:56Z</time>
   </trkpt>
   <trkpt lat="51.8440010" lon="39.5054560">
    <ele>141.8</ele>
    <time>2017-01-22T08:53:57Z</time>
   </trkpt>
   <trkpt lat="51.8440200" lon="39.5053770">
    <ele>141.6</ele>
    <time>2017-01-22T08:53:58Z</time>
   </trkpt>
   <trkpt lat="51.8440420" lon="39.5052910">
    <ele>141.4</ele>
    <time>2017-01-22T08:53:59Z</time>
   </trkpt>
   <trkpt lat="51.8440590" lon="39.5052130">
    <ele>141.4</ele>
    <time>2017-01-22T08:54:00Z</time>
   </trkpt>
   <trkpt lat="51.8440730" lon="39.5051390">
    <ele>141.5</ele>
    <time>2017-01-22T08:54:01Z</time>
   </trkpt>
   <trkpt lat="51.8440950" lon="39.5049970">
    <ele>141.8</ele>
    <time>2017-01-22T08:54:03Z</time>
   </trkpt>
   <trkpt lat="51.8441030" lon="39.5049280">
    <ele>142.0</ele>
    <time>2017-01-22T08:54:04Z</time>
   </trkpt>
   <trkpt lat="51.8441170" lon="39.5048600">
    <ele>142.2</ele>
    <time>2017-01-22T08:54:05Z</time>
   </trkpt>
   <trkpt lat="51.8441220" lon="39.5047910">
    <ele>142.3</ele>
    <time>2017-01-22T08:54:06Z</time>
   </trkpt>
   <trkpt lat="51.8441320" lon="39.5047170">
    <ele>142.4</ele>
    <time>2017-01-22T08:54:07Z</time>
   </trkpt>
   <trkpt lat="51.8441420" lon="39.5046440">
    <ele>142.4</ele>
    <time>2017-01-22T08:54:08Z</time>
   </trkpt>
   <trkpt lat="51.8441510" lon="39.5045750">
    <ele>142.4</ele>
    <time>2017-01-22T08:54:09Z</time>
   </trkpt>
   <trkpt lat="51.8441640" lon="39.5045040">
    <ele>142.7</ele>
    <time>2017-01-22T08:54:10Z</time>
   </trkpt>
   <trkpt lat="51.8441800" lon="39.5044340">
    <ele>143.0</ele>
    <time>2017-01-22T08:54:11Z</time>
   </trkpt>
   <trkpt lat="51.8441980" lon="39.5043630">
    <ele>143.7</ele>
    <time>2017-01-22T08:54:12Z</time>
   </trkpt>
   <trkpt lat="51.8443280" lon="39.5037260">
    <ele>147.5</ele>
    <time>2017-01-22T08:54:22Z</time>
   </trkpt>
   <trkpt lat="51.8443460" lon="39.5035870">
    <ele>148.3</ele>
    <time>2017-01-22T08:54:24Z</time>
   </trkpt>
   <trkpt lat="51.8443600" lon="39.5035200">
    <ele>148.6</ele>
    <time>2017-01-22T08:54:25Z</time>
   </trkpt>
   <trkpt lat="51.8443750" lon="39.5034430">
    <ele>148.8</ele>
    <time>2017-01-22T08:54:26Z</time>
   </trkpt>
   <trkpt lat="51.8443890" lon="39.5033650">
    <ele>148.8</ele>
    <time>2017-01-22T08:54:27Z</time>
   </trkpt>
   <trkpt lat="51.8444010" lon="39.5032880">
    <ele>148.8</ele>
    <time>2017-01-22T08:54:28Z</time>
   </trkpt>
   <trkpt lat="51.8444660" lon="39.5028900">
    <ele>148.1</ele>
    <time>2017-01-22T08:54:33Z</time>
   </trkpt>
   <trkpt lat="51.8444860" lon="39.5028090">
    <ele>148.2</ele>
    <time>2017-01-22T08:54:34Z</time>
   </trkpt>
   <trkpt lat="51.8446540" lon="39.5019930">
    <ele>149.0</ele>
    <time>2017-01-22T08:54:45Z</time>
   </trkpt>
   <trkpt lat="51.8447710" lon="39.5014170">
    <ele>149.8</ele>
    <time>2017-01-22T08:54:53Z</time>
   </trkpt>
   <trkpt lat="51.8447830" lon="39.5013410">
    <ele>149.9</ele>
    <time>2017-01-22T08:54:54Z</time>
   </trkpt>
   <trkpt lat="51.8449710" lon="39.5002140">
    <ele>147.9</ele>
    <time>2017-01-22T08:55:10Z</time>
   </trkpt>
   <trkpt lat="51.8452270" lon="39.4988430">
    <ele>147.1</ele>
    <time>2017-01-22T08:55:29Z</time>
   </trkpt>
   <trkpt lat="51.8453090" lon="39.4985000">
    <ele>143.9</ele>
    <time>2017-01-22T08:55:34Z</time>
   </trkpt>
   <trkpt lat="51.8455240" lon="39.4972870">
    <ele>141.1</ele>
    <time>2017-01-22T08:55:51Z</time>
   </trkpt>
   <trkpt lat="51.8456970" lon="39.4964830">
    <ele>142.5</ele>
    <time>2017-01-22T08:56:03Z</time>
   </trkpt>
   <trkpt lat="51.8458990" lon="39.4953570">
    <ele>145.2</ele>
    <time>2017-01-22T08:56:20Z</time>
   </trkpt>
   <trkpt lat="51.8460520" lon="39.4945730">
    <ele>148.3</ele>
    <time>2017-01-22T08:56:32Z</time>
   </trkpt>
   <trkpt lat="51.8462310" lon="39.4937360">
    <ele>150.7</ele>
    <time>2017-01-22T08:56:44Z</time>
   </trkpt>
   <trkpt lat="51.8463130" lon="39.4931800">
    <ele>150.3</ele>
    <time>2017-01-22T08:56:52Z</time>
   </trkpt>
   <trkpt lat="51.8463260" lon="39.4931130">
    <ele>150.2</ele>
    <time>2017-01-22T08:56:53Z</time>
   </trkpt>
   <trkpt lat="51.8463400" lon="39.4930440">
    <ele>150.0</ele>
    <time>2017-01-22T08:56:54Z</time>
   </trkpt>
   <trkpt lat="51.8463550" lon="39.4929730">
    <ele>149.9</ele>
    <time>2017-01-22T08:56:55Z</time>
   </trkpt>
   <trkpt lat="51.8463690" lon="39.4929030">
    <ele>149.6</ele>
    <time>2017-01-22T08:56:56Z</time>
   </trkpt>
   <trkpt lat="51.8465650" lon="39.4920210">
    <ele>145.7</ele>
    <time>2017-01-22T08:57:09Z</time>
   </trkpt>
   <trkpt lat="51.8466120" lon="39.4916650">
    <ele>144.9</ele>
    <time>2017-01-22T08:57:14Z</time>
   </trkpt>
   <trkpt lat="51.8467070" lon="39.4911250">
    <ele>147.4</ele>
    <time>2017-01-22T08:57:22Z</time>
   </trkpt>
   <trkpt lat="51.8469170" lon="39.4900280">
    <ele>148.3</ele>
    <time>2017-01-22T08:57:38Z</time>
   </trkpt>
   <trkpt lat="51.8470020" lon="39.4895870">
    <ele>146.2</ele>
    <time>2017-01-22T08:57:45Z</time>
   </trkpt>
   <trkpt lat="51.8470140" lon="39.4895250">
    <ele>145.9</ele>
    <time>2017-01-22T08:57:46Z</time>
   </trkpt>
   <trkpt lat="51.8472200" lon="39.4884880">
    <ele>141.5</ele>
    <time>2017-01-22T08:58:02Z</time>
   </trkpt>
   <trkpt lat="51.8473660" lon="39.4877240">
    <ele>141.0</ele>
    <time>2017-01-22T08:58:15Z</time>
   </trkpt>
   <trkpt lat="51.8475110" lon="39.4868350">
    <ele>134.4</ele>
    <time>2017-01-22T08:58:29Z</time>
   </trkpt>
   <trkpt lat="51.8477000" lon="39.4858160">
    <ele>132.7</ele>
    <time>2017-01-22T08:58:45Z</time>
   </trkpt>
   <trkpt lat="51.8478630" lon="39.4849590">
    <ele>132.8</ele>
    <time>2017-01-22T08:58:58Z</time>
   </trkpt>
   <trkpt lat="51.8481050" lon="39.4836780">
    <ele>137.1</ele>
    <time>2017-01-22T08:59:17Z</time>
   </trkpt>
   <trkpt lat="51.8481590" lon="39.4833950">
    <ele>139.0</ele>
    <time>2017-01-22T08:59:21Z</time>
   </trkpt>
   <trkpt lat="51.8483480" lon="39.4823650">
    <ele>140.6</ele>
    <time>2017-01-22T08:59:36Z</time>
   </trkpt>
   <trkpt lat="51.8485070" lon="39.4814160">
    <ele>138.5</ele>
    <time>2017-01-22T08:59:51Z</time>
   </trkpt>
   <trkpt lat="51.8487280" lon="39.4813160">
    <ele>136.6</ele>
    <time>2017-01-22T08:59:59Z</time>
   </trkpt>
   <trkpt lat="51.8494280" lon="39.4816730">
    <ele>133.5</ele>
    <time>2017-01-22T09:00:15Z</time>
   </trkpt>
   <trkpt lat="51.8501570" lon="39.4820190">
    <ele>132.2</ele>
    <time>2017-01-22T09:00:31Z</time>
   </trkpt>
   <trkpt lat="51.8507990" lon="39.4823350">
    <ele>131.2</ele>
    <time>2017-01-22T09:00:46Z</time>
   </trkpt>
   <trkpt lat="51.8514100" lon="39.4826360">
    <ele>133.0</ele>
    <time>2017-01-22T09:01:00Z</time>
   </trkpt>
   <trkpt lat="51.8519440" lon="39.4828250">
    <ele>132.0</ele>
    <time>2017-01-22T09:01:14Z</time>
   </trkpt>
   <trkpt lat="51.8520260" lon="39.4826540">
    <ele>130.6</ele>
    <time>2017-01-22T09:01:18Z</time>
   </trkpt>
   <trkpt lat="51.8520370" lon="39.4825170">
    <ele>129.4</ele>
    <time>2017-01-22T09:01:20Z</time>
   </trkpt>
   <trkpt lat="51.8520340" lon="39.4823680">
    <ele>128.4</ele>
    <time>2017-01-22T09:01:22Z</time>
   </trkpt>
   <trkpt lat="51.8520250" lon="39.4823050">
    <ele>128.0</ele>
    <time>2017-01-22T09:01:23Z</time>
   </trkpt>
   <trkpt lat="51.8520180" lon="39.4822400">
    <ele>127.7</ele>
    <time>2017-01-22T09:01:24Z</time>
   </trkpt>
   <trkpt lat="51.8520120" lon="39.4821720">
    <ele>127.4</ele>
    <time>2017-01-22T09:01:25Z</time>
   </trkpt>
   <trkpt lat="51.8520000" lon="39.4820970">
    <ele>127.3</ele>
    <time>2017-01-22T09:01:26Z</time>
   </trkpt>
   <trkpt lat="51.8519570" lon="39.4817950">
    <ele>127.6</ele>
    <time>2017-01-22T09:01:30Z</time>
   </trkpt>
   <trkpt lat="51.8519510" lon="39.4816500">
    <ele>127.3</ele>
    <time>2017-01-22T09:01:32Z</time>
   </trkpt>
   <trkpt lat="51.8519540" lon="39.4815810">
    <ele>127.0</ele>
    <time>2017-01-22T09:01:33Z</time>
   </trkpt>
   <trkpt lat="51.8520110" lon="39.4812510">
    <ele>126.2</ele>
    <time>2017-01-22T09:01:38Z</time>
   </trkpt>
   <trkpt lat="51.8520520" lon="39.4810200">
    <ele>125.5</ele>
    <time>2017-01-22T09:01:41Z</time>
   </trkpt>
   <trkpt lat="51.8520670" lon="39.4809440">
    <ele>125.1</ele>
    <time>2017-01-22T09:01:42Z</time>
   </trkpt>
   <trkpt lat="51.8521040" lon="39.4807880">
    <ele>124.1</ele>
    <time>2017-01-22T09:01:44Z</time>
   </trkpt>
   <trkpt lat="51.8521170" lon="39.4807070">
    <ele>123.8</ele>
    <time>2017-01-22T09:01:45Z</time>
   </trkpt>
   <trkpt lat="51.8521320" lon="39.4806300">
    <ele>123.7</ele>
    <time>2017-01-22T09:01:46Z</time>
   </trkpt>
   <trkpt lat="51.8521510" lon="39.4805560">
    <ele>123.6</ele>
    <time>2017-01-22T09:01:47Z</time>
   </trkpt>
   <trkpt lat="51.8521730" lon="39.4804810">
    <ele>123.7</ele>
    <time>2017-01-22T09:01:48Z</time>
   </trkpt>
   <trkpt lat="51.8521890" lon="39.4804060">
    <ele>123.8</ele>
    <time>2017-01-22T09:01:49Z</time>
   </trkpt>
   <trkpt lat="51.8522380" lon="39.4801790">
    <ele>123.5</ele>
    <time>2017-01-22T09:01:52Z</time>
   </trkpt>
   <trkpt lat="51.8522650" lon="39.4800330">
    <ele>123.5</ele>
    <time>2017-01-22T09:01:54Z</time>
   </trkpt>
   <trkpt lat="51.8522730" lon="39.4799630">
    <ele>123.7</ele>
    <time>2017-01-22T09:01:55Z</time>
   </trkpt>
   <trkpt lat="51.8523180" lon="39.4795600">
    <ele>124.3</ele>
    <time>2017-01-22T09:02:01Z</time>
   </trkpt>
   <trkpt lat="51.8523540" lon="39.4793370">
    <ele>124.1</ele>
    <time>2017-01-22T09:02:04Z</time>
   </trkpt>
   <trkpt lat="51.8523800" lon="39.4786270">
    <ele>124.0</ele>
    <time>2017-01-22T09:02:14Z</time>
   </trkpt>
   <trkpt lat="51.8525450" lon="39.4773580">
    <ele>121.7</ele>
    <time>2017-01-22T09:02:33Z</time>
   </trkpt>
   <trkpt lat="51.8529480" lon="39.4763490">
    <ele>121.6</ele>
    <time>2017-01-22T09:02:51Z</time>
   </trkpt>
   <trkpt lat="51.8534950" lon="39.4752200">
    <ele>121.9</ele>
    <time>2017-01-22T09:03:10Z</time>
   </trkpt>
   <trkpt lat="51.8537850" lon="39.4744350">
    <ele>120.0</ele>
    <time>2017-01-22T09:03:22Z</time>
   </trkpt>
   <trkpt lat="51.8537980" lon="39.4743710">
    <ele>120.1</ele>
    <time>2017-01-22T09:03:23Z</time>
   </trkpt>
   <trkpt lat="51.8538690" lon="39.4734340">
    <ele>119.9</ele>
    <time>2017-01-22T09:03:36Z</time>
   </trkpt>
   <trkpt lat="51.8538350" lon="39.4730580">
    <ele>120.1</ele>
    <time>2017-01-22T09:03:41Z</time>
   </trkpt>
   <trkpt lat="51.8538340" lon="39.4729840">
    <ele>120.1</ele>
    <time>2017-01-22T09:03:42Z</time>
   </trkpt>
   <trkpt lat="51.8538590" lon="39.4720570">
    <ele>119.8</ele>
    <time>2017-01-22T09:03:54Z</time>
   </trkpt>
   <trkpt lat="51.8537350" lon="39.4713710">
    <ele>118.5</ele>
    <time>2017-01-22T09:04:04Z</time>
   </trkpt>
   <trkpt lat="51.8537220" lon="39.4712990">
    <ele>118.4</ele>
    <time>2017-01-22T09:04:05Z</time>
   </trkpt>
   <trkpt lat="51.8537090" lon="39.4712270">
    <ele>118.4</ele>
    <time>2017-01-22T09:04:06Z</time>
   </trkpt>
   <trkpt lat="51.8536920" lon="39.4710850">
    <ele>118.7</ele>
    <time>2017-01-22T09:04:08Z</time>
   </trkpt>
   <trkpt lat="51.8537160" lon="39.4699770">
    <ele>122.3</ele>
    <time>2017-01-22T09:04:23Z</time>
   </trkpt>
   <trkpt lat="51.8537260" lon="39.4697040">
    <ele>122.5</ele>
    <time>2017-01-22T09:04:27Z</time>
   </trkpt>
   <trkpt lat="51.8537900" lon="39.4688150">
    <ele>123.3</ele>
    <time>2017-01-22T09:04:38Z</time>
   </trkpt>
   <trkpt lat="51.8537960" lon="39.4687410">
    <ele>123.7</ele>
    <time>2017-01-22T09:04:39Z</time>
   </trkpt>
   <trkpt lat="51.8538030" lon="39.4686640">
    <ele>124.0</ele>
    <time>2017-01-22T09:04:40Z</time>
   </trkpt>
   <trkpt lat="51.8538070" lon="39.4685870">
    <ele>124.3</ele>
    <time>2017-01-22T09:04:41Z</time>
   </trkpt>
   <trkpt lat="51.8538090" lon="39.4685070">
    <ele>124.6</ele>
    <time>2017-01-22T09:04:42Z</time>
   </trkpt>
   <trkpt lat="51.8538260" lon="39.4681980">
    <ele>123.9</ele>
    <time>2017-01-22T09:04:46Z</time>
   </trkpt>
   <trkpt lat="51.8538320" lon="39.4681230">
    <ele>123.6</ele>
    <time>2017-01-22T09:04:47Z</time>
   </trkpt>
   <trkpt lat="51.8538500" lon="39.4676450">
    <ele>122.2</ele>
    <time>2017-01-22T09:04:53Z</time>
   </trkpt>
   <trkpt lat="51.8538450" lon="39.4674780">
    <ele>121.8</ele>
    <time>2017-01-22T09:04:55Z</time>
   </trkpt>
   <trkpt lat="51.8537470" lon="39.4666550">
    <ele>121.7</ele>
    <time>2017-01-22T09:05:06Z</time>
   </trkpt>
   <trkpt lat="51.8537420" lon="39.4665840">
    <ele>121.4</ele>
    <time>2017-01-22T09:05:07Z</time>
   </trkpt>
   <trkpt lat="51.8537290" lon="39.4662240">
    <ele>120.1</ele>
    <time>2017-01-22T09:05:12Z</time>
   </trkpt>
   <trkpt lat="51.8538060" lon="39.4654270">
    <ele>120.0</ele>
    <time>2017-01-22T09:05:23Z</time>
   </trkpt>
   <trkpt lat="51.8538200" lon="39.4653550">
    <ele>120.0</ele>
    <time>2017-01-22T09:05:24Z</time>
   </trkpt>
   <trkpt lat="51.8538320" lon="39.4652860">
    <ele>120.0</ele>
    <time>2017-01-22T09:05:25Z</time>
   </trkpt>
   <trkpt lat="51.8538490" lon="39.4652180">
    <ele>120.0</ele>
    <time>2017-01-22T09:05:26Z</time>
   </trkpt>
   <trkpt lat="51.8538670" lon="39.4651500">
    <ele>119.9</ele>
    <time>2017-01-22T09:05:27Z</time>
   </trkpt>
   <trkpt lat="51.8538840" lon="39.4650820">
    <ele>119.9</ele>
    <time>2017-01-22T09:05:28Z</time>
   </trkpt>
   <trkpt lat="51.8541160" lon="39.4641420">
    <ele>120.6</ele>
    <time>2017-01-22T09:05:42Z</time>
   </trkpt>
   <trkpt lat="51.8542370" lon="39.4630330">
    <ele>120.1</ele>
    <time>2017-01-22T09:05:58Z</time>
   </trkpt>
   <trkpt lat="51.8540310" lon="39.4617830">
    <ele>119.3</ele>
    <time>2017-01-22T09:06:15Z</time>
   </trkpt>
   <trkpt lat="51.8539560" lon="39.4613980">
    <ele>119.4</ele>
    <time>2017-01-22T09:06:20Z</time>
   </trkpt>
   <trkpt lat="51.8539410" lon="39.4613190">
    <ele>119.4</ele>
    <time>2017-01-22T09:06:21Z</time>
   </trkpt>
   <trkpt lat="51.8538210" lon="39.4604920">
    <ele>119.3</ele>
    <time>2017-01-22T09:06:32Z</time>
   </trkpt>
   <trkpt lat="51.8538210" lon="39.4604190">
    <ele>119.5</ele>
    <time>2017-01-22T09:06:33Z</time>
   </trkpt>
   <trkpt lat="51.8538250" lon="39.4603480">
    <ele>119.9</ele>
    <time>2017-01-22T09:06:34Z</time>
   </trkpt>
   <trkpt lat="51.8538320" lon="39.4602820">
    <ele>120.3</ele>
    <time>2017-01-22T09:06:35Z</time>
   </trkpt>
   <trkpt lat="51.8538460" lon="39.4602190">
    <ele>120.6</ele>
    <time>2017-01-22T09:06:36Z</time>
   </trkpt>
   <trkpt lat="51.8538640" lon="39.4601520">
    <ele>120.8</ele>
    <time>2017-01-22T09:06:37Z</time>
   </trkpt>
   <trkpt lat="51.8539120" lon="39.4599530">
    <ele>121.5</ele>
    <time>2017-01-22T09:06:40Z</time>
   </trkpt>
   <trkpt lat="51.8539240" lon="39.4598870">
    <ele>121.7</ele>
    <time>2017-01-22T09:06:41Z</time>
   </trkpt>
   <trkpt lat="51.8539360" lon="39.4598190">
    <ele>122.0</ele>
    <time>2017-01-22T09:06:42Z</time>
   </trkpt>
   <trkpt lat="51.8539890" lon="39.4595570">
    <ele>122.5</ele>
    <time>2017-01-22T09:06:46Z</time>
   </trkpt>
   <trkpt lat="51.8541230" lon="39.4588360">
    <ele>121.1</ele>
    <time>2017-01-22T09:06:58Z</time>
   </trkpt>
   <trkpt lat="51.8540540" lon="39.4584880">
    <ele>122.2</ele>
    <time>2017-01-22T09:07:08Z</time>
   </trkpt>
   <trkpt lat="51.8540540" lon="39.4584850">
    <ele>122.2</ele>
    <time>2017-01-22T09:07:09Z</time>
   </trkpt>
   <trkpt lat="51.8539670" lon="39.4583820">
    <ele>122.0</ele>
    <time>2017-01-22T09:23:23Z</time>
   </trkpt>
   <trkpt lat="51.8539560" lon="39.4583480">
    <ele>122.0</ele>
    <time>2017-01-22T09:23:24Z</time>
   </trkpt>
   <trkpt lat="51.8539430" lon="39.4583090">
    <ele>122.0</ele>
    <time>2017-01-22T09:23:25Z</time>
   </trkpt>
   <trkpt lat="51.8539320" lon="39.4582720">
    <ele>122.0</ele>
    <time>2017-01-22T09:23:26Z</time>
   </trkpt>
   <trkpt lat="51.8537630" lon="39.4576320">
    <ele>124.8</ele>
    <time>2017-01-22T09:23:41Z</time>
   </trkpt>
   <trkpt lat="51.8538320" lon="39.4569730">
    <ele>128.8</ele>
    <time>2017-01-22T09:23:53Z</time>
   </trkpt>
   <trkpt lat="51.8540230" lon="39.4563490">
    <ele>131.0</ele>
    <time>2017-01-22T09:24:05Z</time>
   </trkpt>
   <trkpt lat="51.8541580" lon="39.4556720">
    <ele>130.6</ele>
    <time>2017-01-22T09:24:17Z</time>
   </trkpt>
   <trkpt lat="51.8541690" lon="39.4556030">
    <ele>130.6</ele>
    <time>2017-01-22T09:24:18Z</time>
   </trkpt>
   <trkpt lat="51.8543130" lon="39.4549670">
    <ele>128.5</ele>
    <time>2017-01-22T09:24:29Z</time>
   </trkpt>
   <trkpt lat="51.8544050" lon="39.4543450">
    <ele>127.6</ele>
    <time>2017-01-22T09:24:40Z</time>
   </trkpt>
   <trkpt lat="51.8545610" lon="39.4536360">
    <ele>124.9</ele>
    <time>2017-01-22T09:24:52Z</time>
   </trkpt>
   <trkpt lat="51.8548210" lon="39.4530420">
    <ele>125.1</ele>
    <time>2017-01-22T09:25:04Z</time>
   </trkpt>
   <trkpt lat="51.8551310" lon="39.4525300">
    <ele>126.6</ele>
    <time>2017-01-22T09:25:16Z</time>
   </trkpt>
   <trkpt lat="51.8552480" lon="39.4522700">
    <ele>127.0</ele>
    <time>2017-01-22T09:25:28Z</time>
   </trkpt>
   <trkpt lat="51.8552370" lon="39.4522170">
    <ele>127.0</ele>
    <time>2017-01-22T09:25:31Z</time>
   </trkpt>
   <trkpt lat="51.8552280" lon="39.4521920">
    <ele>127.0</ele>
    <time>2017-01-22T09:25:32Z</time>
   </trkpt>
   <trkpt lat="51.8550190" lon="39.4519270">
    <ele>127.8</ele>
    <time>2017-01-22T09:25:42Z</time>
   </trkpt>
   <trkpt lat="51.8550200" lon="39.4517510">
    <ele>127.6</ele>
    <time>2017-01-22T09:25:45Z</time>
   </trkpt>
   <trkpt lat="51.8551070" lon="39.4514850">
    <ele>129.2</ele>
    <time>2017-01-22T09:25:49Z</time>
   </trkpt>
   <trkpt lat="51.8552410" lon="39.4513100">
    <ele>131.1</ele>
    <time>2017-01-22T09:25:53Z</time>
   </trkpt>
   <trkpt lat="51.8554940" lon="39.4510870">
    <ele>131.9</ele>
    <time>2017-01-22T09:26:04Z</time>
   </trkpt>
   <trkpt lat="51.8555780" lon="39.4504980">
    <ele>130.9</ele>
    <time>2017-01-22T09:26:15Z</time>
   </trkpt>
   <trkpt lat="51.8556030" lon="39.4497140">
    <ele>131.9</ele>
    <time>2017-01-22T09:26:29Z</time>
   </trkpt>
   <trkpt lat="51.8556100" lon="39.4492890">
    <ele>132.5</ele>
    <time>2017-01-22T09:26:35Z</time>
   </trkpt>
   <trkpt lat="51.8556120" lon="39.4481640">
    <ele>135.8</ele>
    <time>2017-01-22T09:26:51Z</time>
   </trkpt>
   <trkpt lat="51.8556490" lon="39.4474250">
    <ele>134.6</ele>
    <time>2017-01-22T09:27:03Z</time>
   </trkpt>
   <trkpt lat="51.8556770" lon="39.4469010">
    <ele>132.7</ele>
    <time>2017-01-22T09:27:10Z</time>
   </trkpt>
   <trkpt lat="51.8556940" lon="39.4463840">
    <ele>130.7</ele>
    <time>2017-01-22T09:27:17Z</time>
   </trkpt>
   <trkpt lat="51.8557280" lon="39.4456240">
    <ele>130.5</ele>
    <time>2017-01-22T09:27:29Z</time>
   </trkpt>
   <trkpt lat="51.8556990" lon="39.4447940">
    <ele>129.3</ele>
    <time>2017-01-22T09:27:41Z</time>
   </trkpt>
   <trkpt lat="51.8557100" lon="39.4439020">
    <ele>127.0</ele>
    <time>2017-01-22T09:27:54Z</time>
   </trkpt>
   <trkpt lat="51.8557270" lon="39.4435590">
    <ele>128.1</ele>
    <time>2017-01-22T09:27:59Z</time>
   </trkpt>
   <trkpt lat="51.8557480" lon="39.4425850">
    <ele>129.0</ele>
    <time>2017-01-22T09:28:13Z</time>
   </trkpt>
   <trkpt lat="51.8557550" lon="39.4423760">
    <ele>128.9</ele>
    <time>2017-01-22T09:28:16Z</time>
   </trkpt>
   <trkpt lat="51.8557500" lon="39.4420210">
    <ele>128.0</ele>
    <time>2017-01-22T09:28:21Z</time>
   </trkpt>
   <trkpt lat="51.8557660" lon="39.4413220">
    <ele>126.7</ele>
    <time>2017-01-22T09:28:31Z</time>
   </trkpt>
   <trkpt lat="51.8557780" lon="39.4408360">
    <ele>125.9</ele>
    <time>2017-01-22T09:28:38Z</time>
   </trkpt>
   <trkpt lat="51.8558090" lon="39.4399650">
    <ele>124.9</ele>
    <time>2017-01-22T09:28:51Z</time>
   </trkpt>
   <trkpt lat="51.8558110" lon="39.4395900">
    <ele>126.3</ele>
    <time>2017-01-22T09:28:56Z</time>
   </trkpt>
   <trkpt lat="51.8558090" lon="39.4389390">
    <ele>126.8</ele>
    <time>2017-01-22T09:29:05Z</time>
   </trkpt>
   <trkpt lat="51.8558070" lon="39.4378320">
    <ele>130.6</ele>
    <time>2017-01-22T09:29:20Z</time>
   </trkpt>
   <trkpt lat="51.8558450" lon="39.4370600">
    <ele>130.4</ele>
    <time>2017-01-22T09:29:34Z</time>
   </trkpt>
   <trkpt lat="51.8558450" lon="39.4367190">
    <ele>129.0</ele>
    <time>2017-01-22T09:29:39Z</time>
   </trkpt>
   <trkpt lat="51.8558390" lon="39.4365010">
    <ele>128.8</ele>
    <time>2017-01-22T09:29:42Z</time>
   </trkpt>
   <trkpt lat="51.8558600" lon="39.4356200">
    <ele>129.8</ele>
    <time>2017-01-22T09:29:55Z</time>
   </trkpt>
   <trkpt lat="51.8558620" lon="39.4352040">
    <ele>129.7</ele>
    <time>2017-01-22T09:30:01Z</time>
   </trkpt>
   <trkpt lat="51.8558620" lon="39.4351320">
    <ele>129.7</ele>
    <time>2017-01-22T09:30:02Z</time>
   </trkpt>
   <trkpt lat="51.8558680" lon="39.4339210">
    <ele>130.6</ele>
    <time>2017-01-22T09:30:19Z</time>
   </trkpt>
   <trkpt lat="51.8559000" lon="39.4329440">
    <ele>131.5</ele>
    <time>2017-01-22T09:30:33Z</time>
   </trkpt>
   <trkpt lat="51.8559160" lon="39.4321150">
    <ele>130.0</ele>
    <time>2017-01-22T09:30:46Z</time>
   </trkpt>
   <trkpt lat="51.8557650" lon="39.4315890">
    <ele>130.2</ele>
    <time>2017-01-22T09:30:57Z</time>
   </trkpt>
   <trkpt lat="51.8552710" lon="39.4311210">
    <ele>129.9</ele>
    <time>2017-01-22T09:31:11Z</time>
   </trkpt>
   <trkpt lat="51.8548400" lon="39.4307270">
    <ele>129.2</ele>
    <time>2017-01-22T09:31:22Z</time>
   </trkpt>
   <trkpt lat="51.8546540" lon="39.4305620">
    <ele>128.8</ele>
    <time>2017-01-22T09:31:27Z</time>
   </trkpt>
   <trkpt lat="51.8543190" lon="39.4302960">
    <ele>126.3</ele>
    <time>2017-01-22T09:31:35Z</time>
   </trkpt>
   <trkpt lat="51.8536750" lon="39.4298830">
    <ele>123.7</ele>
    <time>2017-01-22T09:31:50Z</time>
   </trkpt>
   <trkpt lat="51.8534840" lon="39.4298030">
    <ele>124.9</ele>
    <time>2017-01-22T09:31:54Z</time>
   </trkpt>
   <trkpt lat="51.8528660" lon="39.4295720">
    <ele>125.3</ele>
    <time>2017-01-22T09:32:07Z</time>
   </trkpt>
   <trkpt lat="51.8522570" lon="39.4293490">
    <ele>122.6</ele>
    <time>2017-01-22T09:32:20Z</time>
   </trkpt>
   <trkpt lat="51.8516140" lon="39.4291190">
    <ele>122.0</ele>
    <time>2017-01-22T09:32:34Z</time>
   </trkpt>
   <trkpt lat="51.8511970" lon="39.4289470">
    <ele>123.4</ele>
    <time>2017-01-22T09:32:44Z</time>
   </trkpt>
   <trkpt lat="51.8505990" lon="39.4287450">
    <ele>123.7</ele>
    <time>2017-01-22T09:32:57Z</time>
   </trkpt>
   <trkpt lat="51.8504670" lon="39.4287060">
    <ele>123.4</ele>
    <time>2017-01-22T09:33:00Z</time>
   </trkpt>
   <trkpt lat="51.8498590" lon="39.4284810">
    <ele>122.8</ele>
    <time>2017-01-22T09:33:14Z</time>
   </trkpt>
   <trkpt lat="51.8492500" lon="39.4282370">
    <ele>122.7</ele>
    <time>2017-01-22T09:33:28Z</time>
   </trkpt>
   <trkpt lat="51.8487730" lon="39.4280380">
    <ele>121.8</ele>
    <time>2017-01-22T09:33:40Z</time>
   </trkpt>
   <trkpt lat="51.8483740" lon="39.4278400">
    <ele>122.4</ele>
    <time>2017-01-22T09:33:51Z</time>
   </trkpt>
   <trkpt lat="51.8478090" lon="39.4275610">
    <ele>123.3</ele>
    <time>2017-01-22T09:34:06Z</time>
   </trkpt>
   <trkpt lat="51.8472970" lon="39.4273000">
    <ele>122.0</ele>
    <time>2017-01-22T09:34:19Z</time>
   </trkpt>
   <trkpt lat="51.8467490" lon="39.4270420">
    <ele>121.3</ele>
    <time>2017-01-22T09:34:32Z</time>
   </trkpt>
   <trkpt lat="51.8464740" lon="39.4268530">
    <ele>120.4</ele>
    <time>2017-01-22T09:34:39Z</time>
   </trkpt>
   <trkpt lat="51.8464240" lon="39.4264960">
    <ele>119.4</ele>
    <time>2017-01-22T09:34:45Z</time>
   </trkpt>
   <trkpt lat="51.8464710" lon="39.4253920">
    <ele>121.1</ele>
    <time>2017-01-22T09:35:00Z</time>
   </trkpt>
   <trkpt lat="51.8464760" lon="39.4243720">
    <ele>121.3</ele>
    <time>2017-01-22T09:35:12Z</time>
   </trkpt>
   <trkpt lat="51.8464790" lon="39.4241970">
    <ele>120.6</ele>
    <time>2017-01-22T09:35:15Z</time>
   </trkpt>
   <trkpt lat="51.8464880" lon="39.4240660">
    <ele>119.9</ele>
    <time>2017-01-22T09:35:17Z</time>
   </trkpt>
   <trkpt lat="51.8464890" lon="39.4235390">
    <ele>120.5</ele>
    <time>2017-01-22T09:35:23Z</time>
   </trkpt>
   <trkpt lat="51.8464830" lon="39.4230290">
    <ele>121.8</ele>
    <time>2017-01-22T09:35:29Z</time>
   </trkpt>
   <trkpt lat="51.8465020" lon="39.4221160">
    <ele>123.6</ele>
    <time>2017-01-22T09:35:42Z</time>
   </trkpt>
   <trkpt lat="51.8464890" lon="39.4215110">
    <ele>122.7</ele>
    <time>2017-01-22T09:35:53Z</time>
   </trkpt>
   <trkpt lat="51.8464920" lon="39.4205720">
    <ele>119.8</ele>
    <time>2017-01-22T09:36:09Z</time>
   </trkpt>
   <trkpt lat="51.8464880" lon="39.4197140">
    <ele>117.6</ele>
    <time>2017-01-22T09:36:22Z</time>
   </trkpt>
   <trkpt lat="51.8465070" lon="39.4190880">
    <ele>119.0</ele>
    <time>2017-01-22T09:36:33Z</time>
   </trkpt>
   <trkpt lat="51.8465190" lon="39.4188020">
    <ele>119.8</ele>
    <time>2017-01-22T09:36:37Z</time>
   </trkpt>
   <trkpt lat="51.8464890" lon="39.4180610">
    <ele>121.8</ele>
    <time>2017-01-22T09:36:50Z</time>
   </trkpt>
   <trkpt lat="51.8465360" lon="39.4173660">
    <ele>122.5</ele>
    <time>2017-01-22T09:37:01Z</time>
   </trkpt>
   <trkpt lat="51.8465400" lon="39.4165960">
    <ele>124.0</ele>
    <time>2017-01-22T09:37:13Z</time>
   </trkpt>
   <trkpt lat="51.8465520" lon="39.4161770">
    <ele>125.6</ele>
    <time>2017-01-22T09:37:19Z</time>
   </trkpt>
   <trkpt lat="51.8465570" lon="39.4160300">
    <ele>126.0</ele>
    <time>2017-01-22T09:37:21Z</time>
   </trkpt>
   <trkpt lat="51.8465630" lon="39.4157100">
    <ele>126.8</ele>
    <time>2017-01-22T09:37:25Z</time>
   </trkpt>
   <trkpt lat="51.8465630" lon="39.4151390">
    <ele>126.5</ele>
    <time>2017-01-22T09:37:33Z</time>
   </trkpt>
   <trkpt lat="51.8465860" lon="39.4142660">
    <ele>127.6</ele>
    <time>2017-01-22T09:37:45Z</time>
   </trkpt>
   <trkpt lat="51.8466060" lon="39.4139120">
    <ele>127.6</ele>
    <time>2017-01-22T09:37:50Z</time>
   </trkpt>
   <trkpt lat="51.8466020" lon="39.4129460">
    <ele>123.3</ele>
    <time>2017-01-22T09:38:04Z</time>
   </trkpt>
   <trkpt lat="51.8465950" lon="39.4123150">
    <ele>124.5</ele>
    <time>2017-01-22T09:38:16Z</time>
   </trkpt>
   <trkpt lat="51.8465530" lon="39.4118560">
    <ele>125.7</ele>
    <time>2017-01-22T09:38:25Z</time>
   </trkpt>
   <trkpt lat="51.8466010" lon="39.4110390">
    <ele>126.8</ele>
    <time>2017-01-22T09:38:38Z</time>
   </trkpt>
   <trkpt lat="51.8466190" lon="39.4103130">
    <ele>128.6</ele>
    <time>2017-01-22T09:38:50Z</time>
   </trkpt>
   <trkpt lat="51.8465850" lon="39.4097480">
    <ele>129.5</ele>
    <time>2017-01-22T09:39:00Z</time>
   </trkpt>
   <trkpt lat="51.8466160" lon="39.4090630">
    <ele>128.1</ele>
    <time>2017-01-22T09:39:12Z</time>
   </trkpt>
   <trkpt lat="51.8466410" lon="39.4084940">
    <ele>124.7</ele>
    <time>2017-01-22T09:39:24Z</time>
   </trkpt>
   <trkpt lat="51.8466710" lon="39.4077900">
    <ele>124.3</ele>
    <time>2017-01-22T09:39:38Z</time>
   </trkpt>
   <trkpt lat="51.8466890" lon="39.4069370">
    <ele>125.3</ele>
    <time>2017-01-22T09:39:50Z</time>
   </trkpt>
   <trkpt lat="51.8466920" lon="39.4062350">
    <ele>125.4</ele>
    <time>2017-01-22T09:40:01Z</time>
   </trkpt>
   <trkpt lat="51.8467220" lon="39.4056450">
    <ele>124.3</ele>
    <time>2017-01-22T09:40:12Z</time>
   </trkpt>
   <trkpt lat="51.8467120" lon="39.4047850">
    <ele>122.3</ele>
    <time>2017-01-22T09:40:27Z</time>
   </trkpt>
   <trkpt lat="51.8467210" lon="39.4041930">
    <ele>123.1</ele>
    <time>2017-01-22T09:40:38Z</time>
   </trkpt>
   <trkpt lat="51.8467310" lon="39.4039950">
    <ele>123.6</ele>
    <time>2017-01-22T09:40:41Z</time>
   </trkpt>
   <trkpt lat="51.8467420" lon="39.4037150">
    <ele>124.6</ele>
    <time>2017-01-22T09:40:44Z</time>
   </trkpt>
   <trkpt lat="51.8467730" lon="39.4033470">
    <ele>125.5</ele>
    <time>2017-01-22T09:40:48Z</time>
   </trkpt>
   <trkpt lat="51.8468010" lon="39.4024820">
    <ele>125.9</ele>
    <time>2017-01-22T09:41:01Z</time>
   </trkpt>
   <trkpt lat="51.8466900" lon="39.4017380">
    <ele>124.4</ele>
    <time>2017-01-22T09:41:14Z</time>
   </trkpt>
   <trkpt lat="51.8466370" lon="39.4012020">
    <ele>123.1</ele>
    <time>2017-01-22T09:41:25Z</time>
   </trkpt>
   <trkpt lat="51.8467930" lon="39.4005330">
    <ele>124.5</ele>
    <time>2017-01-22T09:41:39Z</time>
   </trkpt>
   <trkpt lat="51.8468060" lon="39.3999270">
    <ele>125.0</ele>
    <time>2017-01-22T09:41:51Z</time>
   </trkpt>
   <trkpt lat="51.8468190" lon="39.3995150">
    <ele>124.0</ele>
    <time>2017-01-22T09:41:58Z</time>
   </trkpt>
   <trkpt lat="51.8468360" lon="39.3993790">
    <ele>123.8</ele>
    <time>2017-01-22T09:42:00Z</time>
   </trkpt>
   <trkpt lat="51.8468520" lon="39.3989610">
    <ele>122.4</ele>
    <time>2017-01-22T09:42:06Z</time>
   </trkpt>
   <trkpt lat="51.8468520" lon="39.3989110">
    <ele>122.3</ele>
    <time>2017-01-22T09:42:07Z</time>
   </trkpt>
   <trkpt lat="51.8468570" lon="39.3982500">
    <ele>121.0</ele>
    <time>2017-01-22T09:42:19Z</time>
   </trkpt>
   <trkpt lat="51.8468910" lon="39.3975000">
    <ele>118.2</ele>
    <time>2017-01-22T09:42:31Z</time>
   </trkpt>
   <trkpt lat="51.8468830" lon="39.3969450">
    <ele>117.3</ele>
    <time>2017-01-22T09:42:40Z</time>
   </trkpt>
   <trkpt lat="51.8468770" lon="39.3963090">
    <ele>118.6</ele>
    <time>2017-01-22T09:42:52Z</time>
   </trkpt>
   <trkpt lat="51.8468930" lon="39.3957200">
    <ele>118.2</ele>
    <time>2017-01-22T09:43:00Z</time>
   </trkpt>
   <trkpt lat="51.8468840" lon="39.3955870">
    <ele>118.3</ele>
    <time>2017-01-22T09:43:02Z</time>
   </trkpt>
   <trkpt lat="51.8468910" lon="39.3949650">
    <ele>118.1</ele>
    <time>2017-01-22T09:43:14Z</time>
   </trkpt>
   <trkpt lat="51.8469190" lon="39.3942570">
    <ele>117.2</ele>
    <time>2017-01-22T09:43:25Z</time>
   </trkpt>
   <trkpt lat="51.8469480" lon="39.3935880">
    <ele>116.1</ele>
    <time>2017-01-22T09:43:36Z</time>
   </trkpt>
   <trkpt lat="51.8469570" lon="39.3928870">
    <ele>114.5</ele>
    <time>2017-01-22T09:43:48Z</time>
   </trkpt>
   <trkpt lat="51.8468760" lon="39.3927590">
    <ele>115.2</ele>
    <time>2017-01-22T09:43:53Z</time>
   </trkpt>
   <trkpt lat="51.8468120" lon="39.3926940">
    <ele>115.7</ele>
    <time>2017-01-22T09:44:02Z</time>
   </trkpt>
   <trkpt lat="51.8467460" lon="39.3927060">
    <ele>116.1</ele>
    <time>2017-01-22T09:44:06Z</time>
   </trkpt>
   <trkpt lat="51.8464010" lon="39.3925180">
    <ele>117.2</ele>
    <time>2017-01-22T09:44:21Z</time>
   </trkpt>
   <trkpt lat="51.8459990" lon="39.3925580">
    <ele>116.7</ele>
    <time>2017-01-22T09:44:34Z</time>
   </trkpt>
   <trkpt lat="51.8455780" lon="39.3926880">
    <ele>115.2</ele>
    <time>2017-01-22T09:44:48Z</time>
   </trkpt>
   <trkpt lat="51.8450610" lon="39.3927020">
    <ele>109.3</ele>
    <time>2017-01-22T09:45:02Z</time>
   </trkpt>
   <trkpt lat="51.8447510" lon="39.3927800">
    <ele>106.6</ele>
    <time>2017-01-22T09:45:09Z</time>
   </trkpt>
   <trkpt lat="51.8447080" lon="39.3927820">
    <ele>106.3</ele>
    <time>2017-01-22T09:45:10Z</time>
   </trkpt>
   <trkpt lat="51.8446690" lon="39.3927930">
    <ele>106.0</ele>
    <time>2017-01-22T09:45:11Z</time>
   </trkpt>
   <trkpt lat="51.8446270" lon="39.3928110">
    <ele>105.8</ele>
    <time>2017-01-22T09:45:12Z</time>
   </trkpt>
   <trkpt lat="51.8445870" lon="39.3928300">
    <ele>105.8</ele>
    <time>2017-01-22T09:45:13Z</time>
   </trkpt>
   <trkpt lat="51.8445470" lon="39.3928450">
    <ele>105.7</ele>
    <time>2017-01-22T09:45:14Z</time>
   </trkpt>
   <trkpt lat="51.8445040" lon="39.3928580">
    <ele>106.0</ele>
    <time>2017-01-22T09:45:15Z</time>
   </trkpt>
   <trkpt lat="51.8441050" lon="39.3929730">
    <ele>111.1</ele>
    <time>2017-01-22T09:45:25Z</time>
   </trkpt>
   <trkpt lat="51.8436460" lon="39.3930670">
    <ele>114.8</ele>
    <time>2017-01-22T09:45:36Z</time>
   </trkpt>
   <trkpt lat="51.8430950" lon="39.3930330">
    <ele>115.2</ele>
    <time>2017-01-22T09:45:49Z</time>
   </trkpt>
   <trkpt lat="51.8427720" lon="39.3928400">
    <ele>114.8</ele>
    <time>2017-01-22T09:45:58Z</time>
   </trkpt>
   <trkpt lat="51.8421690" lon="39.3925460">
    <ele>112.5</ele>
    <time>2017-01-22T09:46:10Z</time>
   </trkpt>
   <trkpt lat="51.8420470" lon="39.3924280">
    <ele>112.8</ele>
    <time>2017-01-22T09:46:13Z</time>
   </trkpt>
   <trkpt lat="51.8419750" lon="39.3923180">
    <ele>113.1</ele>
    <time>2017-01-22T09:46:15Z</time>
   </trkpt>
   <trkpt lat="51.8418330" lon="39.3920400">
    <ele>113.5</ele>
    <time>2017-01-22T09:46:19Z</time>
   </trkpt>
   <trkpt lat="51.8414140" lon="39.3914490">
    <ele>109.6</ele>
    <time>2017-01-22T09:46:30Z</time>
   </trkpt>
   <trkpt lat="51.8413740" lon="39.3914110">
    <ele>109.5</ele>
    <time>2017-01-22T09:46:31Z</time>
   </trkpt>
   <trkpt lat="51.8413340" lon="39.3913770">
    <ele>109.7</ele>
    <time>2017-01-22T09:46:32Z</time>
   </trkpt>
   <trkpt lat="51.8412920" lon="39.3913470">
    <ele>109.8</ele>
    <time>2017-01-22T09:46:33Z</time>
   </trkpt>
   <trkpt lat="51.8411940" lon="39.3913080">
    <ele>109.7</ele>
    <time>2017-01-22T09:46:35Z</time>
   </trkpt>
   <trkpt lat="51.8409460" lon="39.3912990">
    <ele>110.4</ele>
    <time>2017-01-22T09:46:40Z</time>
   </trkpt>
   <trkpt lat="51.8404640" lon="39.3915280">
    <ele>111.7</ele>
    <time>2017-01-22T09:46:52Z</time>
   </trkpt>
   <trkpt lat="51.8403290" lon="39.3915930">
    <ele>112.1</ele>
    <time>2017-01-22T09:46:55Z</time>
   </trkpt>
   <trkpt lat="51.8402830" lon="39.3916090">
    <ele>112.3</ele>
    <time>2017-01-22T09:46:56Z</time>
   </trkpt>
   <trkpt lat="51.8401970" lon="39.3916490">
    <ele>112.4</ele>
    <time>2017-01-22T09:46:58Z</time>
   </trkpt>
   <trkpt lat="51.8400330" lon="39.3916950">
    <ele>111.6</ele>
    <time>2017-01-22T09:47:02Z</time>
   </trkpt>
   <trkpt lat="51.8399920" lon="39.3916960">
    <ele>111.5</ele>
    <time>2017-01-22T09:47:03Z</time>
   </trkpt>
   <trkpt lat="51.8394130" lon="39.3918230">
    <ele>112.5</ele>
    <time>2017-01-22T09:47:17Z</time>
   </trkpt>
   <trkpt lat="51.8393710" lon="39.3918370">
    <ele>112.5</ele>
    <time>2017-01-22T09:47:18Z</time>
   </trkpt>
   <trkpt lat="51.8391600" lon="39.3919350">
    <ele>112.2</ele>
    <time>2017-01-22T09:47:23Z</time>
   </trkpt>
   <trkpt lat="51.8387090" lon="39.3923580">
    <ele>114.1</ele>
    <time>2017-01-22T09:47:35Z</time>
   </trkpt>
   <trkpt lat="51.8381420" lon="39.3925580">
    <ele>114.0</ele>
    <time>2017-01-22T09:47:49Z</time>
   </trkpt>
   <trkpt lat="51.8375960" lon="39.3924510">
    <ele>110.9</ele>
    <time>2017-01-22T09:48:04Z</time>
   </trkpt>
   <trkpt lat="51.8371180" lon="39.3921700">
    <ele>108.3</ele>
    <time>2017-01-22T09:48:18Z</time>
   </trkpt>
   <trkpt lat="51.8366070" lon="39.3920220">
    <ele>107.8</ele>
    <time>2017-01-22T09:48:30Z</time>
   </trkpt>
   <trkpt lat="51.8360420" lon="39.3920480">
    <ele>106.5</ele>
    <time>2017-01-22T09:48:43Z</time>
   </trkpt>
   <trkpt lat="51.8358020" lon="39.3921980">
    <ele>108.1</ele>
    <time>2017-01-22T09:48:49Z</time>
   </trkpt>
   <trkpt lat="51.8355000" lon="39.3927630">
    <ele>109.2</ele>
    <time>2017-01-22T09:49:00Z</time>
   </trkpt>
   <trkpt lat="51.8351650" lon="39.3935120">
    <ele>108.9</ele>
    <time>2017-01-22T09:49:13Z</time>
   </trkpt>
   <trkpt lat="51.8349420" lon="39.3937300">
    <ele>110.1</ele>
    <time>2017-01-22T09:49:19Z</time>
   </trkpt>
   <trkpt lat="51.8349050" lon="39.3937790">
    <ele>110.2</ele>
    <time>2017-01-22T09:49:20Z</time>
   </trkpt>
   <trkpt lat="51.8348640" lon="39.3938280">
    <ele>110.4</ele>
    <time>2017-01-22T09:49:21Z</time>
   </trkpt>
   <trkpt lat="51.8345720" lon="39.3941210">
    <ele>109.7</ele>
    <time>2017-01-22T09:49:28Z</time>
   </trkpt>
   <trkpt lat="51.8345400" lon="39.3941670">
    <ele>109.6</ele>
    <time>2017-01-22T09:49:29Z</time>
   </trkpt>
   <trkpt lat="51.8345090" lon="39.3942130">
    <ele>109.4</ele>
    <time>2017-01-22T09:49:30Z</time>
   </trkpt>
   <trkpt lat="51.8343860" lon="39.3943550">
    <ele>109.1</ele>
    <time>2017-01-22T09:49:34Z</time>
   </trkpt>
   <trkpt lat="51.8343550" lon="39.3943880">
    <ele>109.0</ele>
    <time>2017-01-22T09:49:35Z</time>
   </trkpt>
   <trkpt lat="51.8343290" lon="39.3944360">
    <ele>108.8</ele>
    <time>2017-01-22T09:49:36Z</time>
   </trkpt>
   <trkpt lat="51.8343030" lon="39.3945010">
    <ele>108.6</ele>
    <time>2017-01-22T09:49:37Z</time>
   </trkpt>
   <trkpt lat="51.8342770" lon="39.3945630">
    <ele>108.6</ele>
    <time>2017-01-22T09:49:38Z</time>
   </trkpt>
   <trkpt lat="51.8342540" lon="39.3946350">
    <ele>108.4</ele>
    <time>2017-01-22T09:49:39Z</time>
   </trkpt>
   <trkpt lat="51.8341940" lon="39.3947920">
    <ele>108.2</ele>
    <time>2017-01-22T09:49:41Z</time>
   </trkpt>
   <trkpt lat="51.8340580" lon="39.3954230">
    <ele>107.7</ele>
    <time>2017-01-22T09:49:47Z</time>
   </trkpt>
   <trkpt lat="51.8340520" lon="39.3955150">
    <ele>107.5</ele>
    <time>2017-01-22T09:49:48Z</time>
   </trkpt>
   <trkpt lat="51.8340490" lon="39.3955960">
    <ele>108.2</ele>
    <time>2017-01-22T09:49:49Z</time>
   </trkpt>
   <trkpt lat="51.8340480" lon="39.3956720">
    <ele>108.7</ele>
    <time>2017-01-22T09:49:50Z</time>
   </trkpt>
   <trkpt lat="51.8340520" lon="39.3957400">
    <ele>109.1</ele>
    <time>2017-01-22T09:49:51Z</time>
   </trkpt>
   <trkpt lat="51.8340600" lon="39.3958060">
    <ele>109.6</ele>
    <time>2017-01-22T09:49:52Z</time>
   </trkpt>
   <trkpt lat="51.8340720" lon="39.3958770">
    <ele>110.4</ele>
    <time>2017-01-22T09:49:53Z</time>
   </trkpt>
   <trkpt lat="51.8340890" lon="39.3959460">
    <ele>111.2</ele>
    <time>2017-01-22T09:49:54Z</time>
   </trkpt>
   <trkpt lat="51.8341110" lon="39.3960170">
    <ele>112.1</ele>
    <time>2017-01-22T09:49:55Z</time>
   </trkpt>
   <trkpt lat="51.8342860" lon="39.3964740">
    <ele>112.5</ele>
    <time>2017-01-22T09:50:02Z</time>
   </trkpt>
   <trkpt lat="51.8343220" lon="39.3965270">
    <ele>112.5</ele>
    <time>2017-01-22T09:50:03Z</time>
   </trkpt>
   <trkpt lat="51.8343610" lon="39.3965820">
    <ele>112.4</ele>
    <time>2017-01-22T09:50:04Z</time>
   </trkpt>
   <trkpt lat="51.8344900" lon="39.3967800">
    <ele>112.0</ele>
    <time>2017-01-22T09:50:07Z</time>
   </trkpt>
   <trkpt lat="51.8345270" lon="39.3968570">
    <ele>112.1</ele>
    <time>2017-01-22T09:50:08Z</time>
   </trkpt>
   <trkpt lat="51.8345580" lon="39.3969340">
    <ele>112.0</ele>
    <time>2017-01-22T09:50:09Z</time>
   </trkpt>
   <trkpt lat="51.8346740" lon="39.3972850">
    <ele>111.8</ele>
    <time>2017-01-22T09:50:14Z</time>
   </trkpt>
   <trkpt lat="51.8348460" lon="39.3981520">
    <ele>113.4</ele>
    <time>2017-01-22T09:50:26Z</time>
   </trkpt>
   <trkpt lat="51.8348440" lon="39.3982250">
    <ele>113.4</ele>
    <time>2017-01-22T09:50:27Z</time>
   </trkpt>
   <trkpt lat="51.8348310" lon="39.3983770">
    <ele>113.5</ele>
    <time>2017-01-22T09:50:29Z</time>
   </trkpt>
   <trkpt lat="51.8348200" lon="39.3984450">
    <ele>113.5</ele>
    <time>2017-01-22T09:50:30Z</time>
   </trkpt>
   <trkpt lat="51.8348070" lon="39.3985080">
    <ele>113.5</ele>
    <time>2017-01-22T09:50:31Z</time>
   </trkpt>
   <trkpt lat="51.8347740" lon="39.3986410">
    <ele>113.2</ele>
    <time>2017-01-22T09:50:33Z</time>
   </trkpt>
   <trkpt lat="51.8347520" lon="39.3986990">
    <ele>113.0</ele>
    <time>2017-01-22T09:50:34Z</time>
   </trkpt>
   <trkpt lat="51.8347270" lon="39.3987500">
    <ele>112.9</ele>
    <time>2017-01-22T09:50:35Z</time>
   </trkpt>
   <trkpt lat="51.8346990" lon="39.3987960">
    <ele>112.8</ele>
    <time>2017-01-22T09:50:36Z</time>
   </trkpt>
   <trkpt lat="51.8346660" lon="39.3988350">
    <ele>112.7</ele>
    <time>2017-01-22T09:50:37Z</time>
   </trkpt>
   <trkpt lat="51.8346290" lon="39.3988700">
    <ele>112.6</ele>
    <time>2017-01-22T09:50:38Z</time>
   </trkpt>
   <trkpt lat="51.8345880" lon="39.3989060">
    <ele>112.5</ele>
    <time>2017-01-22T09:50:39Z</time>
   </trkpt>
   <trkpt lat="51.8342900" lon="39.3991860">
    <ele>111.9</ele>
    <time>2017-01-22T09:50:46Z</time>
   </trkpt>
   <trkpt lat="51.8342010" lon="39.3992450">
    <ele>111.2</ele>
    <time>2017-01-22T09:50:48Z</time>
   </trkpt>
   <trkpt lat="51.8341610" lon="39.3992540">
    <ele>110.7</ele>
    <time>2017-01-22T09:50:49Z</time>
   </trkpt>
   <trkpt lat="51.8341190" lon="39.3992490">
    <ele>110.4</ele>
    <time>2017-01-22T09:50:50Z</time>
   </trkpt>
   <trkpt lat="51.8340770" lon="39.3992350">
    <ele>110.1</ele>
    <time>2017-01-22T09:50:51Z</time>
   </trkpt>
   <trkpt lat="51.8340340" lon="39.3992090">
    <ele>109.8</ele>
    <time>2017-01-22T09:50:52Z</time>
   </trkpt>
   <trkpt lat="51.8339930" lon="39.3991770">
    <ele>109.5</ele>
    <time>2017-01-22T09:50:53Z</time>
   </trkpt>
   <trkpt lat="51.8339520" lon="39.3991440">
    <ele>109.3</ele>
    <time>2017-01-22T09:50:54Z</time>
   </trkpt>
   <trkpt lat="51.8334910" lon="39.3991670">
    <ele>105.0</ele>
    <time>2017-01-22T09:51:05Z</time>
   </trkpt>
   <trkpt lat="51.8332240" lon="39.3994130">
    <ele>105.3</ele>
    <time>2017-01-22T09:51:12Z</time>
   </trkpt>
   <trkpt lat="51.8331600" lon="39.3995130">
    <ele>105.9</ele>
    <time>2017-01-22T09:51:14Z</time>
   </trkpt>
   <trkpt lat="51.8328050" lon="39.4002020">
    <ele>109.9</ele>
    <time>2017-01-22T09:51:28Z</time>
   </trkpt>
   <trkpt lat="51.8324270" lon="39.4006680">
    <ele>112.6</ele>
    <time>2017-01-22T09:51:40Z</time>
   </trkpt>
   <trkpt lat="51.8321200" lon="39.4008650">
    <ele>111.5</ele>
    <time>2017-01-22T09:51:48Z</time>
   </trkpt>
   <trkpt lat="51.8315670" lon="39.4010960">
    <ele>113.7</ele>
    <time>2017-01-22T09:52:04Z</time>
   </trkpt>
   <trkpt lat="51.8310950" lon="39.4013750">
    <ele>113.6</ele>
    <time>2017-01-22T09:52:16Z</time>
   </trkpt>
   <trkpt lat="51.8307110" lon="39.4015640">
    <ele>114.8</ele>
    <time>2017-01-22T09:52:24Z</time>
   </trkpt>
   <trkpt lat="51.8303850" lon="39.4016780">
    <ele>117.1</ele>
    <time>2017-01-22T09:52:31Z</time>
   </trkpt>
   <trkpt lat="51.8303400" lon="39.4016960">
    <ele>117.3</ele>
    <time>2017-01-22T09:52:32Z</time>
   </trkpt>
   <trkpt lat="51.8299780" lon="39.4018080">
    <ele>119.1</ele>
    <time>2017-01-22T09:52:40Z</time>
   </trkpt>
   <trkpt lat="51.8299340" lon="39.4018290">
    <ele>119.2</ele>
    <time>2017-01-22T09:52:41Z</time>
   </trkpt>
   <trkpt lat="51.8298390" lon="39.4018630">
    <ele>119.3</ele>
    <time>2017-01-22T09:52:43Z</time>
   </trkpt>
   <trkpt lat="51.8293550" lon="39.4021500">
    <ele>119.3</ele>
    <time>2017-01-22T09:52:53Z</time>
   </trkpt>
   <trkpt lat="51.8290970" lon="39.4026370">
    <ele>119.4</ele>
    <time>2017-01-22T09:53:03Z</time>
   </trkpt>
   <trkpt lat="51.8288390" lon="39.4033660">
    <ele>116.5</ele>
    <time>2017-01-22T09:53:15Z</time>
   </trkpt>
   <trkpt lat="51.8288120" lon="39.4034240">
    <ele>116.1</ele>
    <time>2017-01-22T09:53:16Z</time>
   </trkpt>
   <trkpt lat="51.8286030" lon="39.4038160">
    <ele>112.9</ele>
    <time>2017-01-22T09:53:23Z</time>
   </trkpt>
   <trkpt lat="51.8285270" lon="39.4039010">
    <ele>112.5</ele>
    <time>2017-01-22T09:53:25Z</time>
   </trkpt>
   <trkpt lat="51.8282420" lon="39.4040990">
    <ele>111.7</ele>
    <time>2017-01-22T09:53:32Z</time>
   </trkpt>
   <trkpt lat="51.8276520" lon="39.4041250">
    <ele>115.4</ele>
    <time>2017-01-22T09:53:47Z</time>
   </trkpt>
   <trkpt lat="51.8271610" lon="39.4044720">
    <ele>115.5</ele>
    <time>2017-01-22T09:54:01Z</time>
   </trkpt>
   <trkpt lat="51.8270580" lon="39.4045850">
    <ele>114.8</ele>
    <time>2017-01-22T09:54:04Z</time>
   </trkpt>
   <trkpt lat="51.8267410" lon="39.4049730">
    <ele>112.9</ele>
    <time>2017-01-22T09:54:13Z</time>
   </trkpt>
   <trkpt lat="51.8260550" lon="39.4053820">
    <ele>111.6</ele>
    <time>2017-01-22T09:54:30Z</time>
   </trkpt>
   <trkpt lat="51.8259070" lon="39.4054190">
    <ele>111.5</ele>
    <time>2017-01-22T09:54:33Z</time>
   </trkpt>
   <trkpt lat="51.8258610" lon="39.4054330">
    <ele>111.6</ele>
    <time>2017-01-22T09:54:34Z</time>
   </trkpt>
   <trkpt lat="51.8253790" lon="39.4055530">
    <ele>113.7</ele>
    <time>2017-01-22T09:54:46Z</time>
   </trkpt>
   <trkpt lat="51.8247260" lon="39.4057110">
    <ele>120.7</ele>
    <time>2017-01-22T09:55:00Z</time>
   </trkpt>
   <trkpt lat="51.8241590" lon="39.4056400">
    <ele>122.0</ele>
    <time>2017-01-22T09:55:13Z</time>
   </trkpt>
   <trkpt lat="51.8235060" lon="39.4054420">
    <ele>117.7</ele>
    <time>2017-01-22T09:55:28Z</time>
   </trkpt>
   <trkpt lat="51.8227790" lon="39.4053800">
    <ele>116.0</ele>
    <time>2017-01-22T09:55:44Z</time>
   </trkpt>
   <trkpt lat="51.8221780" lon="39.4056110">
    <ele>115.2</ele>
    <time>2017-01-22T09:55:57Z</time>
   </trkpt>
   <trkpt lat="51.8221010" lon="39.4056830">
    <ele>115.7</ele>
    <time>2017-01-22T09:55:59Z</time>
   </trkpt>
   <trkpt lat="51.8220670" lon="39.4057320">
    <ele>115.9</ele>
    <time>2017-01-22T09:56:00Z</time>
   </trkpt>
   <trkpt lat="51.8218200" lon="39.4064760">
    <ele>119.1</ele>
    <time>2017-01-22T09:56:11Z</time>
   </trkpt>
   <trkpt lat="51.8217350" lon="39.4075500">
    <ele>117.7</ele>
    <time>2017-01-22T09:56:26Z</time>
   </trkpt>
   <trkpt lat="51.8217390" lon="39.4076260">
    <ele>117.5</ele>
    <time>2017-01-22T09:56:27Z</time>
   </trkpt>
   <trkpt lat="51.8217840" lon="39.4082930">
    <ele>118.8</ele>
    <time>2017-01-22T09:56:36Z</time>
   </trkpt>
   <trkpt lat="51.8217920" lon="39.4083730">
    <ele>118.9</ele>
    <time>2017-01-22T09:56:37Z</time>
   </trkpt>
   <trkpt lat="51.8217990" lon="39.4084500">
    <ele>119.1</ele>
    <time>2017-01-22T09:56:38Z</time>
   </trkpt>
   <trkpt lat="51.8218020" lon="39.4085290">
    <ele>119.2</ele>
    <time>2017-01-22T09:56:39Z</time>
   </trkpt>
   <trkpt lat="51.8218030" lon="39.4086130">
    <ele>119.4</ele>
    <time>2017-01-22T09:56:40Z</time>
   </trkpt>
   <trkpt lat="51.8218020" lon="39.4086930">
    <ele>119.7</ele>
    <time>2017-01-22T09:56:41Z</time>
   </trkpt>
   <trkpt lat="51.8217970" lon="39.4087730">
    <ele>120.0</ele>
    <time>2017-01-22T09:56:42Z</time>
   </trkpt>
   <trkpt lat="51.8217870" lon="39.4088520">
    <ele>120.2</ele>
    <time>2017-01-22T09:56:43Z</time>
   </trkpt>
   <trkpt lat="51.8217580" lon="39.4090080">
    <ele>120.3</ele>
    <time>2017-01-22T09:56:45Z</time>
   </trkpt>
   <trkpt lat="51.8217410" lon="39.4090880">
    <ele>120.1</ele>
    <time>2017-01-22T09:56:46Z</time>
   </trkpt>
   <trkpt lat="51.8217230" lon="39.4091600">
    <ele>119.7</ele>
    <time>2017-01-22T09:56:47Z</time>
   </trkpt>
   <trkpt lat="51.8217020" lon="39.4092240">
    <ele>119.5</ele>
    <time>2017-01-22T09:56:48Z</time>
   </trkpt>
   <trkpt lat="51.8216810" lon="39.4092830">
    <ele>119.3</ele>
    <time>2017-01-22T09:56:49Z</time>
   </trkpt>
   <trkpt lat="51.8216550" lon="39.4093410">
    <ele>119.1</ele>
    <time>2017-01-22T09:56:50Z</time>
   </trkpt>
   <trkpt lat="51.8215600" lon="39.4095210">
    <ele>118.7</ele>
    <time>2017-01-22T09:56:53Z</time>
   </trkpt>
   <trkpt lat="51.8214510" lon="39.4096870">
    <ele>118.1</ele>
    <time>2017-01-22T09:56:56Z</time>
   </trkpt>
   <trkpt lat="51.8214110" lon="39.4097260">
    <ele>117.7</ele>
    <time>2017-01-22T09:56:57Z</time>
   </trkpt>
   <trkpt lat="51.8213670" lon="39.4097650">
    <ele>117.3</ele>
    <time>2017-01-22T09:56:58Z</time>
   </trkpt>
   <trkpt lat="51.8213210" lon="39.4098010">
    <ele>117.0</ele>
    <time>2017-01-22T09:56:59Z</time>
   </trkpt>
   <trkpt lat="51.8212730" lon="39.4098340">
    <ele>116.6</ele>
    <time>2017-01-22T09:57:00Z</time>
   </trkpt>
   <trkpt lat="51.8212280" lon="39.4098650">
    <ele>116.2</ele>
    <time>2017-01-22T09:57:01Z</time>
   </trkpt>
   <trkpt lat="51.8211800" lon="39.4098890">
    <ele>115.8</ele>
    <time>2017-01-22T09:57:02Z</time>
   </trkpt>
   <trkpt lat="51.8204370" lon="39.4100710">
    <ele>108.0</ele>
    <time>2017-01-22T09:57:18Z</time>
   </trkpt>
   <trkpt lat="51.8198420" lon="39.4103670">
    <ele>108.9</ele>
    <time>2017-01-22T09:57:35Z</time>
   </trkpt>
   <trkpt lat="51.8193870" lon="39.4107330">
    <ele>115.3</ele>
    <time>2017-01-22T09:57:47Z</time>
   </trkpt>
   <trkpt lat="51.8188930" lon="39.4110180">
    <ele>117.5</ele>
    <time>2017-01-22T09:57:59Z</time>
   </trkpt>
   <trkpt lat="51.8188530" lon="39.4110500">
    <ele>117.5</ele>
    <time>2017-01-22T09:58:00Z</time>
   </trkpt>
   <trkpt lat="51.8188110" lon="39.4110820">
    <ele>117.4</ele>
    <time>2017-01-22T09:58:01Z</time>
   </trkpt>
   <trkpt lat="51.8184770" lon="39.4113080">
    <ele>118.0</ele>
    <time>2017-01-22T09:58:09Z</time>
   </trkpt>
   <trkpt lat="51.8180310" lon="39.4113280">
    <ele>116.1</ele>
    <time>2017-01-22T09:58:22Z</time>
   </trkpt>
   <trkpt lat="51.8179250" lon="39.4112740">
    <ele>115.5</ele>
    <time>2017-01-22T09:58:30Z</time>
   </trkpt>
   <trkpt lat="51.8177610" lon="39.4111740">
    <ele>114.4</ele>
    <time>2017-01-22T10:00:13Z</time>
   </trkpt>
   <trkpt lat="51.8173480" lon="39.4109030">
    <ele>111.7</ele>
    <time>2017-01-22T10:00:27Z</time>
   </trkpt>
   <trkpt lat="51.8168420" lon="39.4107300">
    <ele>115.4</ele>
    <time>2017-01-22T10:00:41Z</time>
   </trkpt>
   <trkpt lat="51.8163570" lon="39.4107010">
    <ele>116.0</ele>
    <time>2017-01-22T10:00:53Z</time>
   </trkpt>
   <trkpt lat="51.8160550" lon="39.4107590">
    <ele>115.0</ele>
    <time>2017-01-22T10:01:00Z</time>
   </trkpt>
   <trkpt lat="51.8153880" lon="39.4109970">
    <ele>110.8</ele>
    <time>2017-01-22T10:01:13Z</time>
   </trkpt>
   <trkpt lat="51.8144870" lon="39.4114830">
    <ele>111.5</ele>
    <time>2017-01-22T10:01:32Z</time>
   </trkpt>
   <trkpt lat="51.8137890" lon="39.4118310">
    <ele>116.1</ele>
    <time>2017-01-22T10:01:48Z</time>
   </trkpt>
   <trkpt lat="51.8137010" lon="39.4118800">
    <ele>115.9</ele>
    <time>2017-01-22T10:01:50Z</time>
   </trkpt>
   <trkpt lat="51.8130440" lon="39.4122360">
    <ele>111.2</ele>
    <time>2017-01-22T10:02:05Z</time>
   </trkpt>
   <trkpt lat="51.8121020" lon="39.4126700">
    <ele>111.5</ele>
    <time>2017-01-22T10:02:27Z</time>
   </trkpt>
   <trkpt lat="51.8117430" lon="39.4128250">
    <ele>111.0</ele>
    <time>2017-01-22T10:02:39Z</time>
   </trkpt>
   <trkpt lat="51.8111240" lon="39.4131740">
    <ele>110.7</ele>
    <time>2017-01-22T10:02:56Z</time>
   </trkpt>
   <trkpt lat="51.8110200" lon="39.4132610">
    <ele>111.8</ele>
    <time>2017-01-22T10:02:59Z</time>
   </trkpt>
   <trkpt lat="51.8105680" lon="39.4135600">
    <ele>112.1</ele>
    <time>2017-01-22T10:03:12Z</time>
   </trkpt>
   <trkpt lat="51.8103930" lon="39.4136240">
    <ele>112.0</ele>
    <time>2017-01-22T10:03:23Z</time>
   </trkpt>
   <trkpt lat="51.8104190" lon="39.4136360">
    <ele>112.0</ele>
    <time>2017-01-22T10:03:27Z</time>
   </trkpt>
   <trkpt lat="51.8104320" lon="39.4136500">
    <ele>112.0</ele>
    <time>2017-01-22T10:03:28Z</time>
   </trkpt>
   <trkpt lat="51.8104460" lon="39.4136720">
    <ele>112.0</ele>
    <time>2017-01-22T10:03:29Z</time>
   </trkpt>
   <trkpt lat="51.8104600" lon="39.4137010">
    <ele>112.0</ele>
    <time>2017-01-22T10:03:30Z</time>
   </trkpt>
   <trkpt lat="51.8104740" lon="39.4137340">
    <ele>112.0</ele>
    <time>2017-01-22T10:03:31Z</time>
   </trkpt>
   <trkpt lat="51.8104870" lon="39.4137690">
    <ele>112.0</ele>
    <time>2017-01-22T10:03:32Z</time>
   </trkpt>
   <trkpt lat="51.8104910" lon="39.4139150">
    <ele>112.0</ele>
    <time>2017-01-22T10:03:41Z</time>
   </trkpt>
   <trkpt lat="51.8104300" lon="39.4139400">
    <ele>112.0</ele>
    <time>2017-01-22T10:03:51Z</time>
   </trkpt>
   <trkpt lat="51.8103680" lon="39.4139710">
    <ele>112.0</ele>
    <time>2017-01-22T10:04:01Z</time>
   </trkpt>
   <trkpt lat="51.8104510" lon="39.4139310">
    <ele>112.0</ele>
    <time>2017-01-22T10:17:52Z</time>
   </trkpt>
   <trkpt lat="51.8105010" lon="39.4139160">
    <ele>112.0</ele>
    <time>2017-01-22T10:17:58Z</time>
   </trkpt>
   <trkpt lat="51.8105190" lon="39.4138490">
    <ele>112.0</ele>
    <time>2017-01-22T10:18:06Z</time>
   </trkpt>
   <trkpt lat="51.8104890" lon="39.4137880">
    <ele>112.0</ele>
    <time>2017-01-22T10:18:12Z</time>
   </trkpt>
   <trkpt lat="51.8102440" lon="39.4137100">
    <ele>111.8</ele>
    <time>2017-01-22T10:18:22Z</time>
   </trkpt>
   <trkpt lat="51.8097210" lon="39.4137250">
    <ele>110.4</ele>
    <time>2017-01-22T10:18:36Z</time>
   </trkpt>
   <trkpt lat="51.8095530" lon="39.4131460">
    <ele>112.1</ele>
    <time>2017-01-22T10:18:46Z</time>
   </trkpt>
   <trkpt lat="51.8090490" lon="39.4127670">
    <ele>110.9</ele>
    <time>2017-01-22T10:19:00Z</time>
   </trkpt>
   <trkpt lat="51.8081280" lon="39.4126050">
    <ele>115.7</ele>
    <time>2017-01-22T10:19:21Z</time>
   </trkpt>
   <trkpt lat="51.8073220" lon="39.4122070">
    <ele>114.0</ele>
    <time>2017-01-22T10:19:39Z</time>
   </trkpt>
   <trkpt lat="51.8064160" lon="39.4118090">
    <ele>115.7</ele>
    <time>2017-01-22T10:19:59Z</time>
   </trkpt>
   <trkpt lat="51.8056510" lon="39.4114870">
    <ele>117.4</ele>
    <time>2017-01-22T10:20:16Z</time>
   </trkpt>
   <trkpt lat="51.8052250" lon="39.4113050">
    <ele>120.7</ele>
    <time>2017-01-22T10:20:24Z</time>
   </trkpt>
   <trkpt lat="51.8051160" lon="39.4112730">
    <ele>121.5</ele>
    <time>2017-01-22T10:20:26Z</time>
   </trkpt>
   <trkpt lat="51.8044110" lon="39.4110600">
    <ele>123.9</ele>
    <time>2017-01-22T10:20:40Z</time>
   </trkpt>
   <trkpt lat="51.8038590" lon="39.4109350">
    <ele>124.8</ele>
    <time>2017-01-22T10:20:51Z</time>
   </trkpt>
   <trkpt lat="51.8029460" lon="39.4106950">
    <ele>125.3</ele>
    <time>2017-01-22T10:21:09Z</time>
   </trkpt>
   <trkpt lat="51.8026440" lon="39.4106040">
    <ele>125.3</ele>
    <time>2017-01-22T10:21:14Z</time>
   </trkpt>
   <trkpt lat="51.8018570" lon="39.4103990">
    <ele>126.0</ele>
    <time>2017-01-22T10:21:31Z</time>
   </trkpt>
   <trkpt lat="51.8014250" lon="39.4103080">
    <ele>127.5</ele>
    <time>2017-01-22T10:21:43Z</time>
   </trkpt>
   <trkpt lat="51.8007620" lon="39.4101290">
    <ele>130.1</ele>
    <time>2017-01-22T10:21:59Z</time>
   </trkpt>
   <trkpt lat="51.8000610" lon="39.4099060">
    <ele>128.4</ele>
    <time>2017-01-22T10:22:16Z</time>
   </trkpt>
   <trkpt lat="51.7994210" lon="39.4097630">
    <ele>126.5</ele>
    <time>2017-01-22T10:22:30Z</time>
   </trkpt>
   <trkpt lat="51.7988400" lon="39.4095900">
    <ele>126.3</ele>
    <time>2017-01-22T10:22:42Z</time>
   </trkpt>
   <trkpt lat="51.7987890" lon="39.4095730">
    <ele>126.5</ele>
    <time>2017-01-22T10:22:43Z</time>
   </trkpt>
   <trkpt lat="51.7980050" lon="39.4093670">
    <ele>127.9</ele>
    <time>2017-01-22T10:22:58Z</time>
   </trkpt>
   <trkpt lat="51.7975110" lon="39.4092160">
    <ele>132.5</ele>
    <time>2017-01-22T10:23:09Z</time>
   </trkpt>
   <trkpt lat="51.7969240" lon="39.4090880">
    <ele>131.8</ele>
    <time>2017-01-22T10:23:20Z</time>
   </trkpt>
   <trkpt lat="51.7962200" lon="39.4089000">
    <ele>129.2</ele>
    <time>2017-01-22T10:23:36Z</time>
   </trkpt>
   <trkpt lat="51.7958680" lon="39.4088070">
    <ele>129.7</ele>
    <time>2017-01-22T10:23:43Z</time>
   </trkpt>
   <trkpt lat="51.7958250" lon="39.4087940">
    <ele>129.7</ele>
    <time>2017-01-22T10:23:44Z</time>
   </trkpt>
   <trkpt lat="51.7950210" lon="39.4085760">
    <ele>133.6</ele>
    <time>2017-01-22T10:24:01Z</time>
   </trkpt>
   <trkpt lat="51.7941650" lon="39.4083520">
    <ele>133.6</ele>
    <time>2017-01-22T10:24:18Z</time>
   </trkpt>
   <trkpt lat="51.7938620" lon="39.4082700">
    <ele>133.9</ele>
    <time>2017-01-22T10:24:24Z</time>
   </trkpt>
   <trkpt lat="51.7938130" lon="39.4082550">
    <ele>134.0</ele>
    <time>2017-01-22T10:24:25Z</time>
   </trkpt>
   <trkpt lat="51.7931280" lon="39.4080870">
    <ele>135.8</ele>
    <time>2017-01-22T10:24:40Z</time>
   </trkpt>
   <trkpt lat="51.7924090" lon="39.4079090">
    <ele>135.0</ele>
    <time>2017-01-22T10:24:55Z</time>
   </trkpt>
   <trkpt lat="51.7916670" lon="39.4077190">
    <ele>132.9</ele>
    <time>2017-01-22T10:25:10Z</time>
   </trkpt>
   <trkpt lat="51.7907360" lon="39.4074800">
    <ele>131.3</ele>
    <time>2017-01-22T10:25:29Z</time>
   </trkpt>
   <trkpt lat="51.7899070" lon="39.4072620">
    <ele>131.2</ele>
    <time>2017-01-22T10:25:46Z</time>
   </trkpt>
   <trkpt lat="51.7898600" lon="39.4072470">
    <ele>131.4</ele>
    <time>2017-01-22T10:25:47Z</time>
   </trkpt>
   <trkpt lat="51.7890900" lon="39.4070360">
    <ele>134.3</ele>
    <time>2017-01-22T10:26:03Z</time>
   </trkpt>
   <trkpt lat="51.7885400" lon="39.4068950">
    <ele>135.2</ele>
    <time>2017-01-22T10:26:14Z</time>
   </trkpt>
   <trkpt lat="51.7877570" lon="39.4066800">
    <ele>135.0</ele>
    <time>2017-01-22T10:26:30Z</time>
   </trkpt>
   <trkpt lat="51.7870100" lon="39.4065000">
    <ele>135.0</ele>
    <time>2017-01-22T10:26:45Z</time>
   </trkpt>
   <trkpt lat="51.7862800" lon="39.4063090">
    <ele>138.0</ele>
    <time>2017-01-22T10:27:00Z</time>
   </trkpt>
   <trkpt lat="51.7854940" lon="39.4060950">
    <ele>133.6</ele>
    <time>2017-01-22T10:27:16Z</time>
   </trkpt>
   <trkpt lat="51.7846000" lon="39.4058340">
    <ele>132.9</ele>
    <time>2017-01-22T10:27:35Z</time>
   </trkpt>
   <trkpt lat="51.7839830" lon="39.4057080">
    <ele>131.6</ele>
    <time>2017-01-22T10:27:48Z</time>
   </trkpt>
   <trkpt lat="51.7839380" lon="39.4056940">
    <ele>131.3</ele>
    <time>2017-01-22T10:27:49Z</time>
   </trkpt>
   <trkpt lat="51.7834960" lon="39.4055810">
    <ele>128.9</ele>
    <time>2017-01-22T10:27:59Z</time>
   </trkpt>
   <trkpt lat="51.7834500" lon="39.4055650">
    <ele>128.9</ele>
    <time>2017-01-22T10:28:00Z</time>
   </trkpt>
   <trkpt lat="51.7826050" lon="39.4053560">
    <ele>132.8</ele>
    <time>2017-01-22T10:28:19Z</time>
   </trkpt>
   <trkpt lat="51.7817650" lon="39.4051530">
    <ele>134.2</ele>
    <time>2017-01-22T10:28:37Z</time>
   </trkpt>
   <trkpt lat="51.7812860" lon="39.4050380">
    <ele>133.3</ele>
    <time>2017-01-22T10:28:50Z</time>
   </trkpt>
   <trkpt lat="51.7810670" lon="39.4053380">
    <ele>130.8</ele>
    <time>2017-01-22T10:29:00Z</time>
   </trkpt>
   <trkpt lat="51.7808170" lon="39.4059400">
    <ele>131.6</ele>
    <time>2017-01-22T10:29:14Z</time>
   </trkpt>
   <trkpt lat="51.7805850" lon="39.4064370">
    <ele>131.3</ele>
    <time>2017-01-22T10:29:27Z</time>
   </trkpt>
   <trkpt lat="51.7803110" lon="39.4072600">
    <ele>133.6</ele>
    <time>2017-01-22T10:29:43Z</time>
   </trkpt>
   <trkpt lat="51.7801510" lon="39.4082140">
    <ele>136.1</ele>
    <time>2017-01-22T10:30:00Z</time>
   </trkpt>
   <trkpt lat="51.7800500" lon="39.4089990">
    <ele>136.0</ele>
    <time>2017-01-22T10:30:11Z</time>
   </trkpt>
   <trkpt lat="51.7799740" lon="39.4101230">
    <ele>134.9</ele>
    <time>2017-01-22T10:30:27Z</time>
   </trkpt>
   <trkpt lat="51.7799250" lon="39.4106880">
    <ele>137.4</ele>
    <time>2017-01-22T10:30:35Z</time>
   </trkpt>
   <trkpt lat="51.7798660" lon="39.4112750">
    <ele>138.6</ele>
    <time>2017-01-22T10:30:43Z</time>
   </trkpt>
   <trkpt lat="51.7798550" lon="39.4114220">
    <ele>138.9</ele>
    <time>2017-01-22T10:30:45Z</time>
   </trkpt>
   <trkpt lat="51.7797590" lon="39.4126250">
    <ele>139.7</ele>
    <time>2017-01-22T10:31:02Z</time>
   </trkpt>
   <trkpt lat="51.7796530" lon="39.4135820">
    <ele>141.4</ele>
    <time>2017-01-22T10:31:17Z</time>
   </trkpt>
   <trkpt lat="51.7795870" lon="39.4142070">
    <ele>143.0</ele>
    <time>2017-01-22T10:31:28Z</time>
   </trkpt>
   <trkpt lat="51.7794970" lon="39.4149690">
    <ele>143.0</ele>
    <time>2017-01-22T10:31:41Z</time>
   </trkpt>
   <trkpt lat="51.7794590" lon="39.4152460">
    <ele>143.1</ele>
    <time>2017-01-22T10:31:45Z</time>
   </trkpt>
   <trkpt lat="51.7793560" lon="39.4163170">
    <ele>143.0</ele>
    <time>2017-01-22T10:32:00Z</time>
   </trkpt>
   <trkpt lat="51.7792710" lon="39.4172650">
    <ele>143.2</ele>
    <time>2017-01-22T10:32:14Z</time>
   </trkpt>
   <trkpt lat="51.7791810" lon="39.4180690">
    <ele>144.3</ele>
    <time>2017-01-22T10:32:27Z</time>
   </trkpt>
   <trkpt lat="51.7791310" lon="39.4188880">
    <ele>144.1</ele>
    <time>2017-01-22T10:32:39Z</time>
   </trkpt>
   <trkpt lat="51.7790370" lon="39.4196030">
    <ele>145.1</ele>
    <time>2017-01-22T10:32:50Z</time>
   </trkpt>
   <trkpt lat="51.7789490" lon="39.4204690">
    <ele>145.4</ele>
    <time>2017-01-22T10:33:04Z</time>
   </trkpt>
   <trkpt lat="51.7788720" lon="39.4212900">
    <ele>144.3</ele>
    <time>2017-01-22T10:33:17Z</time>
   </trkpt>
   <trkpt lat="51.7788250" lon="39.4220790">
    <ele>142.3</ele>
    <time>2017-01-22T10:33:29Z</time>
   </trkpt>
   <trkpt lat="51.7787220" lon="39.4229520">
    <ele>143.1</ele>
    <time>2017-01-22T10:33:44Z</time>
   </trkpt>
   <trkpt lat="51.7786510" lon="39.4237050">
    <ele>143.7</ele>
    <time>2017-01-22T10:33:57Z</time>
   </trkpt>
   <trkpt lat="51.7785050" lon="39.4243440">
    <ele>142.1</ele>
    <time>2017-01-22T10:34:09Z</time>
   </trkpt>
   <trkpt lat="51.7781260" lon="39.4243910">
    <ele>139.9</ele>
    <time>2017-01-22T10:34:21Z</time>
   </trkpt>
   <trkpt lat="51.7776510" lon="39.4243520">
    <ele>139.9</ele>
    <time>2017-01-22T10:34:34Z</time>
   </trkpt>
   <trkpt lat="51.7771320" lon="39.4243520">
    <ele>143.3</ele>
    <time>2017-01-22T10:34:48Z</time>
   </trkpt>
   <trkpt lat="51.7765980" lon="39.4243690">
    <ele>145.7</ele>
    <time>2017-01-22T10:35:02Z</time>
   </trkpt>
   <trkpt lat="51.7760970" lon="39.4243560">
    <ele>147.7</ele>
    <time>2017-01-22T10:35:15Z</time>
   </trkpt>
   <trkpt lat="51.7756030" lon="39.4243430">
    <ele>151.1</ele>
    <time>2017-01-22T10:35:30Z</time>
   </trkpt>
   <trkpt lat="51.7752320" lon="39.4243070">
    <ele>151.3</ele>
    <time>2017-01-22T10:35:42Z</time>
   </trkpt>
   <trkpt lat="51.7747990" lon="39.4243170">
    <ele>151.5</ele>
    <time>2017-01-22T10:35:56Z</time>
   </trkpt>
   <trkpt lat="51.7742850" lon="39.4242910">
    <ele>152.7</ele>
    <time>2017-01-22T10:36:10Z</time>
   </trkpt>
   <trkpt lat="51.7737400" lon="39.4242600">
    <ele>152.2</ele>
    <time>2017-01-22T10:36:25Z</time>
   </trkpt>
   <trkpt lat="51.7732580" lon="39.4242840">
    <ele>154.5</ele>
    <time>2017-01-22T10:36:40Z</time>
   </trkpt>
   <trkpt lat="51.7727630" lon="39.4242250">
    <ele>154.8</ele>
    <time>2017-01-22T10:36:55Z</time>
   </trkpt>
   <trkpt lat="51.7723630" lon="39.4241950">
    <ele>154.3</ele>
    <time>2017-01-22T10:37:06Z</time>
   </trkpt>
   <trkpt lat="51.7719370" lon="39.4242100">
    <ele>153.9</ele>
    <time>2017-01-22T10:37:19Z</time>
   </trkpt>
   <trkpt lat="51.7714490" lon="39.4241870">
    <ele>152.1</ele>
    <time>2017-01-22T10:37:33Z</time>
   </trkpt>
   <trkpt lat="51.7710000" lon="39.4241360">
    <ele>150.5</ele>
    <time>2017-01-22T10:37:46Z</time>
   </trkpt>
   <trkpt lat="51.7705960" lon="39.4241440">
    <ele>148.2</ele>
    <time>2017-01-22T10:37:57Z</time>
   </trkpt>
   <trkpt lat="51.7700760" lon="39.4241190">
    <ele>142.4</ele>
    <time>2017-01-22T10:38:11Z</time>
   </trkpt>
   <trkpt lat="51.7697040" lon="39.4241000">
    <ele>141.2</ele>
    <time>2017-01-22T10:38:22Z</time>
   </trkpt>
   <trkpt lat="51.7692710" lon="39.4240810">
    <ele>142.1</ele>
    <time>2017-01-22T10:38:34Z</time>
   </trkpt>
   <trkpt lat="51.7687510" lon="39.4240840">
    <ele>143.4</ele>
    <time>2017-01-22T10:38:48Z</time>
   </trkpt>
   <trkpt lat="51.7681440" lon="39.4240930">
    <ele>148.4</ele>
    <time>2017-01-22T10:39:03Z</time>
   </trkpt>
   <trkpt lat="51.7676970" lon="39.4240950">
    <ele>147.0</ele>
    <time>2017-01-22T10:39:16Z</time>
   </trkpt>
   <trkpt lat="51.7674490" lon="39.4240690">
    <ele>146.2</ele>
    <time>2017-01-22T10:39:27Z</time>
   </trkpt>
   <trkpt lat="51.7669060" lon="39.4240460">
    <ele>147.6</ele>
    <time>2017-01-22T10:39:41Z</time>
   </trkpt>
   <trkpt lat="51.7663230" lon="39.4240240">
    <ele>146.5</ele>
    <time>2017-01-22T10:39:56Z</time>
   </trkpt>
   <trkpt lat="51.7657030" lon="39.4239890">
    <ele>146.1</ele>
    <time>2017-01-22T10:40:11Z</time>
   </trkpt>
   <trkpt lat="51.7650960" lon="39.4239690">
    <ele>144.7</ele>
    <time>2017-01-22T10:40:26Z</time>
   </trkpt>
   <trkpt lat="51.7644420" lon="39.4239550">
    <ele>146.4</ele>
    <time>2017-01-22T10:40:41Z</time>
   </trkpt>
   <trkpt lat="51.7642280" lon="39.4239450">
    <ele>145.0</ele>
    <time>2017-01-22T10:40:46Z</time>
   </trkpt>
   <trkpt lat="51.7635590" lon="39.4239420">
    <ele>140.4</ele>
    <time>2017-01-22T10:41:02Z</time>
   </trkpt>
   <trkpt lat="51.7629110" lon="39.4239310">
    <ele>139.0</ele>
    <time>2017-01-22T10:41:17Z</time>
   </trkpt>
   <trkpt lat="51.7621350" lon="39.4239190">
    <ele>137.1</ele>
    <time>2017-01-22T10:41:35Z</time>
   </trkpt>
   <trkpt lat="51.7615080" lon="39.4238550">
    <ele>136.0</ele>
    <time>2017-01-22T10:41:50Z</time>
   </trkpt>
   <trkpt lat="51.7606960" lon="39.4238600">
    <ele>132.4</ele>
    <time>2017-01-22T10:42:08Z</time>
   </trkpt>
   <trkpt lat="51.7598390" lon="39.4237860">
    <ele>128.9</ele>
    <time>2017-01-22T10:42:27Z</time>
   </trkpt>
   <trkpt lat="51.7595850" lon="39.4241010">
    <ele>129.3</ele>
    <time>2017-01-22T10:42:36Z</time>
   </trkpt>
   <trkpt lat="51.7592800" lon="39.4251420">
    <ele>128.3</ele>
    <time>2017-01-22T10:42:50Z</time>
   </trkpt>
   <trkpt lat="51.7592610" lon="39.4252160">
    <ele>127.9</ele>
    <time>2017-01-22T10:42:51Z</time>
   </trkpt>
   <trkpt lat="51.7592390" lon="39.4252850">
    <ele>127.6</ele>
    <time>2017-01-22T10:42:52Z</time>
   </trkpt>
   <trkpt lat="51.7592130" lon="39.4253510">
    <ele>127.3</ele>
    <time>2017-01-22T10:42:53Z</time>
   </trkpt>
   <trkpt lat="51.7591850" lon="39.4254140">
    <ele>127.1</ele>
    <time>2017-01-22T10:42:54Z</time>
   </trkpt>
   <trkpt lat="51.7590390" lon="39.4257950">
    <ele>125.5</ele>
    <time>2017-01-22T10:43:00Z</time>
   </trkpt>
   <trkpt lat="51.7590240" lon="39.4258620">
    <ele>125.3</ele>
    <time>2017-01-22T10:43:01Z</time>
   </trkpt>
   <trkpt lat="51.7588000" lon="39.4261330">
    <ele>123.8</ele>
    <time>2017-01-22T10:43:11Z</time>
   </trkpt>
   <trkpt lat="51.7581240" lon="39.4262450">
    <ele>122.8</ele>
    <time>2017-01-22T10:43:28Z</time>
   </trkpt>
   <trkpt lat="51.7576760" lon="39.4260560">
    <ele>119.6</ele>
    <time>2017-01-22T10:43:41Z</time>
   </trkpt>
   <trkpt lat="51.7572690" lon="39.4252750">
    <ele>117.2</ele>
    <time>2017-01-22T10:43:58Z</time>
   </trkpt>
   <trkpt lat="51.7571510" lon="39.4248320">
    <ele>115.9</ele>
    <time>2017-01-22T10:44:07Z</time>
   </trkpt>
   <trkpt lat="51.7571630" lon="39.4238400">
    <ele>115.9</ele>
    <time>2017-01-22T10:44:24Z</time>
   </trkpt>
   <trkpt lat="51.7571480" lon="39.4229080">
    <ele>117.4</ele>
    <time>2017-01-22T10:44:40Z</time>
   </trkpt>
   <trkpt lat="51.7571560" lon="39.4218010">
    <ele>116.6</ele>
    <time>2017-01-22T10:44:59Z</time>
   </trkpt>
   <trkpt lat="51.7572330" lon="39.4210220">
    <ele>117.0</ele>
    <time>2017-01-22T10:45:13Z</time>
   </trkpt>
   <trkpt lat="51.7572060" lon="39.4206670">
    <ele>117.0</ele>
    <time>2017-01-22T10:45:26Z</time>
   </trkpt>
   <trkpt lat="51.7571600" lon="39.4201730">
    <ele>117.9</ele>
    <time>2017-01-22T10:45:38Z</time>
   </trkpt>
   <trkpt lat="51.7570870" lon="39.4192030">
    <ele>119.3</ele>
    <time>2017-01-22T10:45:55Z</time>
   </trkpt>
   <trkpt lat="51.7570100" lon="39.4187520">
    <ele>118.9</ele>
    <time>2017-01-22T10:46:03Z</time>
   </trkpt>
   <trkpt lat="51.7569080" lon="39.4181710">
    <ele>119.3</ele>
    <time>2017-01-22T10:46:15Z</time>
   </trkpt>
   <trkpt lat="51.7568420" lon="39.4175260">
    <ele>121.4</ele>
    <time>2017-01-22T10:46:29Z</time>
   </trkpt>
   <trkpt lat="51.7567790" lon="39.4168530">
    <ele>120.6</ele>
    <time>2017-01-22T10:46:44Z</time>
   </trkpt>
   <trkpt lat="51.7568680" lon="39.4160920">
    <ele>120.0</ele>
    <time>2017-01-22T10:47:00Z</time>
   </trkpt>
   <trkpt lat="51.7569370" lon="39.4159350">
    <ele>119.7</ele>
    <time>2017-01-22T10:47:08Z</time>
   </trkpt>
   <trkpt lat="51.7569430" lon="39.4159160">
    <ele>119.7</ele>
    <time>2017-01-22T10:47:09Z</time>
   </trkpt>
   <trkpt lat="51.7569530" lon="39.4158850">
    <ele>119.6</ele>
    <time>2017-01-22T10:47:10Z</time>
   </trkpt>
   <trkpt lat="51.7569620" lon="39.4158400">
    <ele>119.6</ele>
    <time>2017-01-22T10:47:11Z</time>
   </trkpt>
   <trkpt lat="51.7569700" lon="39.4157900">
    <ele>119.6</ele>
    <time>2017-01-22T10:47:12Z</time>
   </trkpt>
   <trkpt lat="51.7569740" lon="39.4157350">
    <ele>119.6</ele>
    <time>2017-01-22T10:47:13Z</time>
   </trkpt>
   <trkpt lat="51.7569780" lon="39.4156780">
    <ele>119.6</ele>
    <time>2017-01-22T10:47:14Z</time>
   </trkpt>
   <trkpt lat="51.7569780" lon="39.4156210">
    <ele>119.6</ele>
    <time>2017-01-22T10:47:15Z</time>
   </trkpt>
   <trkpt lat="51.7569740" lon="39.4155660">
    <ele>119.8</ele>
    <time>2017-01-22T10:47:16Z</time>
   </trkpt>
   <trkpt lat="51.7569690" lon="39.4155110">
    <ele>119.9</ele>
    <time>2017-01-22T10:47:17Z</time>
   </trkpt>
   <trkpt lat="51.7569150" lon="39.4146710">
    <ele>120.9</ele>
    <time>2017-01-22T10:47:32Z</time>
   </trkpt>
   <trkpt lat="51.7567690" lon="39.4139690">
    <ele>119.3</ele>
    <time>2017-01-22T10:47:45Z</time>
   </trkpt>
   <trkpt lat="51.7566390" lon="39.4133530">
    <ele>118.4</ele>
    <time>2017-01-22T10:47:56Z</time>
   </trkpt>
   <trkpt lat="51.7566480" lon="39.4124660">
    <ele>120.7</ele>
    <time>2017-01-22T10:48:11Z</time>
   </trkpt>
   <trkpt lat="51.7565100" lon="39.4118700">
    <ele>122.8</ele>
    <time>2017-01-22T10:48:22Z</time>
   </trkpt>
   <trkpt lat="51.7563740" lon="39.4111390">
    <ele>122.3</ele>
    <time>2017-01-22T10:48:35Z</time>
   </trkpt>
   <trkpt lat="51.7560450" lon="39.4102720">
    <ele>121.5</ele>
    <time>2017-01-22T10:48:51Z</time>
   </trkpt>
   <trkpt lat="51.7559060" lon="39.4095240">
    <ele>120.8</ele>
    <time>2017-01-22T10:49:04Z</time>
   </trkpt>
   <trkpt lat="51.7557190" lon="39.4088230">
    <ele>120.3</ele>
    <time>2017-01-22T10:49:17Z</time>
   </trkpt>
   <trkpt lat="51.7555270" lon="39.4082570">
    <ele>117.1</ele>
    <time>2017-01-22T10:49:28Z</time>
   </trkpt>
   <trkpt lat="51.7553460" lon="39.4075700">
    <ele>117.5</ele>
    <time>2017-01-22T10:49:40Z</time>
   </trkpt>
   <trkpt lat="51.7552400" lon="39.4067310">
    <ele>120.0</ele>
    <time>2017-01-22T10:49:54Z</time>
   </trkpt>
   <trkpt lat="51.7550640" lon="39.4063170">
    <ele>116.9</ele>
    <time>2017-01-22T10:50:05Z</time>
   </trkpt>
   <trkpt lat="51.7550640" lon="39.4063170">
    <ele>116.9</ele>
    <time>2017-01-22T10:50:07Z</time>
   </trkpt>
   <trkpt lat="51.7550040" lon="39.4061900">
    <ele>116.2</ele>
    <time>2017-01-22T10:51:25Z</time>
   </trkpt>
   <trkpt lat="51.7549930" lon="39.4061660">
    <ele>116.2</ele>
    <time>2017-01-22T10:51:26Z</time>
   </trkpt>
   <trkpt lat="51.7549820" lon="39.4061450">
    <ele>116.2</ele>
    <time>2017-01-22T10:51:27Z</time>
   </trkpt>
   <trkpt lat="51.7547890" lon="39.4056420">
    <ele>116.2</ele>
    <time>2017-01-22T10:51:42Z</time>
   </trkpt>
   <trkpt lat="51.7546380" lon="39.4049570">
    <ele>117.5</ele>
    <time>2017-01-22T10:51:56Z</time>
   </trkpt>
   <trkpt lat="51.7544950" lon="39.4045030">
    <ele>119.6</ele>
    <time>2017-01-22T10:52:08Z</time>
   </trkpt>
   <trkpt lat="51.7543330" lon="39.4038400">
    <ele>120.5</ele>
    <time>2017-01-22T10:52:24Z</time>
   </trkpt>
   <trkpt lat="51.7542580" lon="39.4035190">
    <ele>118.9</ele>
    <time>2017-01-22T10:52:35Z</time>
   </trkpt>
   <trkpt lat="51.7542360" lon="39.4034410">
    <ele>118.3</ele>
    <time>2017-01-22T10:52:45Z</time>
   </trkpt>
   <trkpt lat="51.7542270" lon="39.4034120">
    <ele>118.2</ele>
    <time>2017-01-22T10:52:46Z</time>
   </trkpt>
   <trkpt lat="51.7542150" lon="39.4033800">
    <ele>118.2</ele>
    <time>2017-01-22T10:52:47Z</time>
   </trkpt>
   <trkpt lat="51.7542020" lon="39.4033450">
    <ele>118.0</ele>
    <time>2017-01-22T10:52:48Z</time>
   </trkpt>
   <trkpt lat="51.7541920" lon="39.4033110">
    <ele>118.0</ele>
    <time>2017-01-22T10:52:49Z</time>
   </trkpt>
   <trkpt lat="51.7541360" lon="39.4031490">
    <ele>118.2</ele>
    <time>2017-01-22T10:52:57Z</time>
   </trkpt>
   <trkpt lat="51.7541270" lon="39.4031300">
    <ele>118.3</ele>
    <time>2017-01-22T10:52:58Z</time>
   </trkpt>
   <trkpt lat="51.7539510" lon="39.4028110">
    <ele>119.1</ele>
    <time>2017-01-22T10:53:11Z</time>
   </trkpt>
   <trkpt lat="51.7538950" lon="39.4023620">
    <ele>120.0</ele>
    <time>2017-01-22T10:53:24Z</time>
   </trkpt>
   <trkpt lat="51.7537450" lon="39.4018570">
    <ele>119.6</ele>
    <time>2017-01-22T10:53:35Z</time>
   </trkpt>
   <trkpt lat="51.7535570" lon="39.4010970">
    <ele>120.2</ele>
    <time>2017-01-22T10:53:51Z</time>
   </trkpt>
   <trkpt lat="51.7533220" lon="39.4002900">
    <ele>123.3</ele>
    <time>2017-01-22T10:54:08Z</time>
   </trkpt>
   <trkpt lat="51.7531740" lon="39.3995870">
    <ele>125.1</ele>
    <time>2017-01-22T10:54:22Z</time>
   </trkpt>
   <trkpt lat="51.7530450" lon="39.3988170">
    <ele>123.3</ele>
    <time>2017-01-22T10:54:36Z</time>
   </trkpt>
   <trkpt lat="51.7528920" lon="39.3981940">
    <ele>121.8</ele>
    <time>2017-01-22T10:54:49Z</time>
   </trkpt>
   <trkpt lat="51.7528250" lon="39.3975920">
    <ele>122.5</ele>
    <time>2017-01-22T10:55:02Z</time>
   </trkpt>
   <trkpt lat="51.7526850" lon="39.3968920">
    <ele>124.9</ele>
    <time>2017-01-22T10:55:16Z</time>
   </trkpt>
   <trkpt lat="51.7524670" lon="39.3964020">
    <ele>126.7</ele>
    <time>2017-01-22T10:55:24Z</time>
   </trkpt>
   <trkpt lat="51.7524460" lon="39.3963380">
    <ele>127.0</ele>
    <time>2017-01-22T10:55:25Z</time>
   </trkpt>
   <trkpt lat="51.7523810" lon="39.3958810">
    <ele>128.4</ele>
    <time>2017-01-22T10:55:35Z</time>
   </trkpt>
   <trkpt lat="51.7523360" lon="39.3952750">
    <ele>128.2</ele>
    <time>2017-01-22T10:55:49Z</time>
   </trkpt>
   <trkpt lat="51.7520880" lon="39.3946560">
    <ele>129.1</ele>
    <time>2017-01-22T10:56:02Z</time>
   </trkpt>
   <trkpt lat="51.7518020" lon="39.3938230">
    <ele>128.9</ele>
    <time>2017-01-22T10:56:19Z</time>
   </trkpt>
   <trkpt lat="51.7516280" lon="39.3930850">
    <ele>129.8</ele>
    <time>2017-01-22T10:56:34Z</time>
   </trkpt>
   <trkpt lat="51.7515270" lon="39.3925860">
    <ele>128.9</ele>
    <time>2017-01-22T10:56:48Z</time>
   </trkpt>
   <trkpt lat="51.7513040" lon="39.3920330">
    <ele>127.1</ele>
    <time>2017-01-22T10:57:03Z</time>
   </trkpt>
   <trkpt lat="51.7512190" lon="39.3914690">
    <ele>127.0</ele>
    <time>2017-01-22T10:57:17Z</time>
   </trkpt>
   <trkpt lat="51.7510130" lon="39.3909280">
    <ele>128.3</ele>
    <time>2017-01-22T10:57:31Z</time>
   </trkpt>
   <trkpt lat="51.7506570" lon="39.3902270">
    <ele>127.0</ele>
    <time>2017-01-22T10:57:48Z</time>
   </trkpt>
   <trkpt lat="51.7502860" lon="39.3896430">
    <ele>125.8</ele>
    <time>2017-01-22T10:58:04Z</time>
   </trkpt>
   <trkpt lat="51.7499130" lon="39.3889960">
    <ele>122.5</ele>
    <time>2017-01-22T10:58:20Z</time>
   </trkpt>
   <trkpt lat="51.7496120" lon="39.3882340">
    <ele>121.6</ele>
    <time>2017-01-22T10:58:37Z</time>
   </trkpt>
   <trkpt lat="51.7493380" lon="39.3875320">
    <ele>120.1</ele>
    <time>2017-01-22T10:58:52Z</time>
   </trkpt>
   <trkpt lat="51.7491130" lon="39.3867710">
    <ele>120.5</ele>
    <time>2017-01-22T10:59:07Z</time>
   </trkpt>
   <trkpt lat="51.7490780" lon="39.3860320">
    <ele>119.9</ele>
    <time>2017-01-22T10:59:20Z</time>
   </trkpt>
   <trkpt lat="51.7489050" lon="39.3853660">
    <ele>122.3</ele>
    <time>2017-01-22T10:59:34Z</time>
   </trkpt>
   <trkpt lat="51.7487710" lon="39.3850410">
    <ele>123.0</ele>
    <time>2017-01-22T10:59:44Z</time>
   </trkpt>
   <trkpt lat="51.7484330" lon="39.3840940">
    <ele>120.8</ele>
    <time>2017-01-22T11:00:02Z</time>
   </trkpt>
   <trkpt lat="51.7481510" lon="39.3834360">
    <ele>119.0</ele>
    <time>2017-01-22T11:00:16Z</time>
   </trkpt>
   <trkpt lat="51.7478470" lon="39.3826450">
    <ele>120.4</ele>
    <time>2017-01-22T11:00:34Z</time>
   </trkpt>
   <trkpt lat="51.7475560" lon="39.3816310">
    <ele>118.5</ele>
    <time>2017-01-22T11:00:55Z</time>
   </trkpt>
   <trkpt lat="51.7473840" lon="39.3813430">
    <ele>118.3</ele>
    <time>2017-01-22T11:01:10Z</time>
   </trkpt>
   <trkpt lat="51.7473710" lon="39.3813030">
    <ele>118.3</ele>
    <time>2017-01-22T11:01:17Z</time>
   </trkpt>
   <trkpt lat="51.7473400" lon="39.3811910">
    <ele>118.3</ele>
    <time>2017-01-22T11:02:07Z</time>
   </trkpt>
   <trkpt lat="51.7473270" lon="39.3811460">
    <ele>118.2</ele>
    <time>2017-01-22T11:02:08Z</time>
   </trkpt>
   <trkpt lat="51.7470660" lon="39.3809290">
    <ele>117.6</ele>
    <time>2017-01-22T11:02:18Z</time>
   </trkpt>
   <trkpt lat="51.7465990" lon="39.3812990">
    <ele>118.6</ele>
    <time>2017-01-22T11:02:31Z</time>
   </trkpt>
   <trkpt lat="51.7463860" lon="39.3814330">
    <ele>120.1</ele>
    <time>2017-01-22T11:02:36Z</time>
   </trkpt>
   <trkpt lat="51.7463410" lon="39.3814130">
    <ele>119.9</ele>
    <time>2017-01-22T11:02:37Z</time>
   </trkpt>
   <trkpt lat="51.7463000" lon="39.3813720">
    <ele>119.8</ele>
    <time>2017-01-22T11:02:38Z</time>
   </trkpt>
   <trkpt lat="51.7462660" lon="39.3813080">
    <ele>119.7</ele>
    <time>2017-01-22T11:02:39Z</time>
   </trkpt>
   <trkpt lat="51.7462380" lon="39.3812320">
    <ele>119.6</ele>
    <time>2017-01-22T11:02:40Z</time>
   </trkpt>
   <trkpt lat="51.7462120" lon="39.3811530">
    <ele>119.5</ele>
    <time>2017-01-22T11:02:41Z</time>
   </trkpt>
   <trkpt lat="51.7458830" lon="39.3801660">
    <ele>118.6</ele>
    <time>2017-01-22T11:02:55Z</time>
   </trkpt>
   <trkpt lat="51.7454210" lon="39.3787800">
    <ele>116.6</ele>
    <time>2017-01-22T11:03:13Z</time>
   </trkpt>
   <trkpt lat="51.7449500" lon="39.3773330">
    <ele>114.8</ele>
    <time>2017-01-22T11:03:31Z</time>
   </trkpt>
   <trkpt lat="51.7443730" lon="39.3756280">
    <ele>111.1</ele>
    <time>2017-01-22T11:03:51Z</time>
   </trkpt>
   <trkpt lat="51.7438800" lon="39.3741570">
    <ele>112.5</ele>
    <time>2017-01-22T11:04:08Z</time>
   </trkpt>
   <trkpt lat="51.7432880" lon="39.3723820">
    <ele>113.4</ele>
    <time>2017-01-22T11:04:29Z</time>
   </trkpt>
   <trkpt lat="51.7428760" lon="39.3711360">
    <ele>110.6</ele>
    <time>2017-01-22T11:04:44Z</time>
   </trkpt>
   <trkpt lat="51.7423830" lon="39.3696310">
    <ele>111.2</ele>
    <time>2017-01-22T11:05:02Z</time>
   </trkpt>
   <trkpt lat="51.7419250" lon="39.3682630">
    <ele>110.8</ele>
    <time>2017-01-22T11:05:20Z</time>
   </trkpt>
   <trkpt lat="51.7416730" lon="39.3671650">
    <ele>110.6</ele>
    <time>2017-01-22T11:05:37Z</time>
   </trkpt>
   <trkpt lat="51.7414030" lon="39.3654610">
    <ele>107.7</ele>
    <time>2017-01-22T11:06:00Z</time>
   </trkpt>
   <trkpt lat="51.7410340" lon="39.3640340">
    <ele>108.3</ele>
    <time>2017-01-22T11:06:19Z</time>
   </trkpt>
   <trkpt lat="51.7407150" lon="39.3628860">
    <ele>107.8</ele>
    <time>2017-01-22T11:06:35Z</time>
   </trkpt>
   <trkpt lat="51.7403380" lon="39.3615520">
    <ele>106.2</ele>
    <time>2017-01-22T11:06:53Z</time>
   </trkpt>
   <trkpt lat="51.7401620" lon="39.3609230">
    <ele>105.9</ele>
    <time>2017-01-22T11:07:01Z</time>
   </trkpt>
   <trkpt lat="51.7398010" lon="39.3596830">
    <ele>105.0</ele>
    <time>2017-01-22T11:07:17Z</time>
   </trkpt>
   <trkpt lat="51.7394580" lon="39.3584510">
    <ele>104.9</ele>
    <time>2017-01-22T11:07:33Z</time>
   </trkpt>
   <trkpt lat="51.7393980" lon="39.3582230">
    <ele>104.9</ele>
    <time>2017-01-22T11:07:36Z</time>
   </trkpt>
   <trkpt lat="51.7393790" lon="39.3581480">
    <ele>104.9</ele>
    <time>2017-01-22T11:07:37Z</time>
   </trkpt>
   <trkpt lat="51.7389850" lon="39.3567260">
    <ele>103.2</ele>
    <time>2017-01-22T11:07:56Z</time>
   </trkpt>
   <trkpt lat="51.7385330" lon="39.3551630">
    <ele>101.4</ele>
    <time>2017-01-22T11:08:17Z</time>
   </trkpt>
   <trkpt lat="51.7385010" lon="39.3551000">
    <ele>101.3</ele>
    <time>2017-01-22T11:08:18Z</time>
   </trkpt>
   <trkpt lat="51.7384620" lon="39.3550450">
    <ele>101.2</ele>
    <time>2017-01-22T11:08:19Z</time>
   </trkpt>
   <trkpt lat="51.7384180" lon="39.3550070">
    <ele>101.1</ele>
    <time>2017-01-22T11:08:20Z</time>
   </trkpt>
   <trkpt lat="51.7383690" lon="39.3549930">
    <ele>101.0</ele>
    <time>2017-01-22T11:08:21Z</time>
   </trkpt>
   <trkpt lat="51.7383210" lon="39.3549950">
    <ele>101.3</ele>
    <time>2017-01-22T11:08:22Z</time>
   </trkpt>
   <trkpt lat="51.7382730" lon="39.3550120">
    <ele>101.4</ele>
    <time>2017-01-22T11:08:23Z</time>
   </trkpt>
   <trkpt lat="51.7382270" lon="39.3550390">
    <ele>101.5</ele>
    <time>2017-01-22T11:08:24Z</time>
   </trkpt>
   <trkpt lat="51.7381850" lon="39.3550760">
    <ele>101.5</ele>
    <time>2017-01-22T11:08:25Z</time>
   </trkpt>
   <trkpt lat="51.7381450" lon="39.3551160">
    <ele>101.5</ele>
    <time>2017-01-22T11:08:26Z</time>
   </trkpt>
   <trkpt lat="51.7372660" lon="39.3558740">
    <ele>103.6</ele>
    <time>2017-01-22T11:08:45Z</time>
   </trkpt>
   <trkpt lat="51.7360860" lon="39.3568570">
    <ele>105.4</ele>
    <time>2017-01-22T11:09:09Z</time>
   </trkpt>
   <trkpt lat="51.7348320" lon="39.3578710">
    <ele>103.4</ele>
    <time>2017-01-22T11:09:34Z</time>
   </trkpt>
   <trkpt lat="51.7338060" lon="39.3589020">
    <ele>105.5</ele>
    <time>2017-01-22T11:09:56Z</time>
   </trkpt>
   <trkpt lat="51.7337230" lon="39.3589760">
    <ele>105.7</ele>
    <time>2017-01-22T11:09:58Z</time>
   </trkpt>
   <trkpt lat="51.7336800" lon="39.3589970">
    <ele>105.9</ele>
    <time>2017-01-22T11:09:59Z</time>
   </trkpt>
   <trkpt lat="51.7336370" lon="39.3590020">
    <ele>106.0</ele>
    <time>2017-01-22T11:10:00Z</time>
   </trkpt>
   <trkpt lat="51.7335960" lon="39.3589890">
    <ele>106.0</ele>
    <time>2017-01-22T11:10:01Z</time>
   </trkpt>
   <trkpt lat="51.7335580" lon="39.3589610">
    <ele>106.1</ele>
    <time>2017-01-22T11:10:02Z</time>
   </trkpt>
   <trkpt lat="51.7335270" lon="39.3589190">
    <ele>106.2</ele>
    <time>2017-01-22T11:10:03Z</time>
   </trkpt>
   <trkpt lat="51.7334970" lon="39.3588700">
    <ele>106.5</ele>
    <time>2017-01-22T11:10:04Z</time>
   </trkpt>
   <trkpt lat="51.7334700" lon="39.3588160">
    <ele>106.9</ele>
    <time>2017-01-22T11:10:05Z</time>
   </trkpt>
   <trkpt lat="51.7334480" lon="39.3587580">
    <ele>107.2</ele>
    <time>2017-01-22T11:10:06Z</time>
   </trkpt>
   <trkpt lat="51.7334300" lon="39.3586950">
    <ele>107.6</ele>
    <time>2017-01-22T11:10:07Z</time>
   </trkpt>
   <trkpt lat="51.7334130" lon="39.3586290">
    <ele>107.8</ele>
    <time>2017-01-22T11:10:08Z</time>
   </trkpt>
   <trkpt lat="51.7332060" lon="39.3573910">
    <ele>107.8</ele>
    <time>2017-01-22T11:10:25Z</time>
   </trkpt>
   <trkpt lat="51.7330520" lon="39.3561340">
    <ele>111.0</ele>
    <time>2017-01-22T11:10:41Z</time>
   </trkpt>
   <trkpt lat="51.7328880" lon="39.3549930">
    <ele>112.3</ele>
    <time>2017-01-22T11:10:55Z</time>
   </trkpt>
   <trkpt lat="51.7328780" lon="39.3549110">
    <ele>112.2</ele>
    <time>2017-01-22T11:10:56Z</time>
   </trkpt>
   <trkpt lat="51.7326720" lon="39.3534880">
    <ele>111.4</ele>
    <time>2017-01-22T11:11:13Z</time>
   </trkpt>
   <trkpt lat="51.7324480" lon="39.3521010">
    <ele>109.7</ele>
    <time>2017-01-22T11:11:30Z</time>
   </trkpt>
   <trkpt lat="51.7322290" lon="39.3508230">
    <ele>110.4</ele>
    <time>2017-01-22T11:11:46Z</time>
   </trkpt>
   <trkpt lat="51.7320860" lon="39.3502870">
    <ele>107.5</ele>
    <time>2017-01-22T11:11:54Z</time>
   </trkpt>
   <trkpt lat="51.7320590" lon="39.3502370">
    <ele>107.1</ele>
    <time>2017-01-22T11:11:55Z</time>
   </trkpt>
   <trkpt lat="51.7320260" lon="39.3501930">
    <ele>107.1</ele>
    <time>2017-01-22T11:11:56Z</time>
   </trkpt>
   <trkpt lat="51.7319900" lon="39.3501570">
    <ele>107.1</ele>
    <time>2017-01-22T11:11:57Z</time>
   </trkpt>
   <trkpt lat="51.7319500" lon="39.3501290">
    <ele>107.1</ele>
    <time>2017-01-22T11:11:58Z</time>
   </trkpt>
   <trkpt lat="51.7319100" lon="39.3501050">
    <ele>107.1</ele>
    <time>2017-01-22T11:11:59Z</time>
   </trkpt>
   <trkpt lat="51.7318680" lon="39.3500900">
    <ele>107.1</ele>
    <time>2017-01-22T11:12:00Z</time>
   </trkpt>
   <trkpt lat="51.7318250" lon="39.3500850">
    <ele>107.1</ele>
    <time>2017-01-22T11:12:01Z</time>
   </trkpt>
   <trkpt lat="51.7317810" lon="39.3500870">
    <ele>107.1</ele>
    <time>2017-01-22T11:12:02Z</time>
   </trkpt>
   <trkpt lat="51.7317340" lon="39.3500900">
    <ele>107.2</ele>
    <time>2017-01-22T11:12:03Z</time>
   </trkpt>
   <trkpt lat="51.7310350" lon="39.3498640">
    <ele>108.1</ele>
    <time>2017-01-22T11:12:18Z</time>
   </trkpt>
   <trkpt lat="51.7305710" lon="39.3495350">
    <ele>107.8</ele>
    <time>2017-01-22T11:12:28Z</time>
   </trkpt>
   <trkpt lat="51.7299210" lon="39.3484490">
    <ele>107.2</ele>
    <time>2017-01-22T11:12:46Z</time>
   </trkpt>
   <trkpt lat="51.7298050" lon="39.3480670">
    <ele>107.0</ele>
    <time>2017-01-22T11:12:51Z</time>
   </trkpt>
   <trkpt lat="51.7297070" lon="39.3468640">
    <ele>108.0</ele>
    <time>2017-01-22T11:13:05Z</time>
   </trkpt>
   <trkpt lat="51.7296050" lon="39.3456400">
    <ele>107.7</ele>
    <time>2017-01-22T11:13:19Z</time>
   </trkpt>
   <trkpt lat="51.7295980" lon="39.3455500">
    <ele>107.6</ele>
    <time>2017-01-22T11:13:20Z</time>
   </trkpt>
   <trkpt lat="51.7294890" lon="39.3443130">
    <ele>106.9</ele>
    <time>2017-01-22T11:13:34Z</time>
   </trkpt>
   <trkpt lat="51.7293750" lon="39.3429360">
    <ele>107.4</ele>
    <time>2017-01-22T11:13:49Z</time>
   </trkpt>
   <trkpt lat="51.7292790" lon="39.3417130">
    <ele>106.2</ele>
    <time>2017-01-22T11:14:03Z</time>
   </trkpt>
   <trkpt lat="51.7292130" lon="39.3403310">
    <ele>106.9</ele>
    <time>2017-01-22T11:14:18Z</time>
   </trkpt>
   <trkpt lat="51.7291070" lon="39.3386240">
    <ele>102.9</ele>
    <time>2017-01-22T11:14:37Z</time>
   </trkpt>
   <trkpt lat="51.7291180" lon="39.3375400">
    <ele>102.2</ele>
    <time>2017-01-22T11:14:50Z</time>
   </trkpt>
   <trkpt lat="51.7291410" lon="39.3374660">
    <ele>102.1</ele>
    <time>2017-01-22T11:14:51Z</time>
   </trkpt>
   <trkpt lat="51.7296580" lon="39.3360280">
    <ele>99.6</ele>
    <time>2017-01-22T11:15:10Z</time>
   </trkpt>
   <trkpt lat="51.7298600" lon="39.3348780">
    <ele>100.4</ele>
    <time>2017-01-22T11:15:25Z</time>
   </trkpt>
   <trkpt lat="51.7297620" lon="39.3332740">
    <ele>99.3</ele>
    <time>2017-01-22T11:15:46Z</time>
   </trkpt>
   <trkpt lat="51.7297730" lon="39.3322100">
    <ele>98.0</ele>
    <time>2017-01-22T11:16:00Z</time>
   </trkpt>
   <trkpt lat="51.7300670" lon="39.3309200">
    <ele>103.9</ele>
    <time>2017-01-22T11:16:17Z</time>
   </trkpt>
   <trkpt lat="51.7305550" lon="39.3297340">
    <ele>104.4</ele>
    <time>2017-01-22T11:16:34Z</time>
   </trkpt>
   <trkpt lat="51.7312370" lon="39.3285740">
    <ele>99.9</ele>
    <time>2017-01-22T11:16:54Z</time>
   </trkpt>
   <trkpt lat="51.7313110" lon="39.3283660">
    <ele>99.7</ele>
    <time>2017-01-22T11:16:57Z</time>
   </trkpt>
   <trkpt lat="51.7313310" lon="39.3282940">
    <ele>99.6</ele>
    <time>2017-01-22T11:16:58Z</time>
   </trkpt>
   <trkpt lat="51.7314840" lon="39.3270080">
    <ele>98.2</ele>
    <time>2017-01-22T11:17:15Z</time>
   </trkpt>
   <trkpt lat="51.7316070" lon="39.3254280">
    <ele>99.0</ele>
    <time>2017-01-22T11:17:35Z</time>
   </trkpt>
   <trkpt lat="51.7317550" lon="39.3236670">
    <ele>102.7</ele>
    <time>2017-01-22T11:17:57Z</time>
   </trkpt>
   <trkpt lat="51.7318770" lon="39.3220580">
    <ele>103.5</ele>
    <time>2017-01-22T11:18:17Z</time>
   </trkpt>
   <trkpt lat="51.7319150" lon="39.3209460">
    <ele>104.0</ele>
    <time>2017-01-22T11:18:31Z</time>
   </trkpt>
   <trkpt lat="51.7315350" lon="39.3199410">
    <ele>108.4</ele>
    <time>2017-01-22T11:18:46Z</time>
   </trkpt>
   <trkpt lat="51.7307860" lon="39.3193150">
    <ele>109.9</ele>
    <time>2017-01-22T11:19:03Z</time>
   </trkpt>
   <trkpt lat="51.7298580" lon="39.3191000">
    <ele>109.8</ele>
    <time>2017-01-22T11:19:21Z</time>
   </trkpt>
   <trkpt lat="51.7287410" lon="39.3188710">
    <ele>111.1</ele>
    <time>2017-01-22T11:19:43Z</time>
   </trkpt>
   <trkpt lat="51.7274630" lon="39.3186090">
    <ele>111.5</ele>
    <time>2017-01-22T11:20:09Z</time>
   </trkpt>
   <trkpt lat="51.7265500" lon="39.3184180">
    <ele>110.3</ele>
    <time>2017-01-22T11:20:28Z</time>
   </trkpt>
   <trkpt lat="51.7262250" lon="39.3183200">
    <ele>110.0</ele>
    <time>2017-01-22T11:20:35Z</time>
   </trkpt>
   <trkpt lat="51.7261870" lon="39.3182830">
    <ele>110.0</ele>
    <time>2017-01-22T11:20:36Z</time>
   </trkpt>
   <trkpt lat="51.7261580" lon="39.3182290">
    <ele>111.4</ele>
    <time>2017-01-22T11:20:37Z</time>
   </trkpt>
   <trkpt lat="51.7261420" lon="39.3181630">
    <ele>111.1</ele>
    <time>2017-01-22T11:20:38Z</time>
   </trkpt>
   <trkpt lat="51.7261390" lon="39.3180930">
    <ele>111.0</ele>
    <time>2017-01-22T11:20:39Z</time>
   </trkpt>
   <trkpt lat="51.7261430" lon="39.3180220">
    <ele>110.9</ele>
    <time>2017-01-22T11:20:40Z</time>
   </trkpt>
   <trkpt lat="51.7261490" lon="39.3179510">
    <ele>110.8</ele>
    <time>2017-01-22T11:20:41Z</time>
   </trkpt>
   <trkpt lat="51.7263100" lon="39.3164340">
    <ele>112.0</ele>
    <time>2017-01-22T11:21:04Z</time>
   </trkpt>
   <trkpt lat="51.7264190" lon="39.3152940">
    <ele>111.9</ele>
    <time>2017-01-22T11:21:25Z</time>
   </trkpt>
   <trkpt lat="51.7265070" lon="39.3143540">
    <ele>111.6</ele>
    <time>2017-01-22T11:21:43Z</time>
   </trkpt>
   <trkpt lat="51.7266130" lon="39.3132790">
    <ele>111.5</ele>
    <time>2017-01-22T11:22:03Z</time>
   </trkpt>
   <trkpt lat="51.7267270" lon="39.3121160">
    <ele>111.0</ele>
    <time>2017-01-22T11:22:24Z</time>
   </trkpt>
   <trkpt lat="51.7268490" lon="39.3108350">
    <ele>112.1</ele>
    <time>2017-01-22T11:22:47Z</time>
   </trkpt>
   <trkpt lat="51.7270040" lon="39.3092410">
    <ele>115.2</ele>
    <time>2017-01-22T11:23:14Z</time>
   </trkpt>
   <trkpt lat="51.7271460" lon="39.3078370">
    <ele>120.0</ele>
    <time>2017-01-22T11:23:36Z</time>
   </trkpt>
   <trkpt lat="51.7272910" lon="39.3063490">
    <ele>120.7</ele>
    <time>2017-01-22T11:23:58Z</time>
   </trkpt>
   <trkpt lat="51.7274370" lon="39.3047990">
    <ele>118.8</ele>
    <time>2017-01-22T11:24:19Z</time>
   </trkpt>
   <trkpt lat="51.7276340" lon="39.3027890">
    <ele>118.4</ele>
    <time>2017-01-22T11:24:46Z</time>
   </trkpt>
   <trkpt lat="51.7278070" lon="39.3009440">
    <ele>114.8</ele>
    <time>2017-01-22T11:25:12Z</time>
   </trkpt>
   <trkpt lat="51.7279110" lon="39.2992330">
    <ele>114.3</ele>
    <time>2017-01-22T11:25:36Z</time>
   </trkpt>
   <trkpt lat="51.7278620" lon="39.2976390">
    <ele>113.1</ele>
    <time>2017-01-22T11:25:59Z</time>
   </trkpt>
   <trkpt lat="51.7278150" lon="39.2970940">
    <ele>112.8</ele>
    <time>2017-01-22T11:26:07Z</time>
   </trkpt>
   <trkpt lat="51.7277500" lon="39.2969160">
    <ele>112.6</ele>
    <time>2017-01-22T11:26:10Z</time>
   </trkpt>
   <trkpt lat="51.7277130" lon="39.2968740">
    <ele>112.5</ele>
    <time>2017-01-22T11:26:11Z</time>
   </trkpt>
   <trkpt lat="51.7276720" lon="39.2968410">
    <ele>112.4</ele>
    <time>2017-01-22T11:26:12Z</time>
   </trkpt>
   <trkpt lat="51.7276260" lon="39.2968160">
    <ele>112.3</ele>
    <time>2017-01-22T11:26:13Z</time>
   </trkpt>
   <trkpt lat="51.7275780" lon="39.2967960">
    <ele>112.2</ele>
    <time>2017-01-22T11:26:14Z</time>
   </trkpt>
   <trkpt lat="51.7265860" lon="39.2965260">
    <ele>110.5</ele>
    <time>2017-01-22T11:26:34Z</time>
   </trkpt>
   <trkpt lat="51.7251620" lon="39.2961530">
    <ele>107.5</ele>
    <time>2017-01-22T11:27:01Z</time>
   </trkpt>
   <trkpt lat="51.7240150" lon="39.2958620">
    <ele>106.5</ele>
    <time>2017-01-22T11:27:23Z</time>
   </trkpt>
   <trkpt lat="51.7229360" lon="39.2955760">
    <ele>108.0</ele>
    <time>2017-01-22T11:27:43Z</time>
   </trkpt>
   <trkpt lat="51.7218300" lon="39.2952940">
    <ele>104.9</ele>
    <time>2017-01-22T11:28:04Z</time>
   </trkpt>
   <trkpt lat="51.7205850" lon="39.2949680">
    <ele>107.2</ele>
    <time>2017-01-22T11:28:28Z</time>
   </trkpt>
   <trkpt lat="51.7196040" lon="39.2947200">
    <ele>108.2</ele>
    <time>2017-01-22T11:28:48Z</time>
   </trkpt>
   <trkpt lat="51.7184480" lon="39.2943870">
    <ele>112.3</ele>
    <time>2017-01-22T11:29:12Z</time>
   </trkpt>
   <trkpt lat="51.7172620" lon="39.2940680">
    <ele>109.8</ele>
    <time>2017-01-22T11:29:36Z</time>
   </trkpt>
   <trkpt lat="51.7162830" lon="39.2938280">
    <ele>111.5</ele>
    <time>2017-01-22T11:29:56Z</time>
   </trkpt>
   <trkpt lat="51.7151820" lon="39.2935540">
    <ele>109.6</ele>
    <time>2017-01-22T11:30:18Z</time>
   </trkpt>
   <trkpt lat="51.7143380" lon="39.2933390">
    <ele>109.4</ele>
    <time>2017-01-22T11:30:35Z</time>
   </trkpt>
   <trkpt lat="51.7134320" lon="39.2931000">
    <ele>109.5</ele>
    <time>2017-01-22T11:30:53Z</time>
   </trkpt>
   <trkpt lat="51.7124480" lon="39.2928530">
    <ele>110.1</ele>
    <time>2017-01-22T11:31:13Z</time>
   </trkpt>
   <trkpt lat="51.7113260" lon="39.2925630">
    <ele>110.0</ele>
    <time>2017-01-22T11:31:36Z</time>
   </trkpt>
   <trkpt lat="51.7104230" lon="39.2923340">
    <ele>110.4</ele>
    <time>2017-01-22T11:31:55Z</time>
   </trkpt>
   <trkpt lat="51.7094230" lon="39.2920950">
    <ele>111.7</ele>
    <time>2017-01-22T11:32:15Z</time>
   </trkpt>
   <trkpt lat="51.7084520" lon="39.2918360">
    <ele>112.9</ele>
    <time>2017-01-22T11:32:34Z</time>
   </trkpt>
   <trkpt lat="51.7072000" lon="39.2915200">
    <ele>114.1</ele>
    <time>2017-01-22T11:32:58Z</time>
   </trkpt>
   <trkpt lat="51.7062110" lon="39.2912720">
    <ele>114.0</ele>
    <time>2017-01-22T11:33:17Z</time>
   </trkpt>
   <trkpt lat="51.7050760" lon="39.2910020">
    <ele>114.4</ele>
    <time>2017-01-22T11:33:39Z</time>
   </trkpt>
   <trkpt lat="51.7039380" lon="39.2907080">
    <ele>113.2</ele>
    <time>2017-01-22T11:34:01Z</time>
   </trkpt>
   <trkpt lat="51.7030110" lon="39.2904020">
    <ele>116.2</ele>
    <time>2017-01-22T11:34:19Z</time>
   </trkpt>
   <trkpt lat="51.7023500" lon="39.2896210">
    <ele>118.0</ele>
    <time>2017-01-22T11:34:34Z</time>
   </trkpt>
   <trkpt lat="51.7021180" lon="39.2885120">
    <ele>118.2</ele>
    <time>2017-01-22T11:34:49Z</time>
   </trkpt>
   <trkpt lat="51.7021900" lon="39.2868860">
    <ele>119.7</ele>
    <time>2017-01-22T11:35:09Z</time>
   </trkpt>
   <trkpt lat="51.7023360" lon="39.2849970">
    <ele>119.2</ele>
    <time>2017-01-22T11:35:31Z</time>
   </trkpt>
   <trkpt lat="51.7024780" lon="39.2832490">
    <ele>114.4</ele>
    <time>2017-01-22T11:35:51Z</time>
   </trkpt>
   <trkpt lat="51.7026120" lon="39.2817420">
    <ele>112.5</ele>
    <time>2017-01-22T11:36:09Z</time>
   </trkpt>
   <trkpt lat="51.7027780" lon="39.2798210">
    <ele>109.0</ele>
    <time>2017-01-22T11:36:32Z</time>
   </trkpt>
   <trkpt lat="51.7028930" lon="39.2783310">
    <ele>109.0</ele>
    <time>2017-01-22T11:36:49Z</time>
   </trkpt>
   <trkpt lat="51.7030030" lon="39.2773970">
    <ele>109.0</ele>
    <time>2017-01-22T11:37:00Z</time>
   </trkpt>
   <trkpt lat="51.7030150" lon="39.2773190">
    <ele>109.0</ele>
    <time>2017-01-22T11:37:01Z</time>
   </trkpt>
   <trkpt lat="51.7030270" lon="39.2772450">
    <ele>109.0</ele>
    <time>2017-01-22T11:37:02Z</time>
   </trkpt>
   <trkpt lat="51.7030710" lon="39.2761810">
    <ele>108.0</ele>
    <time>2017-01-22T11:37:15Z</time>
   </trkpt>
   <trkpt lat="51.7031140" lon="39.2755960">
    <ele>107.0</ele>
    <time>2017-01-22T11:37:25Z</time>
   </trkpt>
   <trkpt lat="51.7030600" lon="39.2751950">
    <ele>107.0</ele>
    <time>2017-01-22T11:37:35Z</time>
   </trkpt>
   <trkpt lat="51.7029400" lon="39.2750350">
    <ele>107.0</ele>
    <time>2017-01-22T11:37:39Z</time>
   </trkpt>
   <trkpt lat="51.7029000" lon="39.2750160">
    <ele>107.3</ele>
    <time>2017-01-22T11:37:40Z</time>
   </trkpt>
   <trkpt lat="51.7028600" lon="39.2750010">
    <ele>107.4</ele>
    <time>2017-01-22T11:37:41Z</time>
   </trkpt>
   <trkpt lat="51.7020690" lon="39.2747670">
    <ele>108.0</ele>
    <time>2017-01-22T11:37:59Z</time>
   </trkpt>
   <trkpt lat="51.7012340" lon="39.2743160">
    <ele>108.0</ele>
    <time>2017-01-22T11:38:19Z</time>
   </trkpt>
   <trkpt lat="51.7010380" lon="39.2740270">
    <ele>107.9</ele>
    <time>2017-01-22T11:38:27Z</time>
   </trkpt>
   <trkpt lat="51.7010150" lon="39.2740060">
    <ele>107.9</ele>
    <time>2017-01-22T11:38:28Z</time>
   </trkpt>
   <trkpt lat="51.7006910" lon="39.2737770">
    <ele>108.0</ele>
    <time>2017-01-22T11:38:40Z</time>
   </trkpt>
   <trkpt lat="51.7002070" lon="39.2733760">
    <ele>108.7</ele>
    <time>2017-01-22T11:38:56Z</time>
   </trkpt>
   <trkpt lat="51.6997190" lon="39.2730590">
    <ele>110.2</ele>
    <time>2017-01-22T11:39:10Z</time>
   </trkpt>
   <trkpt lat="51.6993810" lon="39.2728520">
    <ele>111.1</ele>
    <time>2017-01-22T11:39:22Z</time>
   </trkpt>
   <trkpt lat="51.6988720" lon="39.2725260">
    <ele>111.4</ele>
    <time>2017-01-22T11:39:36Z</time>
   </trkpt>
   <trkpt lat="51.6982370" lon="39.2721230">
    <ele>111.7</ele>
    <time>2017-01-22T11:39:54Z</time>
   </trkpt>
   <trkpt lat="51.6978640" lon="39.2718040">
    <ele>112.0</ele>
    <time>2017-01-22T11:40:07Z</time>
   </trkpt>
   <trkpt lat="51.6978400" lon="39.2718050">
    <ele>112.0</ele>
    <time>2017-01-22T11:40:11Z</time>
   </trkpt>
   <trkpt lat="51.6977860" lon="39.2717720">
    <ele>112.0</ele>
    <time>2017-01-22T11:40:15Z</time>
   </trkpt>
   <trkpt lat="51.6976360" lon="39.2716080">
    <ele>111.9</ele>
    <time>2017-01-22T11:40:26Z</time>
   </trkpt>
   <trkpt lat="51.6976320" lon="39.2715730">
    <ele>111.9</ele>
    <time>2017-01-22T11:40:27Z</time>
   </trkpt>
   <trkpt lat="51.6976250" lon="39.2714060">
    <ele>111.9</ele>
    <time>2017-01-22T11:40:32Z</time>
   </trkpt>
   <trkpt lat="51.6976120" lon="39.2713860">
    <ele>112.0</ele>
    <time>2017-01-22T11:40:33Z</time>
   </trkpt>
   <trkpt lat="51.6975920" lon="39.2713440">
    <ele>112.0</ele>
    <time>2017-01-22T11:40:35Z</time>
   </trkpt>
   <trkpt lat="51.6975860" lon="39.2713210">
    <ele>112.0</ele>
    <time>2017-01-22T11:40:36Z</time>
   </trkpt>
   <trkpt lat="51.6975780" lon="39.2712830">
    <ele>112.0</ele>
    <time>2017-01-22T11:40:37Z</time>
   </trkpt>
   <trkpt lat="51.6975670" lon="39.2712440">
    <ele>112.0</ele>
    <time>2017-01-22T11:40:38Z</time>
   </trkpt>
   <trkpt lat="51.6975550" lon="39.2712020">
    <ele>112.0</ele>
    <time>2017-01-22T11:40:39Z</time>
   </trkpt>
   <trkpt lat="51.6972310" lon="39.2708810">
    <ele>111.5</ele>
    <time>2017-01-22T11:40:50Z</time>
   </trkpt>
   <trkpt lat="51.6966640" lon="39.2704450">
    <ele>108.6</ele>
    <time>2017-01-22T11:41:08Z</time>
   </trkpt>
   <trkpt lat="51.6964320" lon="39.2701860">
    <ele>108.2</ele>
    <time>2017-01-22T11:41:18Z</time>
   </trkpt>
   <trkpt lat="51.6964230" lon="39.2701630">
    <ele>108.2</ele>
    <time>2017-01-22T11:41:19Z</time>
   </trkpt>
   <trkpt lat="51.6964180" lon="39.2701310">
    <ele>108.1</ele>
    <time>2017-01-22T11:41:20Z</time>
   </trkpt>
   <trkpt lat="51.6964180" lon="39.2700950">
    <ele>108.2</ele>
    <time>2017-01-22T11:41:21Z</time>
   </trkpt>
   <trkpt lat="51.6964230" lon="39.2700550">
    <ele>108.2</ele>
    <time>2017-01-22T11:41:22Z</time>
   </trkpt>
   <trkpt lat="51.6964290" lon="39.2700140">
    <ele>108.3</ele>
    <time>2017-01-22T11:41:23Z</time>
   </trkpt>
   <trkpt lat="51.6966110" lon="39.2692660">
    <ele>109.1</ele>
    <time>2017-01-22T11:41:37Z</time>
   </trkpt>
   <trkpt lat="51.6966580" lon="39.2686500">
    <ele>110.1</ele>
    <time>2017-01-22T11:41:49Z</time>
   </trkpt>
   <trkpt lat="51.6967580" lon="39.2680220">
    <ele>109.0</ele>
    <time>2017-01-22T11:42:03Z</time>
   </trkpt>
   <trkpt lat="51.6968210" lon="39.2678070">
    <ele>108.9</ele>
    <time>2017-01-22T11:42:08Z</time>
   </trkpt>
   <trkpt lat="51.6968210" lon="39.2677760">
    <ele>108.8</ele>
    <time>2017-01-22T11:42:09Z</time>
   </trkpt>
   <trkpt lat="51.6968100" lon="39.2677420">
    <ele>108.7</ele>
    <time>2017-01-22T11:42:10Z</time>
   </trkpt>
   <trkpt lat="51.6967900" lon="39.2677180">
    <ele>108.5</ele>
    <time>2017-01-22T11:42:11Z</time>
   </trkpt>
   <trkpt lat="51.6967670" lon="39.2676970">
    <ele>108.3</ele>
    <time>2017-01-22T11:42:12Z</time>
   </trkpt>
   <trkpt lat="51.6967420" lon="39.2676670">
    <ele>108.1</ele>
    <time>2017-01-22T11:42:13Z</time>
   </trkpt>
   <trkpt lat="51.6967140" lon="39.2676430">
    <ele>108.1</ele>
    <time>2017-01-22T11:42:14Z</time>
   </trkpt>
   <trkpt lat="51.6963080" lon="39.2673360">
    <ele>108.4</ele>
    <time>2017-01-22T11:42:27Z</time>
   </trkpt>
   <trkpt lat="51.6959310" lon="39.2670310">
    <ele>106.9</ele>
    <time>2017-01-22T11:42:39Z</time>
   </trkpt>
   <trkpt lat="51.6956090" lon="39.2667860">
    <ele>106.0</ele>
    <time>2017-01-22T11:42:50Z</time>
   </trkpt>
   <trkpt lat="51.6952300" lon="39.2665150">
    <ele>105.7</ele>
    <time>2017-01-22T11:43:03Z</time>
   </trkpt>
   <trkpt lat="51.6950970" lon="39.2663910">
    <ele>105.4</ele>
    <time>2017-01-22T11:43:08Z</time>
   </trkpt>
   <trkpt lat="51.6950880" lon="39.2663560">
    <ele>105.3</ele>
    <time>2017-01-22T11:43:09Z</time>
   </trkpt>
   <trkpt lat="51.6950840" lon="39.2663190">
    <ele>105.3</ele>
    <time>2017-01-22T11:43:10Z</time>
   </trkpt>
   <trkpt lat="51.6950850" lon="39.2662810">
    <ele>105.2</ele>
    <time>2017-01-22T11:43:11Z</time>
   </trkpt>
   <trkpt lat="51.6950870" lon="39.2662460">
    <ele>105.2</ele>
    <time>2017-01-22T11:43:12Z</time>
   </trkpt>
   <trkpt lat="51.6950790" lon="39.2661850">
    <ele>105.1</ele>
    <time>2017-01-22T11:43:14Z</time>
   </trkpt>
   <trkpt lat="51.6950680" lon="39.2661690">
    <ele>105.1</ele>
    <time>2017-01-22T11:43:18Z</time>
   </trkpt>
   <trkpt lat="51.6949330" lon="39.2661310">
    <ele>105.0</ele>
    <time>2017-01-22T12:22:35Z</time>
   </trkpt>
   <trkpt lat="51.6949330" lon="39.2661300">
    <ele>105.0</ele>
    <time>2017-01-22T12:22:36Z</time>
   </trkpt>
  </trkseg>
 </trk>
</gpx>
